[[{"header":{"parameterUnit":"m.s-1","parameterCategory":1,"la1":30.6,"la2":28.766,"lo1":-90.7593,"lo2":-88.6598,"dy":0.0162,"dx":0.0183,"nx":116,"ny":114,"refTime":"2023-04-18T12:00:00:Z","depth":0,"parameterNumber":2,"parameterNumberName":"U-component_of_WINDS"},"data":[0.0,0.0,0.0,0.0,0.0,0.0,0.0,0.0,0.0,0.0,0.0,0.0,0.0,0.0,0.0,0.0,0.0,0.0,0.0,0.0,0.0,0.0,0.0,0.0,0.0,0.0,0.0,0.0,0.0,0.0,0.0,0.0,0.0,0.0,0.0,0.0,0.0,0.0,0.0,0.0,0.0,0.0,0.0,0.0,0.0,0.0,0.0,0.0,0.0,0.0,0.0,0.0,0.0,0.0,0.0,0.0,0.0,0.0,0.0,0.0,0.0,0.0,0.0,0.0,0.0,0.0,0.0,0.0,0.0,0.0,0.0,0.0,0.0,0.0,0.0,0.0,0.0,0.0,0.0,0.0,0.0,0.0,0.0,0.0,0.0,0.0,0.0,0.0,0.0,0.0,0.0,0.0,0.0,0.0,0.0,0.0,0.0,0.0,0.0,0.0,0.0,0.0,0.0,0.0,0.0,0.0,0.0,0.0,0.0,0.0,0.0,0.0,0.0,0.0,0.0,0.0,0.0,0.0,0.0,0.0,0.0,0.0,0.0,0.0,0.0,0.0,0.0,0.0,0.0,0.0,0.0,0.0,0.0,0.0,0.0,0.0,0.0,0.0,0.0,0.0,0.0,0.0,0.0,0.0,0.0,0.0,0.0,0.0,0.0,0.0,0.0,0.0,0.0,0.0,0.0,0.0,0.0,0.0,0.0,0.0,0.0,0.0,0.0,0.0,0.0,0.0,0.0,0.0,0.0,0.0,0.0,0.0,0.0,0.0,0.0,0.0,0.0,0.0,0.0,0.0,0.0,0.0,0.0,0.0,0.0,0.0,0.0,0.0,0.0,0.0,0.0,0.0,0.0,0.0,0.0,0.0,0.0,0.0,0.0,0.0,0.0,0.0,0.0,0.0,0.0,0.0,0.0,0.0,0.0,0.0,0.0,0.0,0.0,0.0,0.0,0.0,0.0,0.0,0.0,0.0,0.0,0.0,0.0,0.0,0.0,0.0,0.0,0.0,0.0,0.0,0.0,0.0,0.0,0.0,0.0,0.0,0.0,0.0,0.0,0.0,0.0,0.0,0.0,0.0,0.0,0.0,0.0,0.0,0.0,0.0,0.0,0.0,0.0,0.0,0.0,0.0,0.0,0.0,0.0,0.0,0.0,0.0,0.0,0.0,0.0,0.0,0.0,0.0,0.0,0.0,0.0,0.0,0.0,0.0,0.0,0.0,0.0,0.0,0.0,0.0,0.0,0.0,0.0,0.0,0.0,0.0,0.0,0.0,0.0,0.0,0.0,0.0,0.0,0.0,0.0,0.0,0.0,0.0,0.0,0.0,0.0,0.0,0.0,0.0,0.0,0.0,0.0,0.0,0.0,0.0,0.0,0.0,0.0,0.0,0.0,0.0,0.0,0.0,0.0,0.0,0.0,0.0,0.0,0.0,0.0,0.0,0.0,0.0,0.0,0.0,0.0,0.0,0.0,0.0,0.0,0.0,0.0,0.0,0.0,0.0,0.0,0.0,0.0,0.0,0.0,0.0,0.0,0.0,0.0,0.0,0.0,0.0,0.0,0.0,0.0,0.0,0.0,0.0,0.0,0.0,0.0,0.0,0.0,0.0,0.0,0.0,0.0,0.0,0.0,0.0,0.0,0.0,0.0,0.0,0.0,0.0,0.0,0.0,0.0,0.0,0.0,0.0,0.0,0.0,0.0,0.0,0.0,0.0,0.0,0.0,0.0,0.0,0.0,0.0,0.0,0.0,0.0,0.0,0.0,0.0,0.0,0.0,0.0,0.0,0.0,0.0,0.0,0.0,0.0,0.0,0.0,0.0,0.0,0.0,0.0,0.0,0.0,0.0,0.0,0.0,0.0,0.0,0.0,0.0,0.0,0.0,0.0,0.0,0.0,0.0,0.0,0.0,0.0,0.0,0.0,0.0,0.0,0.0,0.0,0.0,0.0,0.0,0.0,0.0,0.0,0.0,0.0,0.0,0.0,0.0,0.0,0.0,0.0,0.0,0.0,0.0,0.0,0.0,0.0,0.0,0.0,0.0,0.0,0.0,0.0,0.0,0.0,0.0,0.0,0.0,0.0,0.0,0.0,0.0,0.0,0.0,0.0,0.0,0.0,0.0,0.0,0.0,0.0,0.0,0.0,0.0,0.0,0.0,0.0,0.0,0.0,0.0,0.0,0.0,0.0,0.0,0.0,0.0,0.0,0.0,0.0,0.0,0.0,0.0,0.0,0.0,0.0,0.0,0.0,0.0,0.0,0.0,0.0,0.0,0.0,0.0,0.0,0.0,0.0,0.0,0.0,0.0,0.0,0.0,0.0,0.0,0.0,0.0,0.0,0.0,0.0,0.0,0.0,0.0,0.0,0.0,0.0,0.0,0.0,0.0,0.0,0.0,0.0,0.0,0.0,0.0,0.0,0.0,0.0,0.0,0.0,0.0,0.0,0.0,0.0,0.0,0.0,0.0,0.0,0.0,0.0,0.0,0.0,0.0,0.0,0.0,0.0,0.0,0.0,0.0,0.0,0.0,0.0,0.0,0.0,0.0,0.0,0.0,0.0,0.0,0.0,0.0,0.0,0.0,0.0,0.0,0.0,0.0,0.0,0.0,0.0,0.0,0.0,0.0,0.0,0.0,0.0,0.0,0.0,0.0,0.0,0.0,0.0,0.0,0.0,0.0,0.0,0.0,0.0,0.0,0.0,0.0,0.0,0.0,0.0,0.0,0.0,0.0,0.0,0.0,0.0,0.0,0.0,0.0,0.0,0.0,0.0,0.0,0.0,0.0,0.0,0.0,0.0,0.0,0.0,0.0,0.0,0.0,0.0,0.0,0.0,0.0,0.0,0.0,0.0,0.0,0.0,0.0,0.0,0.0,0.0,0.0,0.0,0.0,0.0,0.0,0.0,0.0,0.0,0.0,0.0,0.0,0.0,0.0,0.0,0.0,0.0,0.0,0.0,0.0,0.0,0.0,0.0,0.0,0.0,0.0,0.0,0.0,0.0,0.0,0.0,0.0,0.0,0.0,0.0,0.0,0.0,0.0,0.0,0.0,0.0,0.0,0.0,0.0,0.0,0.0,0.0,0.0,0.0,0.0,0.0,0.0,0.0,0.0,0.0,0.0,0.0,0.0,0.0,0.0,0.0,0.0,0.0,0.0,0.0,0.0,0.0,0.0,0.0,0.0,0.0,0.0,0.0,0.0,0.0,0.0,0.0,0.0,0.0,0.0,0.0,0.0,0.0,0.0,0.0,0.0,0.0,0.0,0.0,0.0,0.0,0.0,0.0,0.0,0.0,0.0,0.0,0.0,0.0,0.0,0.0,0.0,0.0,0.0,0.0,0.0,0.0,0.0,0.0,0.0,0.0,0.0,0.0,0.0,0.0,0.0,0.0,0.0,0.0,0.0,0.0,0.0,0.0,0.0,0.0,0.0,0.0,0.0,0.0,0.0,0.0,0.0,0.0,0.0,0.0,0.0,0.0,0.0,0.0,0.0,0.0,0.0,0.0,0.0,0.0,0.0,0.0,0.0,0.0,0.0,0.0,0.0,0.0,0.0,0.0,0.0,0.0,0.0,0.0,0.0,0.0,0.0,0.0,0.0,0.0,0.0,0.0,0.0,0.0,0.0,0.0,0.0,0.0,0.0,0.0,0.0,0.0,0.0,0.0,0.0,0.0,0.0,0.0,0.0,0.0,0.0,0.0,0.0,0.0,0.0,0.0,0.0,0.0,0.0,0.0,0.0,0.0,0.0,0.0,0.0,0.0,0.0,0.0,0.0,0.0,0.0,0.0,0.0,0.0,0.0,0.0,0.0,0.0,0.0,0.0,0.0,0.0,0.0,0.0,0.0,0.0,0.0,0.0,0.0,0.0,0.0,0.0,0.0,0.0,0.0,0.0,0.0,0.0,0.0,0.0,0.0,0.0,0.0,0.0,0.0,0.0,0.0,0.0,0.0,0.0,0.0,0.0,0.0,0.0,0.0,0.0,0.0,0.0,0.0,0.0,0.0,0.0,0.0,0.0,0.0,0.0,0.0,0.0,0.0,0.0,0.0,0.0,0.0,0.0,0.0,0.0,0.0,0.0,0.0,0.0,0.0,0.0,0.0,0.0,0.0,0.0,0.0,0.0,0.0,0.0,0.0,0.0,0.0,0.0,0.0,0.0,0.0,0.0,0.0,0.0,0.0,0.0,0.0,0.0,0.0,0.0,0.0,0.0,0.0,0.0,0.0,0.0,0.0,0.0,0.0,0.0,0.0,0.0,0.0,0.0,0.0,0.0,0.0,0.0,0.0,0.0,0.0,0.0,0.0,0.0,0.0,0.0,0.0,0.0,0.0,0.0,0.0,0.0,0.0,0.0,0.0,0.0,0.0,0.0,0.0,0.0,0.0,0.0,0.0,0.0,0.0,0.0,0.0,0.0,0.0,0.0,0.0,0.0,0.0,0.0,0.0,0.0,0.0,0.0,0.0,0.0,0.0,0.0,0.0,0.0,0.0,0.0,0.0,0.0,0.0,0.0,0.0,0.0,0.0,0.0,0.0,0.0,0.0,0.0,0.0,0.0,0.0,0.0,0.0,0.0,0.0,0.0,0.0,0.0,0.0,0.0,0.0,0.0,0.0,0.0,0.0,0.0,0.0,0.0,0.0,0.0,0.0,0.0,0.0,0.0,0.0,0.0,0.0,0.0,0.0,0.0,0.0,0.0,0.0,0.0,0.0,0.0,0.0,0.0,0.0,0.0,0.0,0.0,0.0,0.0,0.0,0.0,0.0,0.0,0.0,0.0,0.0,0.0,0.0,0.0,0.0,0.0,0.0,0.0,0.0,0.0,0.0,0.0,0.0,0.0,0.0,0.0,0.0,0.0,0.0,0.0,0.0,0.0,0.0,0.0,0.0,0.0,0.0,0.0,0.0,0.0,0.0,0.0,0.0,0.0,0.0,0.0,0.0,0.0,0.0,0.0,0.0,0.0,0.0,0.0,0.0,0.0,0.0,0.0,0.0,0.0,0.0,0.0,0.0,0.0,0.0,0.0,0.0,0.0,0.0,0.0,0.0,0.0,0.0,0.0,0.0,0.0,0.0,0.0,0.0,0.0,0.0,0.0,0.0,0.0,0.0,0.0,0.0,0.0,0.0,0.0,0.0,0.0,0.0,0.0,0.0,0.0,0.0,0.0,0.0,0.0,0.0,0.0,0.0,0.0,0.0,0.0,0.0,0.0,0.0,0.0,0.0,0.0,0.0,0.0,0.0,0.0,0.0,0.0,0.0,0.0,0.0,0.0,0.0,0.0,0.0,0.0,0.0,0.0,0.0,0.0,0.0,0.0,0.0,0.0,0.0,0.0,0.0,0.0,0.0,0.0,0.0,0.0,0.0,0.0,0.0,0.0,0.0,0.0,0.0,0.0,0.0,0.0,0.0,0.0,0.0,0.0,0.0,0.0,0.0,0.0,0.0,0.0,0.0,0.0,0.0,0.0,0.0,0.0,0.0,0.0,0.0,0.0,0.0,0.0,0.0,0.0,0.0,0.0,0.0,0.0,0.0,0.0,0.0,0.0,0.0,0.0,0.0,0.0,0.0,0.0,0.0,0.0,0.0,0.0,0.0,0.0,0.0,0.0,0.0,0.0,0.0,0.0,0.0,0.0,0.0,0.0,0.0,0.0,0.0,0.0,0.0,0.0,0.0,0.0,0.0,0.0,0.0,0.0,0.0,0.0,0.0,0.0,0.0,0.0,0.0,0.0,0.0,0.0,0.0,0.0,0.0,0.0,0.0,0.0,0.0,0.0,0.0,0.0,0.0,0.0,0.0,0.0,0.0,0.0,0.0,0.0,0.0,0.0,0.0,0.0,0.0,0.0,0.0,0.0,0.0,0.0,0.0,0.0,0.0,0.0,0.0,0.0,0.0,0.0,0.0,0.0,0.0,0.0,0.0,0.0,0.0,0.0,0.0,0.0,0.0,0.0,0.0,0.0,0.0,0.0,0.0,0.0,0.0,0.0,0.0,0.0,0.0,0.0,0.0,0.0,0.0,0.0,0.0,0.0,0.0,0.0,0.0,0.0,0.0,0.0,0.0,0.0,0.0,0.0,0.0,0.0,0.0,0.0,0.0,-5.7389,0.0,0.0,0.0,0.0,0.0,0.0,0.0,0.0,0.0,0.0,0.0,0.0,0.0,0.0,0.0,0.0,0.0,0.0,0.0,0.0,0.0,0.0,0.0,0.0,0.0,0.0,0.0,0.0,0.0,0.0,0.0,0.0,0.0,0.0,0.0,0.0,0.0,0.0,0.0,-0.3117,-0.342,-0.3184,-0.439,-0.7106,-1.0819,0.0,0.0,0.0,0.0,0.0,0.0,0.0,0.0,0.0,0.0,0.0,0.0,0.0,0.0,0.0,0.0,0.0,0.0,0.0,0.0,0.0,0.0,0.0,0.0,0.0,0.0,0.0,0.0,0.0,0.0,0.0,0.0,0.0,0.0,0.0,0.0,0.0,0.0,0.0,0.0,0.0,0.0,0.0,0.0,0.0,0.0,0.0,0.0,0.0,0.0,0.0,0.0,0.0,0.0,0.0,0.0,0.0,0.0,0.0,0.0,0.0,0.0,0.0,0.0,0.0,0.0,0.0,0.0,0.0,0.0,0.0,-5.7941,0.0,0.0,0.0,0.0,0.0,0.0,0.0,0.0,0.0,0.0,0.0,0.0,0.0,0.0,0.0,0.0,0.0,0.0,0.0,0.0,0.0,0.0,0.0,0.7393,0.7526,0.7393,0.7526,0.6719,0.0,0.0,0.0,0.0,0.0,0.0,0.0,-0.2159,-0.2162,-0.2162,-0.2199,-0.1809,-0.1123,-0.1126,-0.408,-0.9293,-0.882,0.0,0.0,0.0,0.0,0.0,0.0,0.0,0.0,0.0,0.0,0.0,0.0,0.0,0.0,0.0,0.0,0.0,0.0,0.0,0.0,0.0,0.0,0.0,0.0,0.0,0.0,0.0,0.0,0.0,0.0,0.0,0.0,0.0,0.0,0.0,0.0,0.0,0.0,0.0,0.0,0.0,0.0,0.0,0.0,0.0,0.0,0.0,0.0,0.0,0.0,0.0,0.0,0.0,0.0,0.0,0.0,0.0,0.0,0.0,0.0,0.0,0.0,0.0,-5.9652,-5.952,-5.9386,-5.9319,-5.9253,-5.9219,-5.9219,-5.9287,-5.9319,-5.9081,0.0,0.0,0.0,0.0,0.0,0.0,0.0,0.0,0.0,0.0,0.0,0.0,0.0,0.0,0.0,0.0,0.0,0.0,0.0,0.0,0.0,0.7125,0.7393,0.7121,0.7388,0.6715,0.4967,0.0,0.0,0.0,0.0,0.0,-0.2155,-0.218,-0.2193,-0.2193,-0.2251,-0.1853,-0.1142,-0.1155,-0.1594,-0.2598,-0.6497,-0.8104,-0.7812,0.0,0.0,0.0,0.0,0.0,0.0,0.0,0.0,0.0,0.0,0.0,0.0,0.0,0.0,0.0,0.0,0.0,0.0,0.0,0.0,0.0,0.0,0.0,0.0,0.0,0.0,0.0,0.0,0.0,0.0,0.0,0.0,0.0,0.0,0.0,0.0,0.0,0.0,0.0,0.0,0.0,-4.9739,-5.0082,0.0,0.0,0.0,0.0,0.0,0.0,0.0,0.0,0.0,0.0,0.0,0.0,0.0,-5.9485,-5.9447,-5.9648,-5.9814,-5.9814,-5.9814,-5.9683,-5.9554,-5.9386,-5.9529,-6.0047,-6.0255,0.0,-5.9319,-5.9251,0.0,0.0,0.0,0.0,0.0,0.0,0.0,0.0,0.0,0.0,0.0,0.0,0.0,0.0,0.0,0.0,0.0,0.0,0.0,0.0,0.0,0.704,0.7206,0.7066,0.7528,0.6594,0.3844,0.3158,0.0,0.0,0.0,-0.2206,-0.2206,-0.2219,-0.2234,-0.2251,-0.2136,-0.158,-0.0434,-0.1455,-0.1751,-0.1893,-0.4028,-0.572,-0.7136,-0.7988,0.0,0.0,0.0,0.0,0.0,0.0,0.0,0.0,0.0,0.0,0.0,0.0,0.0,0.0,0.0,0.0,0.0,0.0,0.0,0.0,0.0,0.0,0.0,0.0,0.0,0.0,0.0,0.0,0.0,0.0,0.0,0.0,0.0,0.0,0.0,0.0,0.0,0.0,0.0,-4.9589,-5.063,-5.063,-5.1268,-5.1998,0.0,0.0,0.0,0.0,0.0,0.0,0.0,0.0,0.0,-5.9251,-5.9734,-6.018,-6.0513,-6.1029,-6.1239,-6.1239,-6.1173,-6.104,-6.0909,-6.0669,-6.0635,-6.0806,-6.0876,-6.0843,-6.0601,-6.0738,-6.0738,-6.0738,0.0,0.0,0.0,0.0,-6.0976,-6.0941,0.0,0.0,0.0,0.0,0.0,0.0,0.0,0.0,0.0,0.0,0.0,0.0,0.7286,0.765,0.7986,0.7986,0.7927,0.6573,0.3634,0.3074,0.1538,-0.1543,-0.1965,-0.2245,-0.2245,-0.1972,-0.1987,-0.2159,-0.2159,-0.1591,-0.0292,-0.1606,-0.2335,-0.2335,-0.2334,-0.3639,-0.5812,-0.6532,-0.7688,-0.9136,0.0,0.0,0.0,0.0,0.0,0.0,0.0,0.0,0.0,0.0,0.0,0.0,0.0,0.0,0.0,0.0,0.0,0.0,0.0,0.0,0.0,0.0,0.0,0.0,0.0,0.0,0.0,0.0,0.0,0.0,0.0,0.0,0.0,0.0,0.0,0.0,0.0,-5.0653,-5.1429,-5.146,-5.2146,-5.2847,0.0,0.0,0.0,0.0,0.0,0.0,-5.8264,-5.8191,-5.8655,-5.9838,-6.0427,-6.1013,-6.1581,-6.2042,-6.2322,-6.2322,-6.2053,-6.1917,-6.1814,-6.1606,-6.1569,-6.1599,-6.1671,-6.1845,-6.216,-6.1919,-6.1883,-6.1883,-6.1883,-6.1883,-6.1952,-6.2123,-6.2191,-6.2191,0.0,0.0,0.0,0.0,0.0,0.0,0.0,0.0,0.0,0.0,0.0,1.0496,0.9408,0.9662,1.0022,1.0022,0.8793,0.7135,0.5175,0.3634,0.1958,-0.0,-0.1403,-0.2245,-0.2245,-0.1563,-0.1583,-0.2334,-0.2334,-0.1896,-0.1168,-0.1896,-0.2333,-0.2333,-0.2333,-0.2333,-0.2624,-0.4221,-0.509,-0.5812,-0.9136,0.0,0.0,0.0,0.0,0.0,0.0,0.0,0.0,0.0,0.0,0.0,0.0,0.0,0.0,0.0,0.0,0.0,0.0,0.0,0.0,0.0,0.0,0.0,0.0,0.0,0.0,0.0,0.0,0.0,0.0,0.0,0.0,0.0,0.0,0.0,0.0,0.0,0.0,-5.2659,-5.3255,0.0,0.0,0.0,0.0,-5.5067,-5.5668,-5.7033,-5.9306,-5.905,-5.9864,-6.2182,-6.2252,-6.2319,-6.2319,-6.2153,-6.2121,-6.2121,-6.1814,-6.1606,-6.1606,-6.1394,-6.1703,-6.2427,-6.2574,-6.3061,-6.3684,-6.2229,-6.1745,-6.1883,-6.1883,-6.1883,-6.1952,-6.2123,-6.2191,-6.2191,0.0,0.0,0.0,0.0,0.0,0.0,0.0,0.0,1.0041,0.9643,0.9753,0.9826,0.942,1.0166,1.0722,1.0722,0.9264,0.7746,0.6023,0.4013,0.2151,0.0431,-0.1294,-0.2301,-0.2301,-0.1734,-0.1452,-0.1606,-0.2043,-0.2191,-0.1898,-0.2188,-0.2333,-0.2333,-0.2333,-0.2914,-0.3787,-0.335,-0.393,-0.538,-0.6536,-0.8981,0.0,0.0,0.0,0.0,0.0,0.0,0.0,0.0,0.0,0.0,0.0,0.0,0.0,0.0,0.0,0.0,0.0,0.0,0.0,0.0,0.0,0.0,0.0,0.0,0.0,0.0,0.0,0.0,0.0,0.0,0.0,0.0,0.0,0.0,0.0,0.0,0.0,-5.3177,-5.3514,0.0,-5.3789,-5.4482,-5.5048,-5.5473,-5.6176,-5.7167,-5.8607,-5.892,-5.9742,-6.1254,-6.2127,-6.2683,-6.2958,-6.3344,-6.352,-6.3415,-6.3238,-6.3095,-6.3095,-6.2845,-6.2944,-6.3186,-6.3259,-6.347,-6.3858,-6.3338,-6.3274,-6.352,-6.3624,-6.3693,-6.3693,-6.3762,-6.3762,-6.383,0.0,0.0,0.0,0.0,0.0,0.0,0.0,0.0,0.9996,1.0578,1.0386,1.0451,1.1316,1.142,1.1436,1.1712,0.9678,0.8,0.6833,0.4361,0.2327,0.1164,-0.1019,-0.2333,-0.2333,-0.2041,-0.175,-0.1605,-0.2043,-0.2335,-0.2335,-0.2915,-0.277,-0.2333,-0.3348,-0.393,-0.3787,-0.335,-0.4221,-0.5812,-0.5956,-0.7977,-1.1005,0.0,0.0,0.0,0.0,0.0,0.0,0.0,0.0,0.0,0.0,0.0,0.0,0.0,0.0,0.0,0.0,0.0,0.0,0.0,0.0,0.0,0.0,0.0,0.0,0.0,0.0,0.0,0.0,0.0,0.0,0.0,0.0,0.0,0.0,0.0,-5.3702,-5.3584,-5.3978,-5.4222,-5.4222,-5.4819,-5.5493,-5.593,-5.6605,-5.7611,-5.8921,-5.961,-6.0596,-6.1941,-6.2784,-6.3345,-6.3625,-6.4043,-6.418,-6.4143,-6.3892,-6.3958,-6.4127,-6.4053,-6.4117,-6.4358,-6.4433,-6.4507,-6.4689,-6.4836,-6.5018,-6.5162,-6.4778,-6.4637,-6.4706,-6.4706,-6.4706,-6.4706,0.0,0.0,0.0,0.0,0.0,0.0,0.0,1.1439,1.0574,1.2506,1.1971,1.2298,1.4979,1.3475,1.2445,1.3143,1.0155,0.786,0.7566,0.4651,0.2618,0.2183,-0.0728,-0.2333,-0.2333,-0.2333,-0.2333,-0.2333,-0.2333,-0.2333,-0.2333,-0.3932,-0.3787,-0.2478,-0.5522,-0.5232,-0.2478,-0.4078,-0.5673,-0.7119,-0.7255,-0.8554,-1.0437,0.0,0.0,0.0,0.0,0.0,0.0,0.0,0.0,0.0,0.0,0.0,0.0,0.0,0.0,0.0,0.0,0.0,0.0,0.0,0.0,0.0,0.0,0.0,0.0,0.0,0.0,0.0,0.0,0.0,0.0,0.0,0.0,0.0,-5.3144,-5.3528,-5.3821,-5.3852,-5.4592,-5.5146,-5.5146,-5.5809,-5.622,-5.6309,-5.7066,-5.8394,-6.0437,-6.1393,-6.2591,-6.4288,-6.4428,-6.4393,-6.4215,-6.4034,-6.3996,-6.3996,-6.3742,-6.4048,-6.4738,-6.4738,-6.5152,-6.5876,-6.6104,-6.6179,-6.6254,-6.6659,-6.6805,-6.6631,-6.5092,-6.4638,-6.4776,-6.4776,-6.4776,-6.4776,0.0,0.0,0.0,0.0,0.0,0.0,0.0,1.104,1.0135,1.0724,1.1094,1.2006,1.3595,1.2775,1.2302,1.2437,0.9579,0.7276,0.6398,0.3928,0.1455,-0.0874,-0.1894,-0.2333,-0.2333,-0.2333,-0.2333,-0.2333,-0.2333,-0.2333,-0.2333,-0.277,-0.2768,-0.2333,-0.3203,-0.3785,-0.4078,-0.5873,-0.7366,-0.868,-0.6417,-0.7404,-1.0437,0.0,0.0,0.0,0.0,0.0,0.0,0.0,0.0,0.0,0.0,0.0,0.0,0.0,0.0,0.0,0.0,0.0,0.0,0.0,0.0,0.0,0.0,0.0,0.0,0.0,0.0,0.0,0.0,0.0,0.0,0.0,0.0,-5.4956,-5.4366,-5.4599,-5.4964,-5.5468,-5.5778,-5.5904,-5.5904,-5.6536,-5.7185,-5.7914,-5.8799,-5.9807,-6.1274,-6.2063,-6.285,-6.3496,-6.4523,-6.4981,-6.4797,-6.5244,-6.5481,-6.5331,-6.5255,-6.5359,-6.5566,-6.5566,-6.5669,-6.5876,-6.6104,-6.6254,-6.6438,-6.6732,-6.6843,-6.6917,-6.6461,-6.6285,-6.6391,-6.6391,-6.6391,-6.6286,0.0,0.0,0.0,0.0,0.0,0.0,0.0,1.092,1.0429,1.1321,1.1067,1.1664,1.356,1.2394,1.1449,1.1299,0.8858,0.6986,0.6402,0.3782,0.0873,-0.2187,-0.2333,-0.2333,-0.2333,-0.2333,-0.2333,-0.2333,-0.2333,-0.2333,-0.2333,-0.3059,-0.2914,-0.2333,-0.4389,-0.5131,-0.4991,-0.7273,-0.8795,-0.9387,-0.7547,-0.87,-1.1345,-1.1046,-1.2358,-1.4703,-1.6549,-1.7398,-1.7959,-2.0509,0.0,0.0,0.0,0.0,0.0,0.0,0.0,0.0,0.0,0.0,0.0,0.0,0.0,0.0,0.0,0.0,0.0,0.0,0.0,0.0,0.0,0.0,0.0,0.0,-5.5368,-5.5947,-5.5852,-5.5658,-5.5715,-5.6125,-5.6441,-5.6631,-5.6631,-5.756,-5.8332,-5.851,-6.0141,-6.1351,-6.1847,-6.3192,-6.4126,-6.4387,-6.5244,-6.556,-6.5371,-6.5786,-6.5952,-6.5876,-6.5876,-6.6048,-6.6359,-6.6359,-6.6608,-6.6962,-6.7191,-6.7342,-6.7601,-6.7823,-6.7969,0.0,0.0,0.0,0.0,0.0,-6.7023,-6.6953,0.0,0.0,0.0,0.0,0.0,0.0,0.0,1.0915,1.0735,1.2573,1.1335,1.1302,1.3705,1.1872,1.0161,0.9867,0.814,0.6845,0.6551,0.3639,0.0728,-0.2187,-0.2333,-0.2333,-0.2333,-0.2333,-0.2333,-0.2333,-0.2333,-0.2333,-0.2333,-0.3787,-0.3789,-0.2776,-0.7072,-0.756,-0.5354,-0.8417,-0.9666,-0.9816,-0.9977,-1.1027,-1.2508,-1.1593,-1.2487,-1.458,-1.6324,-1.7194,-1.7915,-1.9503,0.0,0.0,0.0,0.0,0.0,0.0,0.0,0.0,0.0,0.0,0.0,0.0,0.0,0.0,0.0,0.0,0.0,0.0,0.0,0.0,0.0,0.0,0.0,0.0,-5.6077,-5.6631,-5.7263,-5.6821,-5.641,-5.641,-5.7037,-5.7507,-5.7507,-5.8976,-5.9628,-5.8887,-6.1409,-6.2896,-6.2747,0.0,0.0,0.0,0.0,-6.6132,-6.6014,-6.6083,-6.6152,-6.6152,-6.6152,-6.6462,-6.7118,-6.7118,-6.7541,-6.8397,-6.8628,-6.8816,-6.9078,-6.9302,-6.9376,-6.9235,-6.7831,-6.7269,-6.7269,-6.7269,-6.7269,-6.7269,0.0,0.0,0.0,0.0,0.0,0.0,0.0,0.9131,0.912,0.9574,0.9994,1.0562,1.1162,1.0737,1.0017,0.9002,0.7711,0.5967,0.3346,0.1456,-0.0437,-0.2187,-0.2333,-0.2333,-0.2333,-0.2333,-0.2333,-0.2333,-0.2333,-0.2333,-0.2333,-0.2624,-0.337,-0.4438,-0.5333,-0.6262,-0.7073,-0.9132,-0.9943,-1.0106,-1.144,-1.2271,-1.2657,-1.265,-1.3252,-1.3995,-1.472,-1.5892,-1.7341,-1.9079,-2.0826,-2.2418,-2.3998,-2.607,0.0,0.0,0.0,0.0,0.0,0.0,0.0,0.0,0.0,0.0,0.0,0.0,0.0,0.0,0.0,0.0,0.0,0.0,0.0,-5.6555,-5.7302,-5.7927,-5.8053,-5.7958,-5.7864,-5.7864,-5.8652,-5.9161,-5.9161,-6.0652,-6.1815,-6.2397,-6.364,-6.4676,-6.5216,-6.5738,-6.5994,-6.5952,-6.6539,-6.685,-6.6773,-6.7359,-6.7669,-6.7669,0.0,0.0,-6.7876,-6.7876,-6.7945,-6.8162,-6.8551,-6.8705,-6.8781,-6.9227,-6.9376,-6.934,-6.906,-6.8919,-6.8919,-6.8919,-6.8919,-6.8887,0.0,0.0,0.0,0.0,0.0,0.0,0.0,0.8136,0.8136,0.8136,0.8714,0.9002,0.9002,0.9002,0.8131,0.5953,0.4942,0.3344,0.1018,0.0291,-0.0729,-0.2187,-0.2333,-0.2333,-0.2333,-0.2333,-0.2333,-0.2333,-0.2333,-0.2333,-0.2333,-0.3059,-0.396,-0.4898,-0.6563,-0.7827,-0.8834,-1.0479,-1.1306,-1.1312,-1.2159,-1.2567,-1.2892,-1.3347,-1.3801,-1.4406,-1.47,-1.5746,-1.7235,-1.812,-2.0184,-2.2263,-2.3139,-2.5282,-2.7958,0.0,0.0,0.0,0.0,0.0,0.0,0.0,0.0,0.0,0.0,0.0,0.0,0.0,0.0,-5.5779,0.0,0.0,-5.7556,-5.8573,-5.9228,-5.9671,-6.0056,-6.0419,-6.0469,-5.9575,-5.9871,-6.0532,-6.1295,-6.2514,-6.3332,-6.3332,-6.4937,-6.5891,-6.5767,-6.6617,-6.7057,-6.698,-6.7359,-6.7532,-6.7532,-6.7911,-6.8083,-6.8083,-6.8083,-6.8083,-6.8083,-6.8083,-6.8162,-6.8241,-6.8551,-6.8781,-6.8892,-6.9302,-6.9376,-6.9376,-6.9376,-6.9376,-6.9376,-6.9376,-6.9376,-6.9379,0.0,0.0,0.0,0.0,0.0,0.0,0.0,0.7123,0.6978,0.6978,0.7263,0.7263,0.7123,0.6974,0.5808,0.2762,0.2326,0.1308,-0.0437,-0.0,-0.0437,-0.2187,-0.2333,-0.2333,-0.2333,-0.2333,-0.2333,-0.2333,-0.2333,-0.2333,-0.2333,-0.365,-0.4709,-0.5512,-0.8127,-0.9748,-1.0638,-1.1985,-1.2501,-1.2501,-1.2501,-1.2811,-1.312,-1.3428,-1.4045,-1.4814,-1.4968,-1.6186,-1.7854,-1.7854,-1.9962,-2.267,-2.267,-2.4877,-2.7924,-3.1051,-3.4084,0.0,0.0,0.0,0.0,0.0,0.0,0.0,0.0,0.0,-5.6343,-5.6905,-5.7197,-5.7487,-5.7965,-5.8185,-5.8905,-6.0393,-6.076,-6.1166,-6.1692,-6.2618,-6.2855,-6.1786,-6.1535,-6.1928,-6.3297,-6.4416,-6.4681,-6.402,-6.5995,-6.6872,-6.6194,-6.7422,-6.8083,-6.8083,-6.8083,-6.8083,-6.8083,-6.8083,-6.8083,-6.8083,-6.8083,-6.8083,-6.8083,-6.8083,-6.8162,-6.8319,-6.8628,-6.8892,-6.9153,-6.9302,-6.9376,-6.9376,-6.9376,-6.9376,-6.9376,-6.9376,-6.9376,-6.9449,0.0,0.0,0.0,0.0,0.0,0.0,0.0,0.0,0.4953,0.4953,0.5963,0.6108,0.5098,0.4942,0.3919,0.1598,0.2909,0.2618,-0.0437,0.1019,0.0728,-0.2187,-0.2333,-0.2333,-0.2333,-0.2333,-0.2333,-0.2333,-0.2333,-0.2333,-0.2334,-0.2507,-0.4322,-0.7081,-0.7629,-0.9413,-1.2165,-1.2494,-1.2501,-1.2501,-1.2501,-1.2811,-1.312,-1.312,-1.3744,-1.4515,-1.4814,-1.694,-1.951,-1.951,-2.1613,-2.4341,-2.4341,-2.5492,-2.7825,-3.2667,-3.6054,-3.9284,-4.4126,-4.6588,-4.8069,-4.9478,-5.1429,-5.3417,0.0,0.0,-5.8646,-5.9305,-5.9499,-5.9596,-5.998,-5.998,-6.0076,-6.0329,-6.1078,-6.166,-6.1757,-6.2618,-6.3681,-6.4959,-6.4503,-6.4132,-6.4315,-6.5767,-6.6686,-6.6608,-6.7453,-6.798,-6.7822,-6.797,-6.8083,-6.8083,-6.8083,-6.8083,-6.8083,-6.8083,-6.8083,-6.8083,-6.8083,-6.8083,-6.8083,-6.8083,-6.8083,-6.8162,-6.8551,-6.8967,-6.9376,-6.9376,-6.9376,-6.9376,-6.9376,-6.9376,-6.9376,-6.9376,-6.9376,-6.9522,0.0,0.0,0.0,0.0,0.0,0.0,0.0,0.0,0.0,0.3937,0.4371,0.4514,0.4083,0.2328,0.0582,-0.1018,0.0145,0.0145,-0.2186,-0.0291,-0.0,-0.2187,-0.2333,-0.2333,-0.2333,-0.2333,-0.2333,-0.2333,-0.2333,-0.2478,-0.2625,-0.457,-0.6411,-0.8145,-1.0072,-1.174,-1.2811,-1.2811,-1.2656,-1.2501,-1.2501,-1.2811,-1.312,-1.312,-1.4045,-1.5429,-1.588,-1.754,0.0,-2.0864,-2.267,-2.4784,-2.5639,-2.6632,-2.865,-3.4073,-3.6642,-3.9072,-4.4595,-4.7904,0.0,0.0,-5.3079,-5.4973,-5.611,-5.7474,-5.8762,-5.9358,-5.9586,-5.975,-6.0009,-6.0677,-6.152,0.0,-6.3386,-6.4195,-6.4594,-6.543,-6.6147,-6.6287,-6.6494,-6.6645,-6.6645,-6.7271,-6.7635,-6.7635,-6.7911,-6.8083,-6.8083,-6.8083,-6.8083,-6.8083,-6.8083,-6.8083,-6.8083,-6.8083,-6.8083,-6.8083,-6.8083,-6.8083,-6.8083,-6.8083,-6.8241,-6.8474,-6.8628,-6.8967,-6.9376,-6.9376,-6.9376,-6.9376,-6.9376,-6.9376,-6.9376,-6.9376,-6.9376,-6.9522,0.0,0.0,0.0,0.0,0.0,0.0,0.0,0.0,0.0,0.0,0.3209,0.3063,0.2771,0.0437,-0.1603,-0.2766,-0.1892,-0.1748,-0.277,-0.1166,-0.0583,-0.1604,-0.2187,-0.2478,-0.2478,-0.2624,-0.2624,-0.2624,-0.2624,-0.2771,-0.3063,-0.6058,-0.7769,-0.8745,-1.1631,-1.3006,-1.3274,-1.3274,-1.2965,-1.2656,-1.2811,-1.2811,-1.2965,-1.312,-1.4345,-1.6024,-1.6635,-1.8421,-2.0968,-2.2558,-2.4541,-2.6632,-2.7744,-2.895,-3.0713,-3.5984,-3.8952,-4.1494,-4.615,0.0,0.0,-5.2493,-5.44,-5.6319,-5.7169,-5.8213,-5.9144,-5.9649,-5.9949,-6.0147,-6.0411,-6.1249,-6.2317,-6.3866,-6.4934,-6.5851,-6.6609,-6.7488,-6.7845,-6.7127,-6.765,-6.8083,-6.8083,-6.8083,-6.8083,-6.8083,-6.8083,-6.8083,-6.8083,-6.8083,-6.8083,-6.8083,-6.8083,-6.8083,-6.8083,-6.8083,-6.8083,-6.8083,-6.8083,-6.8083,-6.8083,-6.8083,-6.8319,-6.8705,-6.8705,-6.8967,-6.9376,-6.9376,-6.9376,-6.9376,-6.9376,-6.9376,-6.9376,-6.9376,-6.9376,-6.9522,0.0,0.0,0.0,0.0,0.0,0.0,0.0,0.0,0.0,0.0,0.0,0.0,0.0,-0.0437,-0.1603,-0.2766,-0.2183,-0.1601,-0.131,-0.0873,-0.0437,-0.0146,-0.1895,-0.2917,-0.2917,-0.3209,-0.35,-0.35,-0.35,-0.35,-0.3502,-0.5373,-0.7085,-0.8745,-1.0503,-1.2179,-1.3737,-1.3737,-1.3428,-1.312,-1.3583,-1.3274,-1.2501,-1.2965,-1.4184,-1.5693,-1.6474,-2.0047,-2.4516,-2.5255,-2.7879,-3.0904,-3.1267,-3.257,-3.4504,-3.8728,-4.4186,-4.8868,-4.9797,0.0,-5.203,-5.3768,-5.5504,-5.7242,-5.8893,-5.9857,-6.0524,-6.1041,-6.1144,-6.1348,-6.1853,-6.1953,-6.2418,-6.3673,-6.4753,-6.5613,-6.6593,-6.7488,-6.8083,-6.8083,-6.8083,-6.8083,0.0,-6.8083,-6.8083,-6.8083,-6.8083,-6.8083,-6.8083,-6.8083,-6.8083,-6.8083,-6.8083,-6.8083,-6.8083,-6.8083,-6.8083,-6.8083,-6.8083,-6.8083,-6.8083,-6.8083,-6.8319,-6.8705,-6.8705,-6.8967,-6.9376,-6.9376,-6.9376,-6.9376,-6.9376,-6.9376,-6.9376,-6.9376,-6.9376,-6.9522,0.0,0.0,0.0,0.0,0.0,0.0,0.0,0.0,0.0,0.0,0.0,0.0,0.0,0.0,0.0,0.0,-0.2183,-0.2183,-0.3057,-0.1746,-0.1456,-0.2333,-0.2917,-0.3354,-0.3354,-0.35,-0.35,-0.35,-0.35,-0.3646,-0.3937,-0.6857,-0.8585,-0.95,-1.2498,-1.3883,-1.4207,-1.4207,-1.3898,-1.3583,-1.359,-1.4191,-1.4944,-1.5097,-1.6913,-1.979,0.0,-2.3403,-2.5215,-2.67,-2.9121,-3.1543,-3.2698,-3.4469,-3.7151,-4.237,-4.6414,-4.9202,-4.959,0.0,-5.2648,-5.4525,-5.6164,-5.7812,-5.941,-6.0119,-6.0481,-6.0586,-6.0897,-6.1206,-6.141,-6.2252,-6.3068,-6.3546,-6.5081,-6.6339,-6.6711,-6.7488,-6.8083,-6.8083,-6.8083,0.0,0.0,0.0,0.0,-6.8083,-6.8083,-6.8083,-6.8083,-6.8083,-6.8083,-6.8083,-6.8083,-6.8083,-6.8083,-6.8083,-6.8083,-6.8083,-6.8083,-6.8083,-6.8083,-6.8083,-6.8319,-6.8705,-6.8705,-6.8967,-6.9376,-6.9376,-6.9376,-6.9376,-6.9376,-6.9376,-6.9376,-6.9376,-6.9376,-6.9522,0.0,0.0,0.0,0.0,0.0,0.0,0.0,0.0,0.0,0.0,0.0,0.0,0.0,0.0,0.0,0.0,0.0,-0.3782,-0.4073,-0.3492,-0.3201,-0.3496,-0.4226,-0.4517,-0.4517,-0.5096,-0.495,-0.4374,-0.4662,-0.4662,-0.4374,-0.7747,-0.9489,-0.9955,-1.342,-1.4814,-1.4669,-1.4669,-1.4661,-1.4806,-1.496,-1.5871,-1.7065,-1.7369,-1.9338,0.0,-2.4512,-2.6298,-2.7911,-2.9866,-3.2002,-3.3996,-3.5175,-3.7344,-4.0261,-4.4687,-4.7449,-4.9072,-4.959,-5.1419,-5.3335,-5.4859,-5.6622,-5.8386,-5.9529,-5.9955,-6.0061,-6.0167,-6.0512,-6.0824,-6.1,-6.1953,-6.2778,-6.3228,-6.4901,-6.6167,-6.6508,-6.7407,-6.8004,-6.8083,-6.8083,-6.8083,0.0,0.0,0.0,-6.8083,-6.8083,-6.8083,-6.8083,-6.8083,-6.8083,-6.8083,-6.8083,-6.8083,-6.8083,-6.8083,-6.8083,-6.8083,-6.8083,-6.8083,-6.8083,-6.8083,-6.8319,-6.8705,-6.8705,-6.8967,-6.9376,-6.9376,-6.9376,-6.9376,-6.9376,-6.9376,-6.9376,-6.9376,-6.9376,-6.9449,0.0,0.0,0.0,0.0,0.0,0.0,0.0,0.0,0.0,0.0,0.0,0.0,0.0,0.0,0.0,0.0,0.0,0.0,-0.4353,-0.5667,-0.567,-0.3776,-0.538,-0.6402,-0.6547,-0.7986,-0.7842,-0.597,-0.7123,-0.6688,-0.5101,-0.8345,-0.9944,-1.0105,-1.3573,-1.5122,-1.5113,-1.5113,-1.5871,-1.7084,-1.7398,-1.8138,-1.8874,-1.9629,-2.098,-2.2806,-2.512,-2.8694,-3.2638,-3.4501,-3.6286,-3.8027,-3.8583,-4.08,-4.3448,-4.5773,-4.7449,-4.8837,-4.9744,-5.1917,-5.3937,-5.4651,-5.6764,-5.8773,-5.9315,-5.9529,-5.9636,-5.988,-6.0016,-6.0197,0.0,0.0,-6.1582,-6.2778,-6.411,-6.5326,-6.61,-6.7127,-6.7879,0.0,0.0,0.0,0.0,0.0,0.0,-6.8083,0.0,-6.8083,-6.8083,-6.8083,-6.8083,-6.8083,-6.8083,-6.8083,-6.8083,-6.8083,-6.8083,-6.8083,-6.8083,-6.8083,-6.8083,-6.8083,-6.8319,-6.8705,-6.8705,-6.8967,-6.9376,-6.9376,-6.9376,-6.9376,-6.9376,-6.9376,-6.9376,-6.9376,-6.9376,-6.9449,0.0,0.0,0.0,0.0,0.0,0.0,0.0,0.0,0.0,0.0,0.0,0.0,0.0,0.0,0.0,0.0,0.0,0.0,-0.6253,-0.6696,-0.6696,-0.6112,-0.6551,-0.7272,-0.8131,-0.8559,-0.8848,-0.9275,-0.9562,-0.9419,-0.8992,-1.1295,-1.2473,-1.2487,-1.4797,-1.6492,-1.7692,-1.7692,-1.8582,-1.993,-2.008,-2.098,-2.2174,-2.2335,-2.4395,-2.7405,-2.9707,-3.2193,-3.4415,0.0,0.0,0.0,0.0,-4.2333,-4.3587,-4.6626,-4.8026,-4.8706,-4.9202,-5.0916,-5.2727,-5.3937,-5.5704,-5.7611,-5.8664,-5.9207,-5.9529,-5.9636,-5.988,-6.0092,0.0,0.0,0.0,-6.1853,-6.3829,0.0,-6.5559,-6.6962,0.0,-6.8083,0.0,-6.8083,-6.8083,-6.8083,0.0,0.0,-6.8083,-6.8083,-6.8083,-6.8083,-6.8083,-6.8083,-6.8083,-6.8083,-6.8083,-6.8083,-6.8083,-6.8083,-6.8083,-6.8083,-6.8083,-6.8083,-6.8319,-6.8705,-6.8705,-6.8967,-6.9376,-6.9376,-6.9376,-6.9376,-6.9376,-6.9376,-6.9376,-6.9376,-6.9376,-6.9376,0.0,0.0,0.0,0.0,0.0,0.0,0.0,0.0,0.0,0.0,0.0,0.0,0.0,0.0,0.0,0.0,0.0,0.0,0.0,-0.8,-0.829,-0.8719,-0.8719,-0.9291,-1.0437,-1.1005,-1.1142,-1.0862,-1.1429,-1.1279,-1.0425,-1.2325,-1.3652,-1.4391,-1.6446,-1.8148,-1.9639,-1.9639,-2.053,0.0,0.0,-2.3078,-2.4583,-2.5437,-2.6896,-2.9186,-3.233,-3.4722,0.0,0.0,0.0,-3.9962,-4.2333,-4.3448,-4.4573,-4.7473,0.0,-4.8706,-4.9202,-5.0916,-5.2876,-5.3697,-5.5704,-5.7611,-5.8445,-5.8991,-5.9315,-5.9315,-5.9422,0.0,-6.0197,0.0,0.0,0.0,0.0,0.0,-6.5081,-6.6795,-6.8039,0.0,-6.8083,0.0,-6.8083,-6.8083,-6.8083,0.0,-6.8083,-6.8083,-6.8083,-6.8083,-6.8083,-6.8083,-6.8083,-6.8083,-6.8083,-6.8083,-6.8083,-6.8083,-6.8083,-6.8083,-6.8083,-6.8083,-6.8319,-6.8705,0.0,-6.8967,-6.9376,-6.9376,-6.9376,-6.9376,-6.9376,-6.9376,-6.9376,-6.9376,-6.9376,-6.9376,0.0,0.0,0.0,0.0,0.0,0.0,0.0,0.0,0.0,0.0,0.0,0.0,0.0,0.0,0.0,0.0,0.0,0.0,0.0,0.0,-1.0023,-1.1025,-1.1168,-1.1743,-1.2888,-1.403,-1.3737,-1.2158,-1.3151,-1.2858,-1.1142,-1.2912,-1.4539,-1.5994,-1.7931,-1.9639,-2.113,-2.1429,-2.2484,-2.3831,-2.3831,-2.473,-2.6225,0.0,-2.8947,-2.9601,-3.3786,0.0,0.0,0.0,-3.955,-4.1084,-4.2473,-4.4001,-4.5685,-4.7894,-4.86,-4.8837,-4.959,-5.1669,-5.3604,-5.4057,-5.6194,-5.8225,-5.8555,-5.8882,-5.9099,-5.9099,0.0,-5.9315,-5.9986,-6.0512,-6.0897,-6.1481,0.0,-6.5057,-6.5171,-6.6711,-6.7879,-6.8083,-6.8083,-6.8083,-6.8083,-6.8083,-6.8083,-6.8083,-6.8083,-6.8083,-6.8083,-6.8083,-6.8083,-6.8083,-6.8083,-6.8083,-6.8083,-6.8083,-6.8083,-6.8083,-6.8083,-6.8083,-6.8083,-6.8083,-6.8319,-6.8705,-6.8705,0.0,-6.9376,-6.9376,-6.9376,-6.9376,-6.9376,-6.9376,-6.9376,-6.9376,-6.9376,-6.9376,0.0,0.0,0.0,0.0,0.0,0.0,0.0,0.0,0.0,0.0,-0.4808,-0.5822,0.0,0.0,0.0,0.0,0.0,0.0,0.0,0.0,0.0,-1.1025,-1.1886,-1.2888,-1.4173,-1.4457,-1.4742,-1.5461,-1.5603,-1.5461,-1.5177,-1.5867,-1.6352,-1.6655,-1.871,-2.0553,-2.2037,-2.34,-2.4891,-2.6385,-2.6385,-2.6531,-2.6983,-2.8532,0.0,0.0,0.0,0.0,0.0,0.0,-3.955,-4.1084,-4.2473,-4.4001,-4.5685,-4.7894,-4.86,-4.8967,-5.0664,-5.2262,-5.3724,-5.4915,-5.648,-5.7892,-5.8225,-5.8555,0.0,0.0,-5.9099,-5.9499,-6.0732,-6.0659,0.0,-6.3356,0.0,0.0,0.0,0.0,-6.8083,0.0,0.0,0.0,0.0,0.0,0.0,0.0,0.0,-6.8083,-6.8083,-6.8083,-6.8083,-6.8083,-6.8083,-6.8083,-6.8083,-6.8083,-6.8083,-6.8083,-6.8083,-6.8083,-6.8083,-6.8083,-6.8319,-6.8705,-6.8705,0.0,-6.9376,-6.9376,-6.9376,-6.9376,-6.9376,-6.9376,-6.9376,-6.9376,-6.9376,-6.9376,0.0,0.0,0.0,0.0,0.0,0.0,0.0,-0.4371,-0.4956,-0.5829,-0.6264,-0.6696,-0.7421,-0.7851,-0.843,0.0,0.0,0.0,0.0,0.0,0.0,0.0,0.0,0.0,-1.5319,-1.5319,0.0,0.0,0.0,-1.6178,-1.6188,0.0,-1.7663,-1.9413,-2.0489,-2.2347,-2.473,-2.5492,-2.6239,-2.6983,-2.6983,-2.7405,-2.8259,0.0,0.0,0.0,0.0,0.0,0.0,0.0,-4.0682,-4.2704,-4.2944,-4.4573,-4.6674,-4.8182,-4.86,-4.8837,-5.0181,-5.2015,-5.3631,-5.4204,-5.6107,-5.7781,-5.8003,0.0,0.0,0.0,-5.8991,-5.9499,-6.0805,0.0,0.0,0.0,0.0,0.0,0.0,0.0,0.0,0.0,0.0,0.0,0.0,0.0,0.0,0.0,0.0,-6.8083,-6.8083,-6.8083,-6.8083,-6.8083,-6.8083,-6.8083,-6.8083,-6.8083,-6.8083,-6.8083,-6.8083,-6.8083,-6.8083,-6.8241,-6.8397,-6.8551,-6.8816,0.0,-6.9227,-6.9376,-6.9376,-6.9376,-6.9376,-6.9376,-6.9376,-6.9376,-6.9376,-6.9376,0.0,0.0,0.0,0.0,0.0,0.0,0.0,-0.4665,-0.5247,-0.6555,-0.6845,-0.699,-0.7276,-0.7856,-0.8579,0.0,0.0,0.0,0.0,0.0,0.0,0.0,0.0,0.0,0.0,0.0,0.0,0.0,0.0,0.0,0.0,0.0,0.0,0.0,0.0,-2.414,-2.6546,-2.6838,-2.6983,0.0,0.0,-2.8114,0.0,0.0,0.0,0.0,0.0,0.0,0.0,0.0,-4.1603,-4.4184,-4.3551,-4.5186,-4.763,-4.8313,-4.86,-4.8837,-4.9719,-5.1669,-5.3631,-5.3844,-5.5876,-5.7669,-5.7781,-5.8114,0.0,0.0,-5.8882,-5.9499,-6.1113,0.0,0.0,0.0,0.0,0.0,0.0,0.0,0.0,0.0,0.0,0.0,0.0,0.0,0.0,0.0,0.0,0.0,-6.8083,-6.8083,-6.8083,-6.8083,-6.8083,-6.8083,-6.8083,-6.8083,-6.8083,-6.8083,-6.8083,-6.8083,-6.8083,-6.8241,-6.8397,-6.8474,-6.8816,0.0,0.0,-6.9302,-6.9376,-6.9376,-6.9376,-6.9376,-6.9376,-6.9376,-6.9376,-6.9376,0.0,0.0,0.0,0.0,0.0,0.0,0.0,-0.4665,-0.4956,-0.5825,-0.6555,-0.7276,-0.7996,-0.8724,-0.9157,0.0,0.0,0.0,0.0,0.0,0.0,0.0,0.0,0.0,0.0,0.0,0.0,0.0,0.0,0.0,0.0,0.0,0.0,0.0,0.0,0.0,0.0,-2.6399,0.0,0.0,0.0,0.0,0.0,0.0,0.0,0.0,0.0,0.0,0.0,0.0,0.0,-4.3791,-4.4295,-4.5873,-4.763,-4.7894,0.0,0.0,-5.041,-5.2139,-5.3724,-5.4915,-5.6222,-5.7416,-5.7781,0.0,0.0,-5.8584,-5.8694,-5.9499,-6.1759,-6.1589,-6.2157,0.0,0.0,-6.5855,0.0,0.0,0.0,0.0,0.0,0.0,0.0,0.0,0.0,0.0,0.0,0.0,-6.8083,-6.8083,-6.8083,-6.8083,-6.8083,-6.8083,-6.8083,-6.8083,-6.8083,-6.8083,-6.8083,-6.8083,-6.8083,-6.8083,-6.8319,-6.8705,-6.8705,0.0,0.0,-6.9376,-6.9376,-6.9376,-6.9376,-6.9376,-6.9376,-6.9376,-6.9376,-6.9376,0.0,0.0,0.0,0.0,0.0,0.0,-0.4665,-0.4665,-0.5101,-0.6406,-0.7417,-0.8425,-0.9729,-1.0737,-1.1025,-1.0311,0.0,0.0,0.0,0.0,0.0,0.0,0.0,0.0,0.0,0.0,0.0,-1.6178,0.0,0.0,0.0,0.0,0.0,0.0,0.0,0.0,0.0,0.0,0.0,0.0,0.0,0.0,0.0,0.0,0.0,0.0,0.0,0.0,0.0,0.0,0.0,0.0,-4.5125,-4.6061,0.0,0.0,-4.8158,-4.8682,-5.0537,-5.1767,-5.2998,-5.4915,-5.6136,-5.6851,-5.7416,0.0,-5.7892,-5.8335,-5.8555,-5.9499,-6.1891,-6.209,-6.2746,-6.5448,-6.5834,0.0,0.0,0.0,0.0,0.0,0.0,0.0,0.0,0.0,0.0,0.0,0.0,0.0,-6.8083,-6.8083,-6.8083,-6.8083,-6.8083,-6.8083,-6.8083,-6.8083,-6.8083,-6.8083,-6.8083,-6.8083,-6.8083,-6.8241,-6.8397,-6.8551,-6.8816,0.0,0.0,-6.9376,-6.9376,-6.9376,-6.9376,-6.9376,-6.9376,-6.9376,-6.9376,-6.9376,0.0,0.0,0.0,0.0,0.0,-0.4665,-0.4665,-0.4665,-0.5389,-0.7272,-0.8131,-0.9424,-1.1312,-1.2602,-1.2888,-1.2173,-1.2745,0.0,0.0,0.0,0.0,0.0,0.0,0.0,0.0,0.0,-1.6461,-1.6875,-1.7851,0.0,0.0,0.0,0.0,0.0,0.0,0.0,0.0,0.0,0.0,0.0,0.0,0.0,0.0,0.0,0.0,0.0,0.0,0.0,0.0,0.0,0.0,0.0,0.0,0.0,0.0,0.0,-4.7894,-4.842,-5.0155,-5.1294,-5.2508,-5.4323,-5.5673,-5.6509,0.0,0.0,-5.7781,-5.8003,-5.8225,-5.9147,-6.1659,-6.2157,-6.294,-6.5303,-6.5867,-6.6095,0.0,0.0,0.0,0.0,0.0,0.0,0.0,0.0,0.0,0.0,0.0,0.0,-6.8083,-6.8083,-6.8083,-6.8083,-6.8083,-6.8083,-6.8083,-6.8083,-6.8083,-6.8083,-6.8083,-6.8083,-6.8083,-6.8241,-6.8397,-6.8474,-6.8816,0.0,0.0,-6.9302,-6.9376,-6.9376,-6.9376,-6.9376,-6.9376,-6.9376,-6.9376,-6.9376,0.0,0.0,0.0,0.0,0.0,0.0,-0.4665,-0.4665,-0.5677,-0.8271,-0.8703,-0.9712,-1.2459,-1.3745,-1.4457,-1.4457,-1.4457,0.0,0.0,0.0,0.0,0.0,0.0,0.0,0.0,0.0,-1.6875,-1.8412,-1.8412,-1.9089,-2.0605,-2.2717,0.0,0.0,0.0,0.0,0.0,0.0,0.0,0.0,0.0,0.0,0.0,0.0,0.0,0.0,0.0,0.0,0.0,0.0,0.0,0.0,0.0,-4.5934,-4.615,0.0,-4.7762,-4.8289,-4.9332,-5.0816,-5.2262,-5.3268,-5.4942,-5.6394,0.0,0.0,-5.7416,-5.7781,-5.7781,-5.8605,-6.1325,-6.1828,-6.2617,-6.5,-6.5603,0.0,0.0,0.0,0.0,0.0,0.0,0.0,0.0,0.0,0.0,0.0,0.0,0.0,-6.8083,-6.8083,-6.8083,-6.8083,-6.8083,-6.8083,-6.8083,-6.8083,-6.8083,-6.8083,-6.8083,-6.8083,-6.8083,-6.8083,-6.8319,0.0,0.0,0.0,0.0,-6.9376,-6.9376,-6.9376,-6.9376,-6.9376,-6.9376,-6.9376,-6.9376,-6.9449,0.0,0.0,0.0,0.0,0.0,0.0,0.0,-0.7123,-0.842,-1.0,-1.1005,-1.2015,-1.3745,-1.5035,-1.5603,-1.5603,-1.5603,0.0,0.0,0.0,0.0,0.0,0.0,0.0,0.0,0.0,-1.7991,-1.8412,-2.0479,-2.1721,-2.2134,-2.4288,-2.5299,-2.5328,0.0,0.0,0.0,0.0,0.0,0.0,0.0,0.0,0.0,0.0,0.0,0.0,0.0,0.0,0.0,0.0,0.0,0.0,0.0,0.0,0.0,-4.8491,-4.8787,0.0,-5.1294,-5.2041,-5.2658,-5.4942,-5.5584,-5.5961,-5.6851,0.0,-5.7416,-5.7781,-5.8225,-5.9362,-6.1457,-6.2256,-6.326,-6.5123,-6.5514,0.0,0.0,0.0,0.0,0.0,0.0,0.0,0.0,0.0,0.0,0.0,0.0,0.0,-6.8083,-6.8083,-6.8083,-6.8083,-6.8083,-6.8083,-6.8083,-6.8083,-6.8083,-6.8083,-6.8083,-6.8083,-6.8083,-6.8241,-6.8474,0.0,0.0,0.0,0.0,-6.9376,-6.9376,-6.9376,-6.9376,-6.9376,-6.9376,-6.9376,-6.9376,-6.9449,0.0,0.0,0.0,0.0,0.0,0.0,0.0,-0.8714,-0.9862,-1.1442,-1.2302,-1.3302,-1.5026,-1.5753,-1.6178,-1.6178,-1.6178,0.0,0.0,0.0,0.0,0.0,0.0,0.0,-1.7017,-1.7991,-1.896,-2.0063,-2.1859,-2.3092,-2.3665,-2.5279,-2.6018,-2.6047,-2.6705,-2.7274,0.0,0.0,0.0,0.0,0.0,0.0,-3.7173,0.0,0.0,0.0,0.0,0.0,0.0,0.0,0.0,0.0,0.0,0.0,0.0,0.0,-5.1016,-5.1268,0.0,-5.278,-5.3025,-5.5468,-5.5961,0.0,0.0,0.0,-5.7303,-5.7557,-5.8305,-5.9362,-6.1051,-6.2256,-6.3388,-6.4852,-6.5336,0.0,0.0,0.0,0.0,0.0,0.0,0.0,0.0,0.0,0.0,0.0,0.0,0.0,-6.8083,-6.8083,-6.8083,-6.8083,-6.8083,-6.8083,-6.8083,-6.8083,-6.8083,-6.8083,-6.8083,-6.8083,-6.8083,-6.8319,-6.8474,0.0,0.0,0.0,0.0,-6.9376,-6.9376,-6.9376,-6.9376,-6.9376,-6.9376,-6.9376,-6.9376,-6.9449,0.0,0.0,0.0,0.0,0.0,0.0,0.0,-0.9435,-1.0293,-1.2588,-1.2873,-1.3737,-1.5895,-1.6178,-1.6178,-1.6178,0.0,0.0,0.0,0.0,0.0,0.0,0.0,0.0,-1.8412,-1.8541,-2.0063,-2.2819,-2.2956,-2.3652,-2.5066,-2.571,-2.6018,-2.6047,-2.6835,-2.797,-2.952,-3.135,-3.3031,-3.4296,-3.4827,-3.6689,0.0,0.0,0.0,0.0,0.0,0.0,0.0,0.0,0.0,0.0,0.0,0.0,0.0,0.0,0.0,0.0,0.0,-5.3268,-5.351,0.0,0.0,0.0,0.0,0.0,0.0,-5.7303,-5.8085,-5.9117,-6.0328,-6.1759,-6.3196,-6.4485,-6.5066,0.0,0.0,0.0,0.0,0.0,0.0,0.0,0.0,0.0,0.0,0.0,0.0,0.0,-6.8083,-6.8083,-6.8083,-6.8083,-6.8083,-6.8083,-6.8083,-6.8083,-6.8083,-6.8083,-6.8083,-6.8083,-6.8083,-6.8319,-6.8551,0.0,0.0,0.0,0.0,-6.9376,-6.9376,-6.9376,-6.9376,-6.9376,-6.9376,-6.9376,-6.9449,-6.9522,0.0,0.0,0.0,0.0,0.0,0.0,0.0,0.0,0.0,0.0,-1.4324,-1.4759,-1.5612,-1.6037,-1.6178,0.0,0.0,0.0,0.0,0.0,0.0,0.0,0.0,0.0,-1.8412,-2.0617,-2.2134,-2.2819,-2.3938,-2.4781,-2.5066,-2.571,-2.6158,-2.6593,-2.8364,-3.0075,-3.1878,-3.3411,-3.4396,-3.4827,-3.6364,-3.7822,0.0,0.0,0.0,0.0,-4.3482,-4.4521,0.0,0.0,0.0,0.0,0.0,0.0,0.0,0.0,-5.4734,-5.5233,-5.5556,0.0,-5.5116,-5.5933,-5.6308,-5.6509,0.0,0.0,0.0,0.0,0.0,0.0,0.0,-6.199,-6.3452,-6.4485,0.0,0.0,0.0,0.0,0.0,0.0,0.0,0.0,0.0,0.0,0.0,0.0,0.0,-6.8083,-6.8083,-6.8083,-6.8083,-6.8083,-6.8083,-6.8083,-6.8083,-6.8083,-6.8083,-6.8083,-6.8083,-6.8083,-6.8083,-6.8474,-6.8628,0.0,0.0,0.0,-6.9376,-6.9376,-6.9376,-6.9376,-6.9376,-6.9376,-6.9376,-6.9376,-6.956,-6.9849,0.0,0.0,0.0,0.0,0.0,0.0,0.0,0.0,0.0,0.0,0.0,-1.5044,-1.5603,-1.5753,0.0,0.0,0.0,0.0,0.0,0.0,0.0,0.0,0.0,-1.9367,-1.9367,-2.1571,-2.3092,-2.3802,-2.4631,-2.5052,-2.5066,-2.5849,-2.6688,-2.7679,-3.0713,-3.2717,-3.3688,-3.5374,-3.6073,-3.6209,-3.8109,0.0,0.0,0.0,0.0,0.0,-4.489,-4.5403,0.0,-4.661,-4.7027,-4.7744,0.0,0.0,0.0,0.0,-5.6049,-5.6394,-5.6737,-5.6394,-5.6077,-5.6623,-5.6851,-5.6851,-5.7191,0.0,0.0,0.0,0.0,0.0,0.0,0.0,0.0,0.0,0.0,0.0,0.0,0.0,0.0,0.0,0.0,0.0,0.0,0.0,0.0,0.0,0.0,-6.8083,-6.8083,-6.8083,-6.8083,-6.8083,-6.8083,-6.8083,-6.8083,-6.8083,-6.8083,-6.8083,-6.8083,-6.8162,-6.8241,-6.8551,-6.8781,0.0,0.0,0.0,-6.9376,-6.9376,-6.9376,-6.9376,-6.9376,-6.9376,-6.9376,-6.9376,-6.9522,-6.9777,0.0,0.0,0.0,0.0,0.0,0.0,0.0,0.0,0.0,0.0,0.0,0.0,0.0,0.0,0.0,0.0,0.0,0.0,0.0,0.0,0.0,0.0,-1.9495,-2.0882,-2.0882,-2.2408,-2.3802,-2.5052,-2.5187,-2.5216,-2.5275,-2.6403,-2.7972,-3.0001,-3.3395,-3.51,-3.5374,-3.7059,-3.775,-3.8129,-3.9561,0.0,0.0,0.0,0.0,0.0,0.0,0.0,0.0,-4.7652,-4.8433,-4.9546,-5.2653,0.0,0.0,0.0,0.0,0.0,-5.7303,-5.6964,-5.6737,-5.7191,-5.7303,-5.7303,-5.7303,0.0,0.0,0.0,0.0,0.0,0.0,0.0,0.0,0.0,0.0,0.0,0.0,0.0,0.0,0.0,0.0,0.0,0.0,0.0,0.0,0.0,0.0,-6.8083,-6.8083,-6.8083,-6.8083,-6.8083,-6.8083,-6.8083,-6.8083,-6.8083,-6.8083,-6.8083,-6.8083,-6.8162,-6.8397,-6.8628,-6.8892,-6.9078,0.0,0.0,-6.9376,-6.9376,-6.9376,-6.9376,-6.9376,-6.9376,-6.9376,-6.9376,-6.9449,-6.9595,0.0,0.0,0.0,0.0,0.0,0.0,0.0,0.0,0.0,0.0,0.0,0.0,0.0,0.0,0.0,0.0,0.0,0.0,0.0,0.0,0.0,-2.0051,-2.1571,-2.2408,-2.2408,-2.3938,-2.4916,-2.5052,-2.5322,-2.5606,-2.6025,-2.7995,-3.0806,-3.4482,-3.5335,-3.6499,-3.775,-3.8037,-3.8814,-3.9823,-4.0062,0.0,0.0,0.0,0.0,0.0,0.0,0.0,0.0,-4.7652,-4.8146,-4.8875,-5.2515,0.0,0.0,0.0,0.0,0.0,-5.7303,-5.7416,-5.7557,-5.7303,-5.7303,-5.7303,-5.7303,-5.7303,0.0,0.0,0.0,0.0,0.0,0.0,0.0,0.0,0.0,0.0,0.0,0.0,0.0,0.0,0.0,0.0,0.0,0.0,0.0,0.0,0.0,-6.8083,-6.8083,-6.8083,-6.8083,-6.8083,-6.8083,-6.8083,-6.8083,-6.8083,-6.8083,-6.8083,-6.8083,-6.8162,-6.8397,-6.8628,-6.8892,-6.9078,0.0,-6.9376,-6.9376,-6.9376,-6.9376,-6.9376,-6.9376,-6.9376,-6.9376,-6.9376,-6.9595,-6.992,0.0,0.0,0.0,0.0,0.0,0.0,0.0,0.0,0.0,0.0,0.0,0.0,0.0,0.0,0.0,0.0,0.0,0.0,0.0,0.0,-2.2545,-2.1846,-2.3243,-2.3652,-2.2819,-2.436,-2.5052,-2.5052,-2.5635,-2.6345,-2.7421,-3.0767,-3.3545,-3.5665,-3.6654,-3.7482,-3.8325,-3.8946,-3.9692,-4.0322,0.0,0.0,0.0,0.0,0.0,0.0,0.0,0.0,0.0,0.0,-4.9778,-5.1007,-5.3723,0.0,0.0,0.0,0.0,0.0,-5.7303,-5.7416,-5.7528,-5.7557,-5.764,-5.7751,-5.7751,-5.7751,-5.7751,0.0,0.0,0.0,0.0,0.0,0.0,0.0,0.0,0.0,0.0,0.0,0.0,0.0,0.0,0.0,0.0,0.0,0.0,0.0,0.0,0.0,-6.8083,-6.8083,-6.8083,-6.8083,-6.8083,-6.8083,-6.8083,-6.8083,-6.8083,-6.8083,-6.8083,-6.8241,-6.8551,-6.8628,-6.8892,-6.9227,0.0,-6.9376,-6.9376,-6.9376,-6.9376,-6.9376,-6.9376,-6.9376,-6.9376,-6.9376,-6.974,-7.0272,0.0,0.0,0.0,0.0,0.0,0.0,0.0,0.0,0.0,0.0,0.0,0.0,0.0,0.0,0.0,0.0,0.0,0.0,0.0,-2.2743,-2.3584,-2.3584,-2.471,-2.4682,-2.3475,-2.4596,-2.547,-2.5937,-2.6603,-2.7972,-3.0052,-3.3457,-3.5625,-3.6499,-3.7616,-3.8304,-3.8681,-3.9692,-4.0581,-4.1332,0.0,0.0,0.0,0.0,0.0,0.0,0.0,0.0,0.0,0.0,0.0,0.0,0.0,0.0,0.0,-5.7009,-5.7299,-5.7416,-5.7303,-5.7303,-5.7416,-5.7781,-5.7892,-5.7974,-5.8195,-5.8195,-5.8114,0.0,0.0,0.0,0.0,0.0,0.0,0.0,0.0,0.0,0.0,0.0,0.0,0.0,0.0,0.0,0.0,0.0,0.0,0.0,0.0,0.0,-6.8083,-6.8083,-6.8083,-6.8083,-6.8083,-6.8083,-6.8083,-6.8083,-6.8083,-6.8083,-6.8083,-6.8319,-6.8705,-6.8705,-6.8967,-6.9376,-6.9376,-6.9376,-6.9376,-6.9376,-6.9376,-6.9376,-6.9376,-6.9376,-6.9376,-6.9376,-6.9812,-7.0341,0.0,0.0,0.0,0.0,0.0,0.0,0.0,0.0,0.0,0.0,0.0,0.0,0.0,0.0,0.0,0.0,0.0,0.0,0.0,-2.4933,-2.5804,-2.5804,-2.5944,-2.5798,-2.5353,-2.5353,-2.645,-2.8519,-2.893,-3.1007,-3.4948,-3.5549,-3.6614,-3.8037,-3.8191,-3.8946,-4.0084,-4.0192,-4.1715,-4.4003,-4.4251,0.0,0.0,0.0,0.0,0.0,0.0,0.0,0.0,0.0,0.0,0.0,0.0,0.0,-5.6378,-5.6698,-5.7313,-5.7669,-5.7416,-5.7528,-5.7781,-5.7781,-5.7557,-5.7528,-5.8085,-5.8003,-5.7892,-5.8085,0.0,0.0,0.0,0.0,0.0,0.0,0.0,0.0,0.0,0.0,0.0,0.0,0.0,0.0,0.0,0.0,0.0,0.0,0.0,0.0,-6.8083,-6.8083,-6.8083,-6.8083,-6.8083,-6.8083,-6.8083,-6.8083,-6.8083,-6.8083,-6.8083,-6.8319,-6.8705,-6.8705,-6.8967,-6.9376,-6.9376,-6.9376,-6.9376,-6.9376,-6.9376,-6.9376,-6.9376,-6.9376,-6.9376,-6.9376,-6.9633,-6.9991,0.0,0.0,0.0,0.0,0.0,0.0,0.0,0.0,0.0,0.0,0.0,0.0,0.0,0.0,0.0,0.0,0.0,0.0,0.0,-2.5722,-2.6018,-2.6018,-2.6018,-2.6047,-2.6135,-2.6892,-2.7799,-2.8858,-3.152,-3.376,-3.5703,-3.6844,-3.7616,-3.8191,-3.9078,-3.9692,-4.0322,-4.197,-4.3357,-4.4374,-4.5159,-4.5793,0.0,0.0,0.0,0.0,0.0,0.0,0.0,0.0,-5.2459,-5.3453,-5.4785,-5.5672,-5.6397,-5.6937,-5.7474,-5.7974,-5.7669,-5.7892,-5.8003,-5.7892,-5.7669,0.0,0.0,-5.8445,-5.8335,-5.8195,-5.9039,0.0,0.0,0.0,0.0,0.0,0.0,0.0,0.0,0.0,0.0,0.0,0.0,0.0,0.0,0.0,0.0,0.0,0.0,0.0,-6.7959,-6.8004,-6.8083,-6.8083,-6.8083,-6.8083,-6.8083,-6.8083,-6.8083,-6.8083,-6.8241,-6.8397,-6.8705,-6.8892,-6.9118,-6.9376,-6.9376,-6.9376,-6.9376,-6.9376,-6.9376,-6.9376,-6.9376,-6.9376,-6.9376,-6.9376,-6.9777,-7.0272,0.0,0.0,0.0,0.0,0.0,0.0,0.0,0.0,0.0,0.0,0.0,0.0,0.0,0.0,0.0,0.0,0.0,0.0,-2.6183,-2.6325,-2.6325,-2.6325,-2.6736,-2.7124,-2.735,-2.9067,-3.0031,-3.0015,-3.397,-3.6202,-3.6654,-3.777,-3.8437,-3.8814,-3.9823,-4.071,-4.1588,-4.3482,-4.4497,-4.5013,-4.5914,-4.6301,0.0,0.0,0.0,0.0,0.0,0.0,0.0,0.0,-5.3232,-5.4185,-5.4864,-5.5663,-5.6314,-5.6858,-5.7508,-5.8069,-5.7944,-5.8085,-5.8225,-5.8003,0.0,0.0,-5.8555,-5.8555,-5.8555,-5.8555,-5.9392,-6.0732,-6.2485,0.0,0.0,0.0,0.0,0.0,0.0,0.0,0.0,0.0,0.0,0.0,0.0,0.0,0.0,0.0,0.0,0.0,0.0,-6.7959,-6.8004,-6.8083,-6.8083,-6.8083,-6.8083,-6.8083,-6.8083,-6.8083,-6.8319,-6.8474,-6.8705,-6.8892,-6.9153,-6.9376,-6.9376,-6.9376,-6.9376,-6.9376,-6.9376,-6.9376,-6.9376,-6.9376,-6.9376,-6.9376,-6.974,-7.0167,0.0,0.0,0.0,0.0,0.0,0.0,0.0,0.0,0.0,0.0,0.0,0.0,0.0,0.0,0.0,0.0,0.0,0.0,-2.6983,-2.6983,-2.6998,-2.6983,-2.8403,-2.925,-2.925,-3.2211,-3.3466,-3.2699,-3.6344,-3.8191,-3.8191,-3.8191,-3.8946,-4.0192,-4.0192,-4.1715,-4.4251,-4.4251,-4.5159,-4.6301,-4.6301,-4.6301,-4.6301,0.0,0.0,0.0,0.0,0.0,0.0,0.0,-5.4097,-5.4406,-5.4671,-5.5453,-5.6316,-5.6631,-5.7179,-5.7724,-5.8128,-5.8195,-5.8195,0.0,0.0,0.0,-5.8664,-5.8445,-5.8305,-5.8991,-6.0061,-6.1277,-6.281,0.0,0.0,0.0,0.0,0.0,0.0,0.0,0.0,0.0,0.0,0.0,0.0,0.0,0.0,0.0,0.0,0.0,0.0,-6.7799,-6.7879,-6.8083,-6.8083,-6.8083,-6.8083,-6.8083,-6.8083,-6.8083,-6.8319,-6.8474,-6.8705,-6.8705,-6.8967,-6.9376,-6.9376,-6.9376,-6.9376,-6.9376,-6.9376,-6.9376,-6.9376,-6.9376,-6.9376,-6.9376,-6.9376,-6.9449,0.0,0.0,0.0,0.0,0.0,0.0,0.0,0.0,0.0,0.0,0.0,0.0,0.0,0.0,0.0,0.0,0.0,0.0,-2.6983,-2.6983,-2.7405,-2.8547,-2.8963,-2.9663,-3.0801,-3.3309,-3.4964,-3.5802,-3.7348,-3.8191,-3.8191,-3.9188,-3.9823,-4.0322,-4.2224,-4.3482,-4.4374,-4.5281,-4.5914,-4.6301,-4.6301,-4.6301,-4.6301,0.0,0.0,0.0,0.0,0.0,0.0,0.0,0.0,0.0,-5.4875,-5.5658,-5.6196,-5.6302,-5.7139,-5.7958,-5.7813,-5.8416,0.0,-5.8305,0.0,0.0,0.0,-5.8445,0.0,0.0,-6.0774,-6.179,-6.2907,0.0,0.0,0.0,0.0,0.0,0.0,0.0,0.0,0.0,0.0,0.0,0.0,0.0,0.0,0.0,0.0,0.0,0.0,-6.7719,-6.7879,-6.8083,-6.8083,-6.8083,-6.8083,-6.8083,-6.8083,-6.8083,-6.8162,-6.8319,-6.8474,-6.8816,-6.9078,-6.9227,-6.9302,-6.9376,-6.9376,-6.9376,-6.9376,-6.9376,-6.9376,-6.9376,-6.9376,-6.9376,-6.9595,-6.9705,0.0,0.0,0.0,0.0,0.0,0.0,0.0,0.0,0.0,0.0,-1.9019,-2.0544,0.0,0.0,0.0,0.0,0.0,0.0,0.0,-2.755,-2.8259,-2.9107,-3.0376,-3.1789,-3.3188,-3.4846,-3.6228,-3.7079,-3.777,-3.8191,-3.8191,-3.9561,-4.0452,-4.1075,-4.3357,-4.4645,-4.5159,-4.5939,-4.6301,-4.6301,-4.6301,-4.6301,-4.6301,0.0,0.0,0.0,0.0,0.0,0.0,0.0,0.0,0.0,-5.5078,-5.5478,-5.5837,-5.6312,-5.7122,-5.7888,-5.8158,-5.8941,0.0,-5.9099,-5.9207,-5.9345,-5.9099,0.0,0.0,0.0,0.0,0.0,0.0,0.0,0.0,0.0,0.0,0.0,0.0,0.0,0.0,0.0,0.0,0.0,0.0,0.0,0.0,0.0,0.0,0.0,0.0,-6.751,-6.7719,-6.7959,-6.7959,-6.8004,-6.8083,-6.8083,-6.8083,-6.8083,-6.8083,-6.8162,-6.8319,-6.8663,-6.8892,-6.9078,-6.9302,-6.9376,-6.9376,-6.9376,-6.9376,-6.9376,-6.9376,-6.9376,-6.9376,-6.9376,-6.9522,-6.9633,0.0,0.0,0.0,0.0,0.0,0.0,0.0,0.0,0.0,0.0,-2.0847,-2.1807,0.0,0.0,0.0,0.0,0.0,0.0,0.0,-2.8403,-2.9234,-2.9377,-3.2351,-3.4609,-3.6016,-3.6674,-3.7079,-3.7079,-3.777,-3.8191,-3.8191,-3.9692,-4.1075,-4.2201,-4.3731,-4.5159,-4.6301,-4.6301,-4.6301,-4.6301,-4.6301,-4.6301,-4.6301,-4.6301,0.0,0.0,0.0,0.0,0.0,0.0,0.0,0.0,-5.5108,-5.5179,-5.54,-5.6203,-5.6937,-5.7704,-5.8577,0.0,0.0,-5.9986,-6.0016,0.0,-5.9636,0.0,0.0,0.0,0.0,0.0,0.0,0.0,0.0,0.0,0.0,0.0,0.0,0.0,0.0,0.0,0.0,0.0,0.0,0.0,0.0,0.0,0.0,0.0,0.0,-6.718,-6.7428,-6.7799,-6.7799,-6.7879,-6.8083,-6.8083,-6.8083,-6.8083,-6.8083,-6.8083,-6.8083,-6.8319,-6.8663,-6.9078,-6.9302,-6.9376,-6.9376,-6.9376,-6.9376,-6.9376,-6.9376,-6.9376,-6.9376,-6.9376,-6.9376,-6.9376,0.0,0.0,0.0,0.0,0.0,0.0,0.0,0.0,0.0,0.0,0.0,0.0,0.0,0.0,0.0,0.0,0.0,0.0,0.0,-2.8403,-2.9806,-3.0943,-3.39,-3.5743,-3.6016,-3.6403,-3.6789,-3.7079,-3.777,-3.8191,-3.8325,-4.071,-4.1947,-4.2328,-4.4767,-4.6059,-4.6301,-4.6301,-4.6301,-4.6301,-4.6301,-4.6301,-4.6301,-4.6566,-4.756,0.0,0.0,0.0,0.0,0.0,0.0,0.0,-5.5108,-5.5179,-5.5209,-5.546,-5.6173,-5.6937,-5.7704,-5.868,0.0,0.0,-6.0016,0.0,0.0,0.0,0.0,0.0,0.0,0.0,0.0,0.0,0.0,0.0,0.0,0.0,0.0,0.0,0.0,0.0,0.0,0.0,0.0,0.0,0.0,0.0,0.0,0.0,-6.718,-6.718,-6.7428,-6.7799,-6.7799,-6.7879,-6.8083,-6.8083,-6.8083,0.0,-6.8083,-6.8083,-6.8083,-6.8319,-6.8663,-6.9078,-6.9302,-6.9376,-6.9376,-6.9376,-6.9376,-6.9376,-6.9376,-6.9376,-6.9376,-6.9376,-6.9376,-6.9305,0.0,0.0,0.0,0.0,0.0,0.0,0.0,0.0,0.0,0.0,0.0,0.0,0.0,0.0,0.0,0.0,0.0,0.0,0.0,0.0,-3.1367,-3.3623,-3.5177,-3.6016,-3.6016,-3.6403,-3.6654,-3.7079,-3.8262,-3.9057,-3.9188,-4.1203,-4.258,-4.3357,-4.5403,-4.6301,-4.6301,-4.6301,-4.6301,-4.6301,-4.6301,-4.6301,-4.6301,-4.6421,-4.786,-4.996,-5.0518,0.0,0.0,0.0,0.0,0.0,0.0,0.0,-5.5179,-5.5381,-5.5962,-5.6738,-5.7304,0.0,0.0,0.0,0.0,0.0,0.0,0.0,0.0,0.0,0.0,0.0,0.0,0.0,0.0,0.0,0.0,0.0,0.0,0.0,0.0,0.0,0.0,0.0,0.0,0.0,0.0,0.0,0.0,-6.6812,-6.7014,-6.7014,-6.718,-6.7475,-6.7557,-6.7719,-6.7925,-6.8004,-6.8083,-6.8083,-6.8083,-6.8083,-6.8083,-6.8319,-6.8551,-6.8892,-6.9153,-6.9302,-6.9376,-6.9376,-6.9376,-6.9376,-6.9376,-6.9376,-6.9376,-6.9376,-6.9165,-6.8779,0.0,0.0,0.0,0.0,0.0,0.0,0.0,0.0,0.0,0.0,0.0,0.0,0.0,0.0,0.0,0.0,0.0,0.0,0.0,0.0,0.0,-3.5879,-3.6016,-3.6016,-3.6016,-3.6268,-3.6789,-3.7461,-3.8882,-4.004,-4.0968,-4.2097,-4.3232,-4.4374,-4.5671,-4.6301,-4.6301,-4.6301,-4.6301,-4.6301,-4.6301,-4.6301,-4.6301,-4.6301,-4.7951,-5.038,-5.0713,-5.2509,-5.4845,-5.5078,0.0,0.0,0.0,0.0,-5.5179,-5.5481,-5.5973,-5.6526,-5.7151,0.0,-5.9624,0.0,0.0,0.0,0.0,0.0,0.0,0.0,0.0,0.0,0.0,0.0,0.0,0.0,0.0,0.0,0.0,0.0,0.0,0.0,0.0,0.0,0.0,0.0,0.0,0.0,0.0,-6.6812,-6.6812,-6.6812,-6.6896,-6.718,-6.7428,-6.7557,-6.7799,-6.8039,-6.8083,-6.8083,-6.8083,-6.8083,-6.8083,-6.8241,-6.8474,-6.8705,-6.8967,-6.9227,-6.9376,-6.9376,-6.9376,-6.9376,-6.9376,-6.9376,-6.9376,-6.9376,-6.8884,-6.8182,0.0,0.0,0.0,0.0,0.0,0.0,0.0,0.0,0.0,0.0,-2.2859,0.0,0.0,0.0,0.0,0.0,0.0,0.0,0.0,0.0,0.0,-3.5879,-3.6016,-3.6016,-3.6016,-3.6016,-3.6924,-3.884,-3.9103,-4.0773,-4.3755,-4.4003,-4.4127,-4.4374,-4.5671,-4.6301,-4.6301,-4.6301,-4.6301,-4.6301,-4.6301,-4.6301,-4.6301,-4.6686,-4.756,-4.8965,-5.0518,-5.2079,-5.3518,-5.4743,-5.5179,0.0,0.0,0.0,-5.5179,-5.5179,-5.5441,-5.5852,0.0,0.0,0.0,0.0,0.0,0.0,0.0,0.0,0.0,0.0,0.0,0.0,0.0,0.0,0.0,0.0,0.0,0.0,0.0,0.0,0.0,0.0,0.0,0.0,0.0,0.0,0.0,0.0,-6.6812,-6.6812,-6.6812,-6.6812,-6.6896,-6.718,-6.7428,-6.7557,-6.7799,-6.8039,-6.8083,-6.8083,-6.8083,-6.8083,-6.8083,-6.8083,-6.8241,-6.8474,-6.8892,-6.9078,-6.9153,-6.9302,-6.9376,-6.9376,-6.9376,-6.9376,-6.9376,-6.9376,-6.8884,-6.8112,0.0,0.0,0.0,0.0,0.0,0.0,0.0,0.0,0.0,0.0,0.0,-2.2859,0.0,0.0,0.0,0.0,0.0,0.0,0.0,0.0,0.0,-3.6016,-3.6016,-3.6016,-3.6016,-3.6809,-3.7842,-3.9103,-4.0644,-4.2454,-4.4374,-4.5013,-4.5403,-4.5403,-4.6059,-4.6301,-4.6301,-4.6301,-4.6301,-4.6301,-4.6301,-4.6301,-4.6326,-4.6421,-4.7324,-4.8647,-5.0184,-5.1646,-5.3174,-5.4539,-5.5108,-5.5179,-5.5179,0.0,0.0,0.0,-5.528,0.0,-5.6597,0.0,0.0,0.0,0.0,0.0,0.0,0.0,0.0,0.0,0.0,0.0,0.0,0.0,0.0,0.0,0.0,0.0,0.0,0.0,0.0,0.0,0.0,0.0,0.0,0.0,0.0,0.0,-6.6812,-6.6812,-6.6812,-6.6812,-6.6812,-6.7014,-6.7346,-6.7557,-6.7638,-6.7925,-6.8083,-6.8083,-6.8083,-6.8083,-6.8083,-6.8083,-6.8241,-6.8551,-6.8816,-6.9043,-6.9302,-6.9376,-6.9376,-6.9376,-6.9376,-6.9376,-6.934,-6.8884,-6.8217,-6.7481,0.0,0.0,0.0,0.0,0.0,0.0,0.0,0.0,0.0,0.0,0.0,0.0,0.0,0.0,0.0,0.0,0.0,0.0,0.0,0.0,0.0,-3.6016,-3.6016,-3.6016,-3.6016,-3.7441,-3.875,-3.9606,-4.2074,-4.3879,-4.489,-4.5793,-4.6301,-4.6301,-4.6301,-4.6301,-4.6301,-4.6301,-4.6301,-4.6301,-4.6301,-4.6301,-4.6301,-4.6301,-4.6968,-4.8094,-4.9422,-5.0851,0.0,0.0,0.0,0.0,0.0,0.0,0.0,0.0,0.0,0.0,0.0,0.0,0.0,0.0,0.0,0.0,0.0,0.0,0.0,0.0,0.0,0.0,0.0,0.0,0.0,0.0,0.0,0.0,0.0,0.0,0.0,0.0,0.0,0.0,0.0,0.0,0.0,0.0,-6.6812,-6.6812,-6.6812,-6.6812,-6.6812,-6.6812,-6.7229,-6.751,-6.751,-6.7879,-6.8083,-6.8083,-6.8083,-6.8083,-6.8083,-6.8083,-6.8319,-6.8705,-6.8705,-6.8967,-6.9302,-6.9376,-6.9376,-6.9376,-6.9376,-6.927,-6.9024,-6.8428,-6.7657,-6.6848,0.0,0.0,0.0,0.0,0.0,0.0,0.0,0.0,0.0,0.0,0.0,0.0,-2.2859,-2.544,-2.7061,-2.72,-3.1063,0.0,0.0,0.0,0.0,-3.6016,-3.6016,0.0,-3.6016,-3.7709,-3.9387,-4.1052,-4.2832,-4.4497,-4.618,-4.6301,-4.6301,-4.6301,-4.6301,-4.6301,-4.6301,-4.6301,-4.6301,-4.6301,-4.6301,-4.6301,-4.6301,-4.6301,-4.6301,-4.6636,-4.8094,0.0,0.0,0.0,0.0,0.0,0.0,0.0,0.0,0.0,0.0,0.0,0.0,0.0,0.0,0.0,0.0,0.0,0.0,0.0,0.0,0.0,0.0,0.0,0.0,0.0,0.0,0.0,0.0,0.0,0.0,0.0,0.0,0.0,0.0,0.0,0.0,0.0,0.0,0.0,-6.6812,-6.6812,-6.6812,-6.6812,-6.6812,-6.6812,-6.7229,-6.751,-6.751,-6.7879,-6.8083,-6.8083,-6.8083,-6.8083,-6.8083,-6.8083,-6.8319,-6.8705,-6.8705,-6.8892,-6.9153,-6.9302,-6.9376,-6.9376,-6.9376,-6.8919,-6.8287,-6.8217,-6.7447,-6.6383,0.0,0.0,0.0,0.0,0.0,0.0,0.0,0.0,0.0,0.0,0.0,0.0,0.0,-2.5293,-2.7432,-2.8734,-3.2726,0.0,0.0,0.0,0.0,-3.6016,-3.6016,-3.6016,-3.6016,-3.8618,-4.043,-4.1181,-4.3755,-4.5428,-4.6301,-4.6301,-4.6301,-4.6301,-4.6301,-4.6301,-4.6301,-4.6301,-4.6301,-4.6301,-4.6301,-4.6301,-4.6301,-4.6301,0.0,0.0,0.0,0.0,0.0,0.0,0.0,0.0,0.0,0.0,0.0,0.0,0.0,0.0,0.0,0.0,0.0,0.0,0.0,0.0,0.0,0.0,0.0,0.0,0.0,0.0,0.0,0.0,0.0,0.0,0.0,0.0,0.0,0.0,0.0,0.0,0.0,0.0,0.0,0.0,0.0,0.0,0.0,-6.6812,-6.6812,-6.6812,-6.6812,-6.6812,-6.7229,-6.7638,-6.7879,-6.8004,-6.8083,-6.8083,-6.8083,-6.8083,-6.8083,-6.8083,-6.8319,-6.8705,-6.8705,-6.8967,-6.9302,-6.9376,-6.9376,-6.9376,-6.9376,-6.8919,-6.8147,-6.762,-6.6989,-6.6344,0.0,0.0,0.0,0.0,0.0,0.0,0.0,0.0,0.0,-2.231,0.0,0.0,0.0,0.0,-2.8622,-3.1461,-3.4439,-3.6016,-3.6016,-3.6016,-3.6016,-3.6016,-3.6016,-3.6287,-3.6674,-3.9106,-4.0896,-4.1693,-4.4229,-4.5764,-4.618,-4.6301,-4.6301,-4.6301,-4.6301,-4.6301,-4.6301,-4.6301,-4.6301,-4.6301,0.0,0.0,-4.6301,0.0,0.0,0.0,0.0,0.0,0.0,0.0,0.0,0.0,0.0,0.0,0.0,0.0,0.0,0.0,-5.5381,0.0,0.0,0.0,0.0,0.0,0.0,0.0,0.0,0.0,0.0,0.0,0.0,0.0,0.0,0.0,0.0,0.0,0.0,0.0,0.0,0.0,0.0,0.0,0.0,0.0,0.0,0.0,0.0,0.0,-6.6812,-6.6812,-6.6896,-6.7063,-6.7312,-6.7719,-6.8083,-6.8083,-6.8083,-6.8083,-6.8083,-6.8083,-6.8083,-6.8083,-6.8319,-6.8705,-6.8705,-6.8967,-6.9376,-6.9376,-6.9376,-6.934,-6.9095,-6.8498,-6.7725,-6.706,-6.6562,-6.6155,0.0,0.0,0.0,0.0,0.0,0.0,0.0,0.0,-2.1897,-2.231,0.0,0.0,0.0,0.0,0.0,-3.512,-3.5743,-3.6016,-3.6016,-3.6016,-3.6016,-3.6016,0.0,0.0,-3.8109,-3.9347,-4.086,-4.2753,-4.4281,-4.5296,-4.5817,-4.618,-4.6301,-4.6301,-4.6301,-4.6301,-4.6301,0.0,-4.6301,-4.6301,0.0,-4.6326,-4.6301,0.0,0.0,0.0,-4.6301,-4.7087,0.0,-4.8416,0.0,0.0,0.0,0.0,0.0,0.0,0.0,0.0,0.0,0.0,0.0,0.0,0.0,0.0,0.0,0.0,0.0,0.0,0.0,0.0,0.0,0.0,0.0,0.0,0.0,0.0,0.0,0.0,0.0,0.0,0.0,0.0,0.0,0.0,0.0,0.0,-6.6812,-6.6812,-6.6812,-6.6812,-6.698,-6.751,-6.751,-6.7719,-6.8083,-6.8083,-6.8083,-6.8083,-6.8083,-6.8083,-6.8083,-6.8083,-6.8319,-6.8705,-6.8705,-6.8932,-6.934,-6.9376,-6.9376,-6.927,-6.8498,-6.7725,-6.6883,-6.6562,-6.6119,-6.5867,0.0,0.0,0.0,0.0,0.0,0.0,-2.0804,-2.1358,-2.176,0.0,0.0,0.0,-2.5644,-2.9109,-3.2243,-3.4902,-3.547,-3.5743,-3.6016,-3.6016,-3.6016,-3.6016,-3.6016,-3.6674,-3.8109,-3.9671,-4.1197,-4.2753,-4.4401,-4.5426,-4.5817,-4.5939,-4.6059,-4.6301,-4.6301,-4.6301,-4.6301,-4.6301,0.0,-4.6301,-4.6301,-4.6446,0.0,0.0,0.0,0.0,0.0,-4.678,-4.6993,0.0,-4.8647,-4.9535,0.0,0.0,0.0,0.0,0.0,0.0,-5.5179,0.0,0.0,0.0,0.0,0.0,0.0,0.0,0.0,0.0,0.0,0.0,0.0,0.0,0.0,0.0,0.0,0.0,0.0,0.0,0.0,0.0,0.0,0.0,0.0,0.0,0.0,0.0,-6.6812,-6.6812,-6.6812,-6.698,-6.7263,-6.751,-6.7638,-6.7879,-6.8083,-6.8083,-6.8083,-6.8083,-6.8083,-6.8083,-6.8083,-6.8241,-6.8474,-6.8705,-6.8892,-6.8838,-6.8568,-6.9165,-6.906,-6.8533,-6.8287,-6.7374,-6.6251,-6.635,-6.6119,-6.5867,0.0,0.0,0.0,0.0,0.0,-2.0665,-2.0665,-2.122,-2.1672,0.0,0.0,0.0,-2.7772,-3.1148,-3.3502,-3.4646,-3.5196,-3.5606,-3.5743,-3.5879,-3.6016,-3.6016,-3.6016,-3.6944,-3.8882,-3.9736,-4.1279,-4.3404,-4.4328,-4.5085,-4.5574,-4.5696,-4.5939,-4.6301,-4.6301,-4.6301,-4.6301,0.0,0.0,0.0,-4.6446,0.0,0.0,-4.69,-4.69,0.0,0.0,0.0,-4.6421,-4.7087,-4.83,0.0,0.0,0.0,0.0,0.0,0.0,0.0,0.0,0.0,0.0,0.0,0.0,0.0,-5.5681,-5.7307,0.0,0.0,0.0,0.0,0.0,0.0,0.0,0.0,0.0,0.0,0.0,0.0,0.0,0.0,0.0,0.0,0.0,-6.6643,-6.6812,-6.6812,-6.6812,-6.6812,-6.6812,-6.7097,-6.7263,-6.7475,-6.7719,-6.7879,-6.8083,-6.8083,-6.8083,-6.8083,-6.8083,-6.8083,-6.8083,-6.8007,-6.8023,-6.8252,-6.8164,-6.8001,-6.776,-6.8217,-6.8112,-6.769,-6.7374,-6.6672,-6.5899,-6.6061,-6.6002,-6.5867,0.0,0.0,0.0,-2.0665,-2.0665,-2.0665,-2.0665,-2.0967,-2.1483,0.0,-2.4164,-2.6908,-3.0787,-3.3026,-3.437,-3.437,-3.5059,-3.5352,-3.547,-3.5743,-3.6016,-3.6016,-3.6016,-3.7193,-3.9932,-3.9519,-4.08,-4.4099,-4.3964,-4.433,-4.5208,-4.5574,-4.5939,-4.6301,-4.6301,0.0,0.0,0.0,0.0,-4.6301,-4.6686,-4.6806,0.0,0.0,-4.7112,0.0,-4.6925,-4.6661,-4.6421,-4.6301,-4.8184,0.0,0.0,0.0,0.0,0.0,-5.5179,0.0,0.0,0.0,0.0,0.0,0.0,0.0,-5.5979,-5.7496,-5.8934,0.0,0.0,0.0,0.0,0.0,0.0,0.0,0.0,0.0,0.0,0.0,0.0,0.0,0.0,0.0,-6.5561,-6.617,-6.6576,-6.6576,-6.6576,-6.6576,-6.6576,-6.6826,-6.7107,-6.7236,-6.7479,-6.7684,-6.7842,-6.7842,-6.7842,-6.7842,-6.7842,-6.7842,-6.7842,-6.7419,-6.726,-6.7452,-6.6942,-6.681,-6.6883,-6.6883,-6.6883,-6.6813,-6.6145,-6.5899,-6.5793,-6.5794,-6.5732,-6.5788,0.0,0.0,-2.0665,-2.0665,-2.0665,-2.0665,-2.0665,-2.1126,-2.1695,-2.2167,-2.5635,-2.8927,-3.1213,-3.2892,-3.4094,-3.437,-3.4508,-3.4921,-3.547,-3.5606,-3.5743,-3.6016,-3.6016,-3.6809,-3.8507,-3.8423,-3.9715,-4.2673,-4.2683,-4.3458,-4.4963,-4.5208,-4.5574,-4.5939,-4.618,-4.6301,0.0,0.0,0.0,-4.6301,-4.6686,0.0,-4.7231,-4.7468,-4.7586,-4.7468,-4.7468,-4.7349,-4.6993,-4.678,-4.7652,-4.9194,0.0,0.0,0.0,0.0,0.0,0.0,0.0,0.0,0.0,0.0,0.0,0.0,-5.628,-5.7371,-5.8542,0.0,0.0,0.0,0.0,0.0,0.0,0.0,0.0,0.0,0.0,0.0,0.0,0.0,0.0,0.0,-6.4816,-6.4952,-6.5019,-6.5019,-6.5019,-6.5019,-6.5019,-6.5345,-6.5585,-6.5665,-6.6058,-6.6324,-6.6324,-6.6324,-6.6324,-6.6324,-6.6324,-6.6324,-6.6324,-6.6566,-6.6647,-6.6721,-6.6878,-6.6601,-6.611,-6.611,-6.611,-6.6075,-6.5935,-6.5686,-6.5357,-6.5349,-6.5276,-6.5273,0.0,-2.0665,-2.0665,-2.0665,-2.0665,-2.0714,-2.0847,-2.1108,-2.1986,-2.3519,-2.7488,-3.0724,-3.2491,-3.3381,-3.3817,-3.4094,-3.4232,-3.4646,-3.5196,-3.5333,-3.5606,-3.6016,-3.6016,-3.6674,-3.8109,-3.8772,-4.0192,-4.2293,-4.2925,-4.3826,-4.484,-4.4963,-4.5331,-4.5817,-4.5939,-4.618,0.0,0.0,-4.6301,-4.6301,-4.6686,0.0,-4.7205,-4.756,-4.7703,-4.7703,-4.7703,-4.7442,-4.7205,-4.69,-4.8003,0.0,0.0,-5.2079,-5.3993,0.0,-5.5108,-5.5179,0.0,0.0,0.0,-5.5179,0.0,0.0,0.0,-5.7527,-5.8632,0.0,0.0,0.0,0.0,0.0,0.0,0.0,0.0,0.0,0.0,0.0,0.0,0.0,0.0,0.0,-6.4072,-6.4377,-6.4695,-6.4742,-6.4742,-6.4822,-6.4903,-6.5221,-6.5378,-6.5378,-6.5723,-6.5876,-6.5876,-6.5876,-6.5876,-6.5876,-6.5876,-6.5669,-6.529,-6.5283,-6.512,-6.4737,-6.4743,-6.4495,-6.4144,-6.4144,-6.4144,-6.4179,-6.4601,-6.4453,-6.4043,-6.4237,-6.4403,-6.4579,-2.075,0.0,-2.0738,-2.0738,-2.0786,-2.0895,-2.1112,-2.1185,-2.2224,-2.4994,-2.8885,-3.1807,-3.3242,-3.3659,-3.3817,-3.3817,-3.4094,-3.437,-3.4784,-3.5059,-3.547,-3.5879,-3.5879,-3.6403,-3.7729,-3.8772,-4.0192,-4.1888,-4.2925,-4.395,-4.4717,-4.4717,-4.5086,-4.5574,-4.5696,-4.5939,0.0,0.0,0.0,-4.6301,0.0,-4.69,-4.7205,-4.7586,-4.7703,-4.7703,-4.7821,-4.756,-4.7205,-4.7019,-4.8469,-5.035,-5.0323,-5.2216,0.0,0.0,0.0,0.0,0.0,0.0,0.0,0.0,0.0,-5.5551,0.0,0.0,0.0,0.0,0.0,0.0,0.0,0.0,0.0,0.0,0.0,0.0,0.0,0.0,0.0,0.0,0.0,0.0,0.0,-6.3835,-6.4254,-6.4461,-6.4461,-6.454,-6.4811,-6.4932,-6.5087,-6.5087,-6.5352,-6.5359,-6.5221,-6.5221,-6.5152,-6.5014,-6.5014,-6.4669,-6.4014,-6.3757,-6.3345,-6.2753,-6.2536,-6.2389,-6.2389,-6.2389,-6.2319,-6.2248,-6.3056,-6.3216,-6.3038,-6.3227,-6.3596,-6.4122,-2.1064,-2.1016,0.0,-2.1016,-2.1221,-2.1402,-2.1426,-2.1631,-2.2739,-2.5368,-2.8485,-3.0818,-3.1649,0.0,0.0,0.0,0.0,0.0,-3.437,0.0,-3.4784,-3.547,-3.5626,-3.5743,-3.6287,-3.6423,-3.7709,-4.0452,-4.0581,-4.1888,-4.4347,-4.4717,-4.484,-4.4963,-4.5574,0.0,0.0,0.0,-4.6301,0.0,-4.6301,-4.6541,0.0,-4.7468,-4.7703,-4.7703,-4.8055,-4.7938,-4.756,0.0,-4.7886,-4.9019,0.0,-5.1428,-5.2992,0.0,0.0,0.0,0.0,0.0,0.0,0.0,-5.5179,0.0,0.0,0.0,0.0,0.0,0.0,0.0,0.0,0.0,0.0,0.0,0.0,0.0,0.0,0.0,0.0,0.0,0.0,0.0,0.0,-6.2584,-6.273,-6.2965,-6.2965,-6.3042,-6.3239,-6.3391,-6.3577,-6.3577,-6.3767,-6.3531,-6.2875,-6.2875,-6.253,-6.1806,-6.1806,-6.1772,-6.1703,-6.2023,-6.2092,-6.2056,-6.229,-6.2389,-6.2389,-6.2389,-6.2003,-6.1511,-6.2248,-6.2852,-6.3315,-6.3038,-6.3535,-6.4339,-2.1354,-2.1305,0.0,0.0,-2.1402,-2.1535,-2.1679,-2.3508,-2.5312,-2.6866,-2.9774,-3.1965,0.0,0.0,0.0,0.0,0.0,-3.3955,0.0,0.0,-3.4759,-3.5401,-3.5467,0.0,-3.6111,-3.6793,-3.8242,-4.0192,-4.0991,-4.242,-4.4347,-4.447,-4.4594,-4.484,-4.5331,0.0,-4.5817,0.0,0.0,0.0,0.0,0.0,0.0,-4.7231,-4.7677,-4.8055,-4.8172,-4.8055,-4.8055,0.0,-4.916,0.0,0.0,0.0,0.0,0.0,0.0,0.0,0.0,0.0,0.0,0.0,0.0,0.0,-5.7652,0.0,-5.8902,0.0,0.0,0.0,0.0,0.0,0.0,0.0,0.0,0.0,0.0,0.0,0.0,0.0,0.0,0.0,0.0,0.0,0.0,0.0,-6.2923,-6.3,-6.3377,-6.3039,-6.2798,-6.2798,-6.2423,-6.2117,-6.1806,-6.1806,-6.1634,-6.1289,-6.1289,-6.1153,-6.0808,-6.1085,-6.1011,-6.0726,-6.0924,-6.1055,-6.1055,-6.1055,-6.0879,-6.0668,-6.17,-6.2238,-6.2391,-6.2489,-6.3238,-6.418,-2.1728,0.0,0.0,0.0,0.0,-2.1752,-2.1945,-2.4596,-2.6765,0.0,0.0,0.0,-3.2824,-3.3381,0.0,0.0,-3.3817,-3.3955,0.0,0.0,-3.4613,0.0,0.0,0.0,0.0,-3.7205,-3.8366,-3.967,-4.0991,-4.242,-4.3701,-4.4099,-4.447,-4.4717,0.0,-4.5331,-4.5696,0.0,0.0,-4.6301,-4.6301,-4.6326,-4.6541,-4.6993,-4.756,-4.8055,-4.8198,-4.8172,-4.8289,-4.8815,-4.9956,0.0,-5.1783,0.0,0.0,0.0,0.0,0.0,-5.5179,0.0,0.0,0.0,0.0,0.0,0.0,0.0,0.0,0.0,0.0,0.0,0.0,0.0,0.0,0.0,0.0,0.0,0.0,0.0,0.0,0.0,0.0,0.0,0.0,0.0,0.0,0.0,0.0,-6.2678,-6.3289,-6.2565,-6.2151,-6.2151,-6.1599,-6.122,-6.1013,-6.1013,-6.0875,-6.0668,-6.0738,-6.0532,-6.0082,-6.0354,-6.0206,-5.9748,-6.0043,-6.0107,-6.0107,-6.0352,-6.0423,-6.0557,-6.1588,-6.2075,-6.228,-6.2602,-6.3454,-6.4446,-2.2235,-2.2029,0.0,0.0,0.0,0.0,0.0,0.0,0.0,0.0,0.0,0.0,0.0,0.0,0.0,0.0,0.0,-3.3817,-3.3817,0.0,-3.45,0.0,0.0,-3.6176,0.0,0.0,0.0,-3.8109,-3.954,-4.0991,-4.242,-4.3701,-4.4347,-4.4347,-4.4717,-4.4963,-4.5331,-4.5696,-4.5939,-4.6301,-4.6301,-4.6421,-4.6806,0.0,-4.7442,-4.7821,-4.8055,0.0,0.0,-4.7821,-4.9388,0.0,0.0,0.0,0.0,0.0,0.0,0.0,0.0,0.0,0.0,-5.5179,0.0,0.0,0.0,0.0,-5.878,0.0,0.0,0.0,0.0,0.0,0.0,0.0,0.0,0.0,0.0,0.0,0.0,0.0,0.0,0.0,0.0,0.0,0.0,0.0,0.0,0.0,-6.2496,-6.1772,-6.1358,-6.1358,-6.1323,-6.0944,-6.022,-6.022,-5.984,-5.9081,-5.9253,-5.9218,-5.9047,-5.9586,-5.9718,-5.9621,-5.9978,-6.0107,-6.0142,-6.0949,-6.1265,-6.1336,-6.2073,-6.2845,-6.3541,-6.3786,-6.4541,-6.5555,0.0,0.0,0.0,0.0,0.0,0.0,0.0,-2.4153,0.0,0.0,0.0,0.0,0.0,0.0,-3.3817,0.0,0.0,-3.3817,-3.3817,-3.4183,0.0,0.0,0.0,-3.6169,0.0,0.0,0.0,0.0,-3.954,-4.0991,-4.2293,-4.3701,-4.4347,-4.4347,0.0,-4.4963,0.0,0.0,0.0,0.0,0.0,-4.6326,-4.6541,0.0,0.0,-4.7442,-4.7703,-4.7821,0.0,-4.893,-5.0154,-5.1402,-5.2216,-5.3547,-5.4803,-5.4976,-5.5108,0.0,0.0,0.0,-5.5179,-5.5179,0.0,0.0,0.0,0.0,0.0,0.0,0.0,0.0,0.0,0.0,0.0,0.0,0.0,0.0,0.0,0.0,0.0,0.0,0.0,0.0,0.0,0.0,0.0,0.0,0.0,0.0,0.0,-6.0978,-6.0565,-6.0565,-6.0047,-5.9668,-5.9426,-5.9564,-5.9493,-5.9183,-5.9386,-5.952,-5.9551,-5.9748,-5.9879,-5.9949,-6.0604,-6.0879,-6.0949,-6.1687,-6.2038,-6.2108,-6.3146,-6.3866,-6.4301,-6.4331,-6.4946,-6.5787,-2.2259,0.0,0.0,0.0,0.0,0.0,0.0,0.0,0.0,0.0,-2.952,0.0,-3.3103,0.0,-3.3817,0.0,-3.3817,-3.3872,-3.4018,-3.4257,0.0,-3.4967,-3.5784,0.0,0.0,0.0,0.0,0.0,0.0,-4.071,-4.1633,-4.3451,-4.4347,-4.4347,0.0,-4.484,-4.5331,0.0,-4.5939,0.0,0.0,-4.6301,0.0,0.0,-4.678,-4.7112,0.0,-4.7703,-4.7912,-4.893,-5.0266,-5.1593,-5.2537,-5.3756,-5.5006,-5.5179,-5.5179,-5.5179,-5.5179,-5.5179,0.0,-5.5179,-5.5179,0.0,-5.6017,0.0,0.0,0.0,0.0,0.0,0.0,0.0,0.0,0.0,0.0,0.0,0.0,-6.2537,0.0,0.0,0.0,0.0,0.0,0.0,0.0,0.0,0.0,0.0,0.0,0.0,-5.9771,-5.9771,-5.9288,-5.9012,-5.9081,-5.9251,-5.9319,-5.9386,-5.9586,-5.9718,-5.9748,-6.0159,-6.0364,-6.0499,-6.1336,-6.1687,-6.1757,-6.2494,-6.281,-6.2947,-6.4054,-6.4599,-6.4856,-6.5109,-6.5591,-6.6243,0.0,0.0,0.0,0.0,-2.2408,0.0,0.0,0.0,-2.5185,0.0,-2.8947,-3.0818,-3.2526,-3.3381,-3.3817,-3.3835,-3.3835,0.0,-3.4403,-3.444,0.0,0.0,-3.5784,-3.5914,-3.5508,0.0,0.0,0.0,0.0,0.0,-4.0192,-4.3051,-4.4347,-4.4347,-4.4347,0.0,-4.5331,-4.5331,-4.5696,-4.6301,-4.6301,-4.6301,-4.6301,-4.6301,-4.6566,-4.6806,-4.7468,-4.7677,-4.7703,-4.8055,-4.9729,-5.1565,-5.1674,-5.3308,-5.5078,-5.5179,-5.5179,-5.5179,-5.5179,-5.5179,-5.5179,-5.5179,-5.5179,0.0,0.0,0.0,-5.7371,0.0,0.0,0.0,0.0,0.0,0.0,0.0,0.0,0.0,0.0,0.0,0.0,0.0,0.0,0.0,0.0,0.0,0.0,0.0,0.0,0.0,0.0,0.0,-5.9116,-5.9116,-5.9116,-5.9287,-5.9423,-5.9423,-5.9525,-5.9725,-5.9853,-5.9853,-5.976,-6.0889,-6.127,-6.1107,-6.2042,-6.2459,-6.2494,-6.3302,-6.3653,-6.3791,-6.4796,-6.5212,-6.5344,-6.6021,-6.6548,-6.6786,-2.2259,-2.2259,-2.2259,0.0,-2.2992,-2.3574,0.0,0.0,0.0,0.0,-2.8053,-2.9472,-3.1508,-3.2945,-3.3927,-3.422,-3.4257,0.0,0.0,0.0,0.0,-3.4985,-3.5784,-3.5914,-3.5508,-3.6307,0.0,-3.6016,0.0,0.0,-4.0192,-4.3051,-4.4347,-4.4347,0.0,0.0,-4.5331,-4.5574,-4.5939,-4.6301,-4.6301,-4.6301,0.0,0.0,-4.6301,-4.6421,-4.69,-4.7112,-4.7324,-4.7703,-4.893,-5.0462,-5.1456,-5.2673,-5.4068,-5.4976,-5.5179,-5.5179,-5.5179,-5.5179,-5.5179,-5.5179,-5.5179,-5.528,0.0,0.0,0.0,0.0,0.0,0.0,0.0,0.0,0.0,0.0,0.0,0.0,0.0,0.0,0.0,-6.2923,0.0,0.0,0.0,0.0,0.0,0.0,0.0,0.0,0.0,0.0,0.0,-6.0912,-6.1086,-6.1155,-6.1223,-6.1394,-6.1462,-6.1529,-6.1695,-6.1726,-6.1695,-6.2003,-6.2108,-6.2077,-6.2951,-6.3267,-6.3337,-6.4109,-6.4526,-6.4796,-6.5074,-6.5539,-6.6021,-6.6207,-6.6548,-6.6786,-2.2259,0.0,0.0,-2.2259,0.0,0.0,-2.3277,0.0,0.0,-2.6182,-2.7186,0.0,-3.1304,-3.2773,-3.3816,-3.4642,-3.4678,0.0,-3.5265,0.0,0.0,-3.4963,-3.5398,-3.5534,-3.5215,-3.5976,0.0,-3.6944,0.0,0.0,-4.1119,-4.3302,-4.4347,-4.4347,0.0,-4.4963,0.0,-4.5817,-4.618,-4.6301,-4.6301,0.0,0.0,-4.6301,-4.6301,-4.6301,-4.6566,-4.6874,-4.7205,-4.756,-4.87,-5.0126,-5.1347,-5.243,-5.3623,-5.4845,-5.5179,-5.5179,-5.5179,-5.5179,-5.5179,-5.5179,-5.528,-5.5381,-5.5581,-5.6311,-5.6957,0.0,-5.8514,-5.9762,0.0,0.0,0.0,0.0,0.0,0.0,0.0,0.0,0.0,0.0,0.0,0.0,0.0,0.0,0.0,0.0,0.0,0.0,0.0,0.0,0.0,-6.1571,-6.1641,-6.1745,-6.2055,-6.2055,-6.2156,-6.229,-6.2322,-6.2389,-6.2389,-6.274,-6.2915,-6.2951,-6.3758,-6.4074,-6.4109,-6.453,-6.4911,-6.5278,-6.5539,-6.6021,-6.6548,-6.6548,-6.6608,-6.6786,0.0,0.0,0.0,0.0,0.0,0.0,0.0,-2.2707,0.0,-2.473,0.0,-2.8397,-3.0726,-3.2429,-3.3804,-3.4776,0.0,-3.5247,-3.5595,-3.4917,-3.4623,-3.4935,-3.492,-3.4921,-3.4921,-3.5606,-3.6674,0.0,0.0,-4.0991,-4.2293,-4.3701,-4.4347,0.0,0.0,0.0,0.0,-4.6059,-4.6301,-4.6301,-4.6301,-4.6301,-4.6301,-4.6301,-4.6301,-4.6301,-4.6301,-4.6636,-4.7205,-4.756,-4.8584,-4.9928,-5.1237,-5.2323,-5.3413,-5.4845,-5.5179,-5.5179,-5.5179,-5.5179,-5.5179,-5.5179,-5.5381,-5.5581,-5.5681,-5.6077,-5.6372,-5.647,-5.7995,-5.9411,0.0,0.0,0.0,0.0,0.0,0.0,0.0,0.0,0.0,0.0,0.0,0.0,0.0,0.0,0.0,0.0,0.0,0.0,0.0,0.0,0.0,-6.1953,-6.1812,-6.1953,-6.247,0.0,-6.2436,-6.2705,-6.2705,-6.2705,-6.2705,-6.3407,-6.3723,-6.3793,-6.4425,-6.4706,-6.4706,-6.4775,-6.5011,-6.5409,-6.6083,-6.6548,-6.6786,-6.6786,-6.6786,-6.6786,0.0,0.0,0.0,0.0,0.0,-2.2558,-2.2259,-2.3141,-2.3722,-2.329,-2.5686,-2.7777,-2.8572,-3.1638,-3.3925,-3.4444,-3.5066,0.0,0.0,0.0,0.0,-3.4956,-3.489,-3.5059,-3.5333,-3.5743,-3.6674,0.0,-3.954,-4.0991,-4.2293,-4.3701,0.0,0.0,0.0,0.0,-4.618,-4.6301,0.0,-4.6301,-4.6301,-4.6301,-4.6301,-4.6301,-4.6301,-4.6301,-4.6301,-4.6636,-4.7205,-4.7324,-4.7795,-4.8842,-5.1017,-5.1783,-5.2459,-5.4539,-5.5179,-5.5179,-5.5179,-5.5179,-5.5179,-5.5179,-5.5381,-5.5681,-5.588,-5.6176,-5.647,-5.6664,-5.7653,-5.8637,-5.9411,0.0,0.0,0.0,0.0,0.0,0.0,0.0,0.0,0.0,0.0,0.0,0.0,0.0,0.0,0.0,0.0,0.0,0.0,0.0,0.0,0.0,-6.4009,0.0,0.0,0.0,-6.4251,-6.432,-6.432,-6.432,-6.432,-6.446,-6.453,-6.453,-6.4671,-6.4706,-6.4706,-6.5011,-6.5474,-6.6146,-6.6548,-6.6727,-6.6786,-6.6786,-6.6786,-6.6786,0.0,0.0,0.0,0.0,0.0,0.0,0.0,-2.2694,0.0,-2.2707,-2.4864,-2.6981,-2.791,-3.1219,-3.3576,-3.4404,-3.5175,-3.554,-3.532,-3.4935,-3.4765,-3.4985,-3.4991,0.0,-3.547,-3.5879,-3.6674,-3.8109,-3.954,-4.0991,-4.2293,0.0,0.0,0.0,0.0,-4.5696,0.0,0.0,0.0,-4.6301,-4.6301,-4.6301,-4.6301,-4.6301,-4.6301,-4.6301,-4.6566,-4.6874,-4.7205,-4.7205,-4.7677,-4.8637,-5.0934,-5.1674,-5.2136,-5.4539,-5.5179,-5.5179,-5.5179,-5.5179,-5.5179,-5.5179,-5.5481,-5.588,-5.5979,-5.6274,-5.6664,-5.6761,-5.7933,-5.9323,-6.082,-6.179,0.0,0.0,0.0,0.0,0.0,0.0,0.0,0.0,0.0,0.0,0.0,0.0,0.0,0.0,0.0,0.0,0.0,0.0,0.0,0.0,0.0,0.0,0.0,0.0,0.0,-6.4706,-6.4706,-6.4706,-6.4706,-6.4706,-6.4706,-6.4706,-6.4706,-6.4775,-6.5011,-6.5539,-6.6021,-6.633,-6.6668,-6.6786,-6.6786,-6.6786,-6.6786,-6.6786,0.0,-2.2259,0.0,0.0,-2.2259,0.0,-2.2259,-2.2259,-2.2259,-2.2259,-2.4354,-2.6481,-2.77,-3.0827,-3.3102,-3.4133,-3.5048,-3.532,-3.4917,-3.4587,-3.4508,-3.4995,-3.4954,-3.5059,-3.5606,-3.5879,-3.6674,0.0,-3.954,-4.0795,0.0,0.0,0.0,0.0,0.0,0.0,0.0,0.0,-4.6301,-4.6301,-4.6301,-4.6225,-4.6125,-4.6125,-4.605,-4.6069,-4.6307,-4.6637,-4.6964,-4.6964,-4.7496,-4.8637,-5.0934,-5.1674,-5.2136,-5.4539,-5.5179,-5.5179,-5.5179,-5.5179,-5.5179,-5.5179,-5.5581,-5.5979,-5.5979,-5.6372,-5.6761,-5.6761,-5.8272,-6.0108,-6.179,-6.2302,0.0,0.0,0.0,0.0,0.0,0.0,0.0,0.0,0.0,0.0,0.0,0.0,0.0,0.0,0.0,-6.382,-6.418,-6.4037,-6.418,0.0,0.0,-6.4463,-6.4706,0.0,-6.4568,-6.4706,-6.4706,-6.4706,-6.4706,-6.4706,-6.4706,-6.4706,-6.4775,-6.5011,-6.5474,-6.6083,-6.633,-6.6427,-6.6668,-6.6786,-6.6786,-6.6786,-6.6786,-6.6786,0.0,0.0,0.0,0.0,0.0,0.0,-2.2259,-2.2259,-2.2259,-2.2259,-2.4539,-2.6489,-2.7437,-3.0534,-3.2999,-3.378,-3.4649,-3.4899,-3.4477,-3.4422,-3.4519,-3.4859,-3.494,-3.5196,-3.5879,-3.6016,-3.6674,0.0,-3.954,-4.0618,0.0,0.0,0.0,0.0,0.0,0.0,0.0,-4.6301,-4.6301,-4.6301,-4.6301,-4.6024,-4.5573,-4.5573,-4.5481,-4.5258,-4.5258,-4.5604,-4.615,-4.615,-4.708,-4.8637,-5.0934,-5.1674,-5.2136,-5.4539,-5.5179,-5.5179,-5.5179,-5.5179,-5.5179,-5.5179,-5.5581,-5.5979,-5.5979,-5.6372,-5.6761,-5.6761,-5.8272,-5.9935,-6.0903,-6.187,-6.2381,0.0,0.0,0.0,0.0,0.0,0.0,0.0,0.0,0.0,0.0,-6.36,0.0,0.0,-6.3927,-6.3999,-6.418,-6.4287,-6.4498,-6.4637,0.0,-6.4637,-6.4706,-6.4706,-6.4706,-6.4706,-6.4706,-6.4706,-6.4706,-6.4706,-6.4706,-6.4706,-6.5011,-6.5539,-6.6207,-6.6269,-6.6488,-6.6727,-6.6822,-6.6786,-6.6786,-6.6786,-6.6786,-6.6786,0.0,0.0,0.0,0.0,0.0,0.0,0.0,-2.2259,-2.2558,-2.3277,-2.4851,-2.66,-2.8263,-3.0778,-3.2636,-3.3356,-3.4215,-3.4477,-3.4073,-3.4055,-3.426,-3.4921,-3.4921,-3.5196,-3.6016,-3.6016,-3.6287,0.0,0.0,0.0,0.0,0.0,0.0,0.0,0.0,-4.5817,-4.6301,-4.6301,-4.6125,-4.5824,-4.5824,-4.5472,-4.497,-4.497,-4.5052,-4.5106,-4.5336,-4.5679,-4.5995,-4.6247,-4.6673,-4.7581,-4.9827,-5.055,-5.0974,-5.3325,-5.4281,-5.461,-5.461,-5.488,-5.5179,-5.5381,-5.5681,-5.6077,-5.6176,-5.6567,-5.6761,-5.6761,-5.8272,-5.9849,-6.082,-6.179,-6.2381,-6.2381,0.0,0.0,0.0,0.0,0.0,0.0,0.0,0.0,0.0,0.0,0.0,0.0,0.0,-6.382,-6.418,-6.4251,-6.4358,-6.4463,0.0,-6.4706,-6.4706,-6.4706,-6.4706,-6.4706,-6.4706,-6.4706,-6.4706,-6.4706,-6.4843,-6.5011,-6.5604,-6.6021,-6.6305,-6.6548,-6.6668,-6.6786,-6.6786,-6.6786,-6.6786,-6.6786,-6.6786,-6.6786,-2.2259,0.0,-2.2259,0.0,-2.2259,-2.2259,-2.2259,-2.2259,-2.2843,-2.4301,-2.5332,-2.6721,-2.9148,-3.0932,-3.2381,-3.3233,-3.3939,-3.411,-3.3835,-3.3817,-3.4094,-3.4921,-3.4921,0.0,-3.6016,-3.6016,-3.6152,-3.6674,-3.9014,0.0,0.0,0.0,0.0,0.0,-4.5817,-4.5939,-4.6301,-4.6125,-4.5849,-4.5472,-4.5296,-4.4895,-4.4392,-4.4392,-4.4522,-4.4738,-4.4965,-4.5304,-4.5615,-4.5839,-4.595,-4.6336,-4.8648,-4.9609,-5.0238,-5.2129,-5.3307,-5.3922,-5.3922,-5.4251,-5.474,-5.505,-5.5478,-5.5834,-5.6213,-5.6567,-5.6761,-5.6761,-5.8087,-5.9531,-6.0397,-6.135,-6.203,-6.2381,0.0,0.0,0.0,0.0,0.0,0.0,-6.3377,-6.36,-6.36,0.0,0.0,0.0,0.0,0.0,-6.418,-6.4251,0.0,0.0,0.0,0.0,-6.4706,-6.4706,-6.4706,-6.4706,-6.4706,-6.4706,-6.4706,-6.4775,-6.5078,-6.5539,-6.6083,-6.6366,-6.6488,-6.6668,-6.6786,-6.6786,-6.6786,-6.6786,-6.6786,-6.6786,-6.6786,-6.6903,-2.2259,-2.2259,-2.2259,-2.2259,-2.2259,-2.2259,-2.2259,-2.2259,-2.3141,-2.5465,-2.5758,-2.6779,-2.952,-3.0835,-3.214,-3.3678,-3.3817,-3.3817,-3.3817,-3.3817,-3.4094,0.0,0.0,-3.5196,-3.6016,-3.6016,-3.6674,-3.8109,0.0,0.0,-4.1489,0.0,-4.4669,-4.5817,-4.5817,-4.5939,-4.6276,-4.5723,-4.5497,-4.5447,-4.4869,-4.4292,-4.3815,-4.3815,-4.3827,-4.3925,-4.3925,-4.4229,-4.4748,-4.4748,-4.4748,-4.5148,-4.746,-4.8973,-5.0029,-5.1295,-5.2358,-5.3204,-5.3204,-5.3204,-5.3354,-5.4042,-5.4616,-5.5159,-5.5827,-5.6372,-5.6761,-5.6761,-5.759,-5.8455,-5.9411,-6.0365,-6.135,-6.2223,0.0,0.0,0.0,0.0,0.0,0.0,-6.3377,-6.36,-6.36,0.0,0.0,0.0,0.0,0.0,0.0,0.0,0.0,-6.4706,-6.4706,0.0,-6.4706,-6.4706,-6.4706,-6.4706,-6.4706,-6.4706,-6.4706,-6.5011,-6.5604,-6.6269,-6.6305,-6.6488,-6.6786,-6.6786,-6.6786,-6.6786,-6.6786,-6.6786,-6.6786,-6.6786,-6.6903,-6.7097,-2.2259,-2.2259,-2.2259,-2.2259,-2.2259,-2.2259,-2.2259,-2.2992,-2.4005,-2.5611,-2.6925,-2.866,-3.0835,-3.1418,-3.2123,0.0,-3.3817,-3.3817,0.0,-3.3817,-3.4094,-3.4508,-3.4784,-3.5196,-3.5606,-3.5879,-3.6674,-3.8109,0.0,0.0,0.0,-4.4695,-4.528,-4.618,-4.5805,-4.5629,-4.5723,-4.5146,-4.4669,-4.4317,-4.4141,-4.374,-4.3237,-4.3462,-4.3695,-4.3899,-4.4094,-4.4422,-4.4722,-4.4722,-4.4722,-4.4774,-4.5576,-4.6624,-4.7861,-4.9695,-5.0836,-5.1582,-5.2323,-5.2845,-5.3331,-5.3669,-5.402,-5.4587,-5.545,-5.623,-5.6761,-5.6761,-5.759,-5.8455,-5.9443,-6.0397,-6.135,-6.2223,-6.2381,0.0,0.0,0.0,0.0,0.0,-6.3452,-6.36,0.0,-6.36,0.0,0.0,0.0,0.0,0.0,0.0,0.0,0.0,-6.4637,0.0,-6.4706,-6.4706,-6.4706,-6.4706,-6.4706,-6.4843,-6.5078,-6.5445,-6.5832,-6.6269,-6.6548,-6.6668,-6.6786,-6.6786,-6.6786,-6.6786,-6.6786,-6.6786,-6.6786,-6.6786,-6.7061,-6.754,-2.2259,-2.2259,-2.2259,-2.2259,-2.2259,-2.2259,-2.2259,-2.3277,-2.4449,-2.5611,-2.7505,-2.9377,-3.1418,-3.1841,0.0,-3.3678,-3.3817,-3.3817,-3.3817,-3.3817,-3.4094,-3.4508,-3.4784,-3.5196,-3.5606,-3.6403,0.0,-3.8904,-4.0839,-4.2902,-4.5331,-4.5331,-4.5597,-4.5974,-4.5648,-4.5372,-4.5121,-4.4543,-4.4116,-4.379,-4.3589,-4.3288,-4.2986,-4.3295,-4.3653,-4.3899,-4.4203,-4.4531,-4.4722,-4.4722,-4.4722,-4.4722,-4.4722,-4.5127,-4.6164,-4.8396,-4.9577,-5.0417,-5.1512,-5.2127,-5.2612,-5.3074,-5.3421,-5.3888,-5.4939,-5.5773,-5.6361,-5.6361,-5.7119,-5.7933,-5.8908,-5.9849,-6.082,-6.1676,-6.2223,-6.2459,-6.2649,0.0,0.0,0.0,0.0,0.0,0.0,-6.36,-6.36,0.0,0.0,0.0,0.0,0.0,0.0,-6.4498,-6.4637,0.0,-6.4706,-6.4706,-6.4706,-6.4706,-6.4843,-6.5114,-6.5409,-6.5832,-6.6182,-6.6488,-6.6727,-6.6786,-6.6786,-6.6786,-6.6786,-6.6786,-6.6786,-6.6786,-6.6822,-6.6845,-6.7249,-6.7819,-2.2259,-2.2259,-2.2259,0.0,-2.2259,0.0,-2.2408,-2.3426,-2.4596,-2.5758,-2.765,-2.9536,-3.1418,-3.2263,-3.3103,-3.3678,0.0,0.0,0.0,-3.3817,-3.4094,-3.4784,-3.4921,-3.5196,-3.5879,-3.7327,-3.8904,-4.0322,-4.3051,-4.457,-4.5281,-4.5281,-4.5349,-4.5422,-4.5397,-4.507,-4.4543,-4.3991,-4.374,-4.3689,-4.3187,-4.2986,-4.2986,-4.3295,-4.3653,-4.3899,-4.4203,-4.4531,-4.4722,-4.4722,-4.4722,-4.4722,-4.4722,-4.4722,-4.5127,-4.7252,-4.8696,-4.9708,-5.0822,-5.1105,-5.1379,-5.2292,-5.2755,-5.3343,-5.4421,-5.5161,-5.5622,-5.5622,-5.6146,-5.6991,-5.7932,-5.8902,-5.9903,-6.082,-6.179,-6.2459,-6.2693,0.0,0.0,0.0,0.0,0.0,0.0,-6.36,-6.36,0.0,0.0,0.0,0.0,0.0,-6.4498,-6.4706,-6.4706,-6.4706,-6.4706,-6.4706,-6.4706,-6.4706,-6.5078,-6.5409,-6.5867,-6.6182,-6.6488,-6.6786,-6.6786,-6.6786,-6.6786,-6.6786,-6.6786,-6.6786,-6.6786,-6.6786,-6.6786,-6.6961,-6.7415,-6.8037,0.0,0.0,-2.2259,-2.2259,-2.2259,-2.2558,-2.3426,-2.4596,-2.5772,-2.6954,-2.9393,-3.1118,-3.1559,-3.2824,-3.3678,-3.3817,-3.3817,-3.3817,-3.3817,-3.3817,-3.3817,-3.4094,-3.4646,-3.4921,-3.5196,-3.7059,-3.9299,-4.1761,-4.3451,-4.4376,-4.4716,-4.4716,-4.4779,-4.4819,-4.4392,-4.4116,-4.3966,-4.3413,-4.3162,-4.3162,-4.3037,-4.2986,-4.3098,-4.3543,-4.3789,-4.401,-4.4422,-4.4613,-4.4722,-4.4722,-4.4722,-4.4722,-4.4722,-4.4722,-4.4938,-4.6374,-4.7587,-4.8596,-4.9708,-5.0632,-5.1353,-5.169,-5.2579,-5.3376,-5.3837,-5.4483,-5.4976,-5.4976,-5.5099,-5.5627,-5.7081,-5.8165,-5.9317,-6.072,-6.1951,-6.2693,-6.2923,-6.3076,0.0,0.0,-6.36,-6.36,-6.36,-6.36,-6.36,0.0,0.0,0.0,0.0,-6.4428,-6.4637,-6.4706,-6.4706,-6.4706,-6.4706,-6.4706,-6.4843,-6.5078,-6.5145,-6.5539,-6.6146,-6.6269,-6.6488,-6.6786,-6.6786,-6.6786,-6.6786,-6.6786,-6.6786,-6.6786,-6.6786,-6.6786,-6.6786,-6.6961,-6.7647,-6.8483,-2.2259,-2.2259,-2.2259,-2.2259,-2.2259,-2.2694,-2.3857,-2.5318,-2.6779,-2.7955,-3.0392,-3.2123,-3.2123,-3.3103,-3.3817,-3.3817,-3.3817,-3.3817,-3.3817,-3.3817,-3.3817,-3.4094,-3.4646,-3.5059,-3.5196,-3.7709,-4.0342,-4.2825,-4.3593,-4.3941,-4.4151,-4.4151,-4.4209,-4.4242,-4.394,-4.3664,-4.3413,-4.3112,-4.2986,-4.2986,-4.2986,-4.2986,-4.3098,-4.3679,-4.3899,-4.401,-4.4531,-4.4722,-4.4722,-4.4722,-4.4722,-4.4722,-4.4722,-4.4722,-4.483,-4.5449,-4.6764,-4.8167,-4.9317,-5.0412,-5.1323,-5.1695,-5.2429,-5.3039,-5.3161,-5.3775,-5.4268,-5.4268,-5.4514,-5.4915,-5.5781,-5.681,-5.7904,-5.9114,-6.0284,-6.1298,-6.1866,-6.2124,0.0,-6.253,-6.253,-6.253,-6.253,-6.253,-6.2637,-6.271,-6.2995,0.0,-6.3276,-6.3517,-6.3969,-6.4706,-6.4706,-6.4706,-6.4706,-6.4843,-6.5011,-6.5212,-6.5539,-6.5922,-6.6305,-6.6488,-6.6608,-6.6786,-6.6786,-6.6786,-6.6786,-6.6786,-6.6786,-6.6786,-6.6786,-6.6845,-6.6903,-6.704,-6.7768,-6.8713,-2.2259,-2.2259,-2.2259,-2.2259,-2.2408,-2.2843,-2.4301,-2.589,-2.749,-2.8947,-3.1243,-3.2666,-3.2666,-3.3381,-3.3817,-3.3817,-3.3817,-3.3817,-3.3817,-3.3817,-3.3955,-3.4232,-3.4646,-3.5059,-3.5333,-3.8423,-4.1122,-4.3385,-4.3385,-4.3505,-4.3585,-4.3585,-4.3639,-4.3689,-4.3689,-4.3413,-4.2986,-4.2986,-4.2986,-4.2986,-4.2986,-4.2986,-4.3098,-4.3679,-4.3899,-4.401,-4.4531,-4.4722,-4.4722,-4.4722,-4.4722,-4.4722,-4.4722,-4.4722,-4.4722,-4.4938,-4.6347,-4.8167,-4.9092,-5.0316,-5.1416,-5.191,-5.2367,-5.2698,-5.2698,-5.316,-5.356,-5.356,-5.4022,-5.4453,-5.4545,-5.534,-5.6201,-5.7045,-5.8297,-5.9443,-6.0381,0.0,-6.1109,-6.1289,-6.1289,-6.1289,-6.1289,-6.1289,-6.1394,-6.1606,-6.1814,-6.1882,-6.1946,-6.2147,-6.2775,-6.3969,-6.425,-6.4355,-6.4355,-6.4658,-6.4858,-6.4923,-6.56,-6.597,-6.6031,-6.6306,-6.6496,-6.6605,-6.6605,-6.6677,-6.6786,-6.6786,-6.6786,-6.6786,-6.6786,-6.6903,-6.6983,-6.7154,-6.7922,-6.8803,-2.2259,-2.2259,-2.2259,-2.2259,-2.2558,-2.3574,-2.6036,-2.7055,-2.8372,-3.0835,-3.2105,-3.2666,-3.2666,-3.3381,-3.3817,-3.3817,-3.3817,-3.3817,-3.3817,-3.3817,-3.3817,-3.3955,-3.4508,-3.4921,-3.5059,-3.7957,-4.0603,-4.288,-4.288,-4.2971,-4.3044,-4.3044,-4.3069,-4.3112,-4.3112,-4.3062,-4.2986,-4.2986,-4.2986,-4.2986,-4.2986,-4.2986,-4.3098,-4.3679,-4.3899,-4.401,-4.4531,-4.4722,-4.4722,-4.4722,-4.4722,-4.4722,-4.4722,-4.4722,-4.4938,-4.5874,-4.6971,-4.8066,-4.8167,-4.9999,-5.191,-5.2002,-5.2367,-5.2698,-5.2698,-5.279,-5.2883,-5.2883,-5.2944,-5.3191,-5.3775,-5.4621,-5.5455,-5.6232,-5.8052,-5.9443,-5.9598,0.0,-6.1252,-6.1323,-6.1289,-6.1289,-6.1289,-6.1289,-6.1394,-6.1606,-6.1814,-6.1673,-6.1212,-6.1375,-6.1265,-6.0809,-6.2073,-6.274,-6.274,-6.307,-6.3393,-6.3672,-6.4076,-6.441,-6.4701,-6.4758,-6.512,-6.5772,-6.5772,-6.617,-6.6786,-6.6786,-6.6786,-6.6786,-6.6903,-6.7019,-6.7076,-6.7359,-6.801,-6.8728,-2.2259,-2.2259,-2.2259,-2.2259,-2.3277,-2.473,-2.6619,-2.8341,-3.0075,-3.1965,-3.2824,-3.3242,-3.3242,-3.3659,-3.3817,-3.3817,-3.3615,-3.3505,-3.3505,-3.3688,-3.3707,-3.3779,-3.4308,-3.5258,-3.6951,-3.8274,-4.0084,-4.2327,-4.2327,-4.2414,-4.2479,-4.2479,-4.2673,-4.2986,-4.2986,-4.2986,-4.2986,-4.2986,-4.2986,-4.2986,-4.2986,-4.2986,-4.3098,-4.3679,-4.3899,-4.401,-4.4531,-4.4722,-4.4722,-4.4722,-4.4722,-4.4722,-4.4722,-4.4722,-4.4938,-4.6058,-4.7587,-4.8993,-4.9611,-5.0793,-5.2002,-5.2002,-5.2367,-5.2698,-5.2698,-5.2698,-5.2698,-5.2698,-5.2698,-5.2821,-5.3129,-5.352,-5.4116,-5.5011,-5.6498,0.0,-5.827,-5.9375,-6.0082,-6.0082,-6.0082,-5.9909,-5.953,-5.9461,-5.946,-5.9314,-5.9346,-5.9404,-5.9278,-5.9341,-5.9229,-5.8878,-6.0352,-6.119,-6.1383,-6.1734,-6.2103,-6.2367,-6.2695,-6.3176,-6.3744,-6.3744,-6.4178,-6.4939,-6.4939,-6.5156,-6.5518,-6.5518,-6.583,-6.625,-6.6365,-6.6733,-6.723,-6.6902,-6.728,-6.7867,-2.209,-2.2226,-2.2374,-2.2645,-2.409,-2.5665,-2.7251,-2.9373,-3.1234,-3.2539,-3.311,-3.3523,-3.3523,-3.3523,-3.3523,-3.3523,-3.3248,-3.3083,-3.3083,-3.3358,-3.3532,-3.349,-3.3876,-3.5356,-3.8053,-3.8429,-3.9444,-4.1282,-4.1657,-4.1929,-4.211,-4.211,-4.2425,-4.2986,-4.2986,-4.2986,-4.2986,-4.2986,-4.2986,-4.2986,-4.2986,-4.2986,-4.3098,-4.3679,-4.3899,-4.401,-4.4531,-4.4722,-4.4722,-4.4722,-4.4722,-4.4722,-4.4722,-4.4722,-4.4938,-4.6374,-4.8296,-5.0124,-5.1011,-5.1602,-5.2002,-5.2002,-5.2367,-5.2698,-5.2698,-5.2698,-5.2698,-5.2698,-5.2698,-5.2698,-5.2698,-5.2698,-5.2966,-5.3985,0.0,-5.6171,0.0,-5.8007,-5.8702,-5.853,-5.8495,-5.8288,-5.7702,-5.7633,-5.7524,-5.726,-5.7289,-5.7346,-5.7482,-5.7509,-5.7438,-5.7263,-5.8773,-5.9671,-5.9885,-6.0345,-6.0639,-6.087,-6.1262,-6.1788,-6.2367,-6.2367,-6.2802,-6.3563,-6.3563,-6.3671,-6.3852,-6.3909,-6.4291,-6.4984,-6.5221,-6.5861,-6.6591,-6.617,-6.6418,-6.6992,-2.1583,-2.1824,-2.2375,-2.3754,-2.4748,-2.6283,-2.9044,-3.002,-3.0871,-3.2411,-3.268,-3.268,-3.268,-3.268,-3.268,-3.268,-3.2661,-3.2643,-3.2643,-3.2929,-3.3063,-3.2643,-3.3311,-3.4531,-3.6227,-3.731,-3.842,-3.9403,-4.0619,-4.1565,-4.211,-4.211,-4.2425,-4.2986,-4.2986,-4.2986,-4.2986,-4.2986,-4.2986,-4.2986,-4.2986,-4.2986,-4.3098,-4.3679,-4.3899,-4.401,-4.4531,-4.4722,-4.4722,-4.4722,-4.4722,-4.4722,-4.4722,-4.4722,-4.5127,-4.728,-4.9386,-5.1135,-5.1229,-5.1602,-5.2002,-5.2002,-5.2367,-5.2698,-5.2698,-5.2698,-5.2698,-5.2698,-5.2698,-5.2698,-5.2698,-5.2698,-5.2788,-5.3144,0.0,0.0,-5.5314,-5.6836,-5.7736,-5.7047,-5.6978,-5.6943,-5.6874,-5.6874,-5.6905,-5.7032,-5.7161,-5.7039,-5.6528,-5.6641,-5.6385,-5.5718,-5.7193,-5.7965,-5.8027,-5.8591,-5.8881,-5.8902,-5.9493,-5.9832,-5.9868,-5.9868,-6.0303,-6.1064,-6.1064,-6.1498,-6.2186,-6.2313,-6.2403,-6.2549,-6.3544,-6.3978,-6.4177,-6.5066,-6.5912,-6.6533,-2.1498,-2.1762,-2.2181,-2.2729,-2.4961,-2.7046,-2.8292,-3.0225,-3.1899,-3.2454,-3.2588,-3.2588,-3.2588,-3.2588,-3.2588,-3.2588,-3.2368,-3.2239,-3.2239,-3.2263,-3.2618,-3.3124,-3.4152,-3.5435,-3.6716,-3.8055,-3.9304,-4.0455,-4.0942,-4.1541,-4.211,-4.211,-4.2425,-4.2986,-4.2986,-4.2986,-4.2986,-4.2986,-4.2986,-4.2986,-4.2986,-4.3073,-4.3295,-4.3764,-4.401,-4.4203,-4.4505,-4.4722,-4.4722,-4.4722,-4.4722,-4.4722,-4.4722,-4.4722,-4.5127,-4.7355,-4.9484,-5.1229,-5.1229,-5.1602,-5.2002,-5.2002,-5.2367,-5.2698,-5.2698,-5.2698,-5.2698,-5.2698,-5.2698,-5.2698,-5.2698,-5.2698,-5.2788,-5.3233,0.0,-5.5101,-5.5245,-5.6754,-5.7564,-5.6848,-5.7192,-5.7116,-5.615,-5.6081,-5.6003,-5.5772,-5.58,-5.5881,-5.5844,-5.5869,-5.5788,-5.5507,-5.6069,-5.641,-5.6646,-5.705,-5.7386,-5.7514,-5.7887,-5.8383,-5.8854,-5.8854,-5.9289,-6.0086,-6.0086,-6.0231,-6.052,-6.0679,-6.1074,-6.1688,-6.2647,-6.3423,-6.4039,-6.442,-6.4905,-6.5366,-2.1375,-2.1648,-2.2061,-2.2615,-2.536,-2.7594,-2.8253,-3.0507,-3.2258,-3.2386,-3.2294,-3.2221,-3.2221,-3.2221,-3.2221,-3.2221,-3.1964,-3.1818,-3.1948,-3.2078,-3.2535,-3.3335,-3.4187,-3.5129,-3.6093,-3.7768,-3.898,-3.9966,-4.0826,-4.1541,-4.211,-4.211,-4.2425,-4.2986,-4.2986,-4.2986,-4.2986,-4.2986,-4.2986,-4.2986,-4.2986,-4.3184,-4.3406,-4.3764,-4.4119,-4.4313,-4.4613,-4.4722,-4.4722,-4.4722,-4.4722,-4.4722,-4.4722,-4.4938,-4.5662,-4.7457,-4.9288,-5.0822,-5.1199,-5.1695,-5.2002,-5.2002,-5.2367,-5.2698,-5.2698,-5.2698,-5.2698,-5.2698,-5.2698,-5.2698,-5.2698,-5.2698,-5.2877,-5.329,-5.4094,-5.4723,-5.4907,-5.6369,-5.7205,-5.6389,-5.7021,-5.715,-5.6081,-5.577,-5.5519,-5.5286,-5.5131,-5.5113,-5.5507,-5.5507,-5.5507,-5.5507,-5.5507,-5.5625,-5.5901,-5.6217,-5.6546,-5.6776,-5.7087,-5.7478,-5.8021,-5.8021,-5.8311,-5.8854,-5.8854,-5.8854,-5.8854,-5.906,-5.9634,-6.0537,-6.1542,-6.2448,-6.3369,-6.3775,-6.4197,-6.4501,-2.1131,-2.1496,-2.231,-2.421,-2.5935,-2.7781,-2.9628,-3.0704,-3.1543,-3.1946,-3.1634,-3.1377,-3.1377,-3.1377,-3.1377,-3.1377,-3.1377,-3.1506,-3.191,-3.2549,-3.2912,-3.2912,-3.2912,-3.3038,-3.3418,-3.5971,-3.7309,-3.7309,-3.9966,-4.1541,-4.211,-4.211,-4.2425,-4.2986,-4.2986,-4.2986,-4.2986,-4.2986,-4.2986,-4.2986,-4.2986,-4.3184,-4.3406,-4.3764,-4.4119,-4.4313,-4.4613,-4.4722,-4.4722,-4.4722,-4.4722,-4.4722,-4.4722,-4.5449,-4.6583,-4.7661,-4.8795,-4.9902,-5.1199,-5.1787,-5.2002,-5.2002,-5.2337,-5.2698,-5.2698,-5.2698,-5.2698,-5.2698,-5.2698,-5.2698,-5.2698,-5.2698,-5.2877,-5.329,-5.4094,-5.448,-5.4213,-5.5671,-5.6389,-5.5612,-5.6269,-5.6805,-5.6805,-5.6081,-5.5697,-5.5923,-5.5382,-5.5113,-5.5507,-5.5507,-5.5507,-5.5507,-5.5507,-5.5625,-5.5901,-5.6217,-5.6546,-5.6776,-5.7087,-5.7188,-5.7188,-5.7188,-5.7188,-5.7188,-5.7188,-5.7188,-5.7188,-5.7522,-5.8093,-5.8896,-5.9993,-6.0896,-6.1716,-6.3012,-6.3761,-6.4136,-2.148,-2.1772,-2.2396,-2.3447,-2.5958,-2.8036,-2.8559,-3.0676,-3.2166,-3.2019,-3.1891,-3.1708,-3.1414,-3.1377,-3.1377,-3.1377,-3.1653,-3.2038,-3.2549,-3.2804,-3.3038,-3.3292,-3.4153,-3.4632,-3.4757,-3.646,-3.779,-3.8625,-3.9474,-4.0548,-4.211,-4.211,-4.2425,-4.2986,-4.2986,-4.2986,-4.2986,-4.2986,-4.2986,-4.2986,-4.2986,-4.3321,-4.3764,-4.3899,-4.4203,-4.4613,-4.4613,-4.4722,-4.4722,-4.4722,-4.4722,-4.4722,-4.4722,-4.5449,-4.6583,-4.7661,-4.8795,-4.9805,-5.1011,-5.1695,-5.1972,-5.2155,-5.2427,-5.2698,-5.2698,-5.2698,-5.2698,-5.2698,-5.2698,-5.2698,-5.2698,-5.2698,-5.2877,-5.329,-5.3608,-5.3891,-5.4126,-5.5581,-5.6321,-5.5555,-5.6675,-5.7357,-5.684,-5.6598,-5.6556,-5.6814,-5.6396,-5.5914,-5.5543,-5.5507,-5.5507,-5.5507,-5.5507,-5.5742,-5.6273,-5.6328,-5.6546,-5.6776,-5.7087,-5.7188,-5.7188,-5.7188,-5.7188,-5.7188,-5.7188,-5.7565,-5.821,-5.836,-5.8981,-5.9883,-6.0885,-6.1374,-6.1716,-6.3012,-6.3761,-6.4136,-2.1907,-2.2216,-2.255,-2.33,-2.6114,-2.8233,-2.836,-3.0753,-3.2514,-3.2276,-3.2111,-3.1854,-3.1414,-3.1506,-3.1653,-3.1653,-3.2038,-3.2422,-3.2931,-3.3038,-3.3165,-3.3418,-3.4652,-3.5376,-3.5376,-3.6703,-3.7887,-3.9216,-3.9709,-4.0663,-4.211,-4.211,-4.2425,-4.2986,-4.2986,-4.2986,-4.2986,-4.2986,-4.2986,-4.2986,-4.2986,-4.3321,-4.3899,-4.3764,-4.4094,-4.4722,-4.4613,-4.4613,-4.4722,-4.4722,-4.4722,-4.4722,-4.4722,-4.5127,-4.6058,-4.7559,-4.8496,-4.9317,-5.1011,-5.1695,-5.2063,-5.2427,-5.2608,-5.2698,-5.2698,-5.2698,-5.2698,-5.2698,-5.2698,-5.2698,-5.2698,-5.2698,-5.2877,-5.329,-5.3377,-5.3552,-5.4017,-5.5507,-5.6448,-5.5908,-5.7352,-5.815,-5.7702,-5.7492,-5.7378,-5.7387,-5.7246,-5.6736,-5.5999,-5.5929,-5.5823,-5.5507,-5.5625,-5.5879,-5.6383,-5.6492,-5.6707,-5.6933,-5.7138,-5.7188,-5.7188,-5.7188,-5.7188,-5.7224,-5.755,-5.805,-5.8623,-5.9101,-5.9834,-6.0701,-6.1361,-6.1923,-6.2456,-6.3401,-6.4012,-6.4445,-2.2506,-2.2663,-2.295,-2.3705,-2.6343,-2.8376,-2.8834,-3.0977,-3.268,-3.2606,-3.2276,-3.1891,-3.1433,-3.1782,-3.191,-3.191,-3.2549,-3.2912,-3.2912,-3.3165,-3.3418,-3.3418,-3.4528,-3.5253,-3.5376,-3.6703,-3.7887,-3.9216,-4.0455,-4.1402,-4.211,-4.211,-4.2425,-4.2986,-4.2986,-4.2986,-4.2986,-4.2986,-4.2986,-4.2986,-4.2986,-4.3321,-4.3789,-4.3517,-4.3958,-4.4613,-4.4422,-4.4531,-4.4722,-4.4722,-4.4722,-4.4722,-4.4722,-4.4722,-4.5127,-4.728,-4.7864,-4.8567,-5.1105,-5.191,-5.2094,-5.2518,-5.2698,-5.2698,-5.2698,-5.2698,-5.2698,-5.2698,-5.2698,-5.2698,-5.2698,-5.2729,-5.2877,-5.329,-5.3377,-5.3552,-5.4017,-5.5507,-5.6614,-5.6614,-5.8031,-5.9012,-5.9012,-5.8628,-5.8133,-5.7751,-5.7868,-5.7579,-5.6736,-5.6701,-5.6385,-5.5648,-5.587,-5.612,-5.6383,-5.6653,-5.6933,-5.7188,-5.7188,-5.7188,-5.7188,-5.7261,-5.7297,-5.7333,-5.8166,-5.8631,-5.8878,-5.9757,-6.0674,-6.1556,-6.1655,-6.2446,-6.3535,-6.3934,-6.4407,-6.4882,-2.2759,-2.3233,-2.3601,-2.4263,-2.7008,-2.9012,-2.9091,-3.1599,-3.3321,-3.268,-3.2514,-3.2335,-3.1874,-3.191,-3.2057,-3.2294,-3.2676,-3.3038,-3.3292,-3.3418,-3.3418,-3.3418,-3.367,-3.4278,-3.5376,-3.6703,-3.7887,-3.9216,-3.9474,-4.0432,-4.211,-4.211,-4.2425,-4.2986,-4.2986,-4.2986,-4.2986,-4.2986,-4.2986,-4.2986,-4.2986,-4.3184,-4.3517,-4.3406,-4.3848,-4.4422,-4.4313,-4.4531,-4.4722,-4.4722,-4.4722,-4.4722,-4.4722,-4.4722,-4.4938,-4.6374,-4.7383,-4.8368,-4.9969,-5.1199,-5.2094,-5.2306,-5.2518,-5.2698,-5.2698,-5.2698,-5.2698,-5.2698,-5.2698,-5.2698,-5.2698,-5.2908,-5.3055,-5.3377,-5.3584,-5.3758,-5.4103,-5.5507,-5.6614,-5.6614,-5.8031,-5.9012,-5.9012,-5.918,-5.9029,-5.852,-5.8612,-5.8386,-5.7579,-5.7544,-5.7193,-5.6385,-5.6646,-5.6709,-5.6383,-5.6653,-5.6933,-5.7188,-5.7188,-5.7188,-5.7224,-5.784,-5.813,-5.8166,-5.9066,-5.9947,-6.0632,-6.0966,-6.1665,-6.2498,-6.2548,-6.2962,-6.3535,-6.3934,-6.4407,-6.4882,-2.305,-2.3516,-2.4009,-2.4462,-2.6502,-2.8357,-2.9059,-3.1209,-3.2659,-3.2564,-3.2588,-3.2427,-3.2003,-3.2038,-3.2294,-3.2804,-3.3038,-3.3165,-3.3418,-3.3418,-3.3418,-3.3418,-3.4027,-3.5005,-3.6215,-3.755,-3.8506,-3.9216,-3.9826,-4.0803,-4.211,-4.211,-4.2425,-4.2986,-4.2986,-4.2986,-4.2986,-4.2986,-4.2986,-4.2986,-4.2986,-4.3184,-4.3381,-4.3295,-4.3628,-4.4313,-4.4203,-4.4313,-4.4722,-4.4722,-4.4722,-4.4722,-4.4722,-4.4722,-4.4938,-4.6058,-4.7177,-4.8267,-4.9776,-5.1075,-5.2094,-5.2427,-5.2608,-5.2698,-5.2698,-5.2698,-5.2698,-5.2698,-5.2698,-5.2698,-5.2698,-5.2908,-5.3144,-5.3377,-5.3584,-5.3876,-5.4103,-5.5507,-5.6614,-5.6614,-5.8031,-5.9081,-5.9251,-5.9453,-5.9578,-5.9418,-5.9446,-5.9194,-5.8421,-5.8386,-5.8062,-5.7434,-5.7694,-5.7861,-5.7746,-5.798,-5.8192,-5.8347,-5.7949,-5.7768,-5.7804,-5.8601,-5.8963,-5.8999,-5.9953,-6.069,-6.123,-6.1748,-6.2302,-6.2805,-6.2805,-6.3215,-6.3803,-6.4016,-6.452,-6.5117,-2.329,-2.3735,-2.4193,-2.4488,-2.6078,-2.765,-2.9059,-3.0785,-3.2087,-3.2564,-3.2588,-3.2559,-3.2003,-3.2294,-3.2785,-3.3292,-3.3418,-3.3418,-3.3418,-3.3418,-3.3418,-3.3418,-3.4528,-3.5479,-3.6581,-3.8149,-3.9098,-3.9592,-4.0687,-4.1541,-4.211,-4.211,-4.2425,-4.2986,-4.2986,-4.2986,-4.2986,-4.2986,-4.2986,-4.2986,-4.2986,-4.3073,-4.3295,-4.3073,-4.3543,-4.4203,-4.401,-4.4203,-4.4722,-4.4722,-4.4722,-4.4696,-4.4617,-4.4643,-4.4912,-4.574,-4.6888,-4.8267,-4.965,-5.0952,-5.2094,-5.2608,-5.2698,-5.2698,-5.2698,-5.2698,-5.2698,-5.2698,-5.2698,-5.2698,-5.2698,-5.2966,-5.3233,-5.3377,-5.3671,-5.3876,-5.4103,-5.5507,-5.6614,-5.6614,-5.8031,-5.9149,-5.9554,-5.9621,-5.9718,-6.0107,-6.0107,-5.9826,-5.9229,-5.9194,-5.8932,-5.8485,-5.8743,-5.9015,-5.9185,-5.9456,-5.9615,-5.9615,-5.9072,-5.8746,-5.8637,-5.9434,-5.9832,-5.9868,-6.0788,-6.1308,-6.1448,-6.226,-6.2705,-6.2805,-6.2805,-6.3354,-6.4096,-6.4254,-6.481,-6.5413,-2.3438,-2.4044,-2.4488,-2.4636,-2.6925,-2.8932,-2.9202,-3.1649,-3.323,-3.2698,-3.2855,-3.2805,-3.2388,-3.2931,-3.3292,-3.3418,-3.3418,-3.3418,-3.3418,-3.3418,-3.3418,-3.3418,-3.3544,-3.3796,-3.3902,-3.6338,-3.8625,-4.0942,-4.1057,-4.1541,-4.211,-4.211,-4.2425,-4.2986,-4.2986,-4.2986,-4.2986,-4.2986,-4.2986,-4.2986,-4.2986,-4.2986,-4.3073,-4.2986,-4.3432,-4.3899,-4.3899,-4.4203,-4.4722,-4.4722,-4.4722,-4.4643,-4.4147,-4.433,-4.4643,-4.4334,-4.6043,-4.8167,-4.8709,-5.0449,-5.2094,-5.2608,-5.2698,-5.2698,-5.2698,-5.2698,-5.2698,-5.2698,-5.2698,-5.2698,-5.2698,-5.3055,-5.3377,-5.3377,-5.3758,-5.4103,-5.4103,-5.5507,-5.6614,-5.6614,-5.8031,-5.9149,-5.9554,-5.9621,-5.9718,-6.0107,-6.0107,-6.0072,-5.9966,-5.9931,-5.9706,-5.9264,-5.9562,-5.9531,-5.9185,-5.9456,-5.9615,-5.9615,-6.0194,-6.0122,-5.947,-6.0267,-6.0665,-6.0701,-6.1729,-6.2198,-6.2251,-6.2618,-6.2755,-6.2805,-6.2805,-6.3354,-6.4176,-6.4947,-6.5314,-6.5413,-2.3438,-2.4044,-2.4636,-2.4636,-2.5786,-2.7215,-2.8916,-3.0359,-3.1513,-3.2429,-3.2855,-3.2936,-3.2516,-3.3038,-3.3418,-3.3418,-3.3418,-3.3418,-3.3418,-3.3418,-3.3418,-3.3418,-3.3418,-3.3796,-3.4528,-3.5623,-3.755,-4.0292,-4.1033,-4.1631,-4.211,-4.2199,-4.2538,-4.2986,-4.2986,-4.2986,-4.2986,-4.2986,-4.2986,-4.2986,-4.2986,-4.2986,-4.2986,-4.2986,-4.3321,-4.3899,-4.4203,-4.4531,-4.4722,-4.4722,-4.4513,-4.4251,-4.433,-4.4304,-4.4278,-4.433,-4.6157,-4.8267,-4.861,-5.0419,-5.2246,-5.2608,-5.2698,-5.2698,-5.2698,-5.2698,-5.2698,-5.2698,-5.2698,-5.2698,-5.2698,-5.3055,-5.3377,-5.3377,-5.3813,-5.4103,-5.4103,-5.5507,-5.692,-5.7814,-5.8632,-5.9319,-5.9554,-5.9652,-5.9814,-6.0107,-6.0107,-6.0107,-6.0107,-6.0107,-6.0184,-6.032,-6.0499,-6.0648,-6.0738,-6.0901,-6.0955,-6.0955,-6.1317,-6.1064,-6.0303,-6.11,-6.1516,-6.1606,-6.2146,-6.2449,-6.25,-6.2705,-6.2805,-6.2805,-6.2805,-6.3354,-6.4215,-6.5085,-6.5413,-6.5413]},{"header":{"parameterUnit":"m.s-1","parameterCategory":1,"la1":30.6,"la2":28.766,"lo1":-90.7593,"lo2":-88.6598,"dy":0.0162,"dx":0.0183,"nx":116,"ny":114,"refTime":"2023-04-18T12:00:00:Z","depth":0,"parameterNumber":3,"parameterNumberName":"V-component_of_WINDS"},"data":[0.0,0.0,0.0,0.0,0.0,0.0,0.0,0.0,0.0,0.0,0.0,0.0,0.0,0.0,0.0,0.0,0.0,0.0,0.0,0.0,0.0,0.0,0.0,0.0,0.0,0.0,0.0,0.0,0.0,0.0,0.0,0.0,0.0,0.0,0.0,0.0,0.0,0.0,0.0,0.0,0.0,0.0,0.0,0.0,0.0,0.0,0.0,0.0,0.0,0.0,0.0,0.0,0.0,0.0,0.0,0.0,0.0,0.0,0.0,0.0,0.0,0.0,0.0,0.0,0.0,0.0,0.0,0.0,0.0,0.0,0.0,0.0,0.0,0.0,0.0,0.0,0.0,0.0,0.0,0.0,0.0,0.0,0.0,0.0,0.0,0.0,0.0,0.0,0.0,0.0,0.0,0.0,0.0,0.0,0.0,0.0,0.0,0.0,0.0,0.0,0.0,0.0,0.0,0.0,0.0,0.0,0.0,0.0,0.0,0.0,0.0,0.0,0.0,0.0,0.0,0.0,0.0,0.0,0.0,0.0,0.0,0.0,0.0,0.0,0.0,0.0,0.0,0.0,0.0,0.0,0.0,0.0,0.0,0.0,0.0,0.0,0.0,0.0,0.0,0.0,0.0,0.0,0.0,0.0,0.0,0.0,0.0,0.0,0.0,0.0,0.0,0.0,0.0,0.0,0.0,0.0,0.0,0.0,0.0,0.0,0.0,0.0,0.0,0.0,0.0,0.0,0.0,0.0,0.0,0.0,0.0,0.0,0.0,0.0,0.0,0.0,0.0,0.0,0.0,0.0,0.0,0.0,0.0,0.0,0.0,0.0,0.0,0.0,0.0,0.0,0.0,0.0,0.0,0.0,0.0,0.0,0.0,0.0,0.0,0.0,0.0,0.0,0.0,0.0,0.0,0.0,0.0,0.0,0.0,0.0,0.0,0.0,0.0,0.0,0.0,0.0,0.0,0.0,0.0,0.0,0.0,0.0,0.0,0.0,0.0,0.0,0.0,0.0,0.0,0.0,0.0,0.0,0.0,0.0,0.0,0.0,0.0,0.0,0.0,0.0,0.0,0.0,0.0,0.0,0.0,0.0,0.0,0.0,0.0,0.0,0.0,0.0,0.0,0.0,0.0,0.0,0.0,0.0,0.0,0.0,0.0,0.0,0.0,0.0,0.0,0.0,0.0,0.0,0.0,0.0,0.0,0.0,0.0,0.0,0.0,0.0,0.0,0.0,0.0,0.0,0.0,0.0,0.0,0.0,0.0,0.0,0.0,0.0,0.0,0.0,0.0,0.0,0.0,0.0,0.0,0.0,0.0,0.0,0.0,0.0,0.0,0.0,0.0,0.0,0.0,0.0,0.0,0.0,0.0,0.0,0.0,0.0,0.0,0.0,0.0,0.0,0.0,0.0,0.0,0.0,0.0,0.0,0.0,0.0,0.0,0.0,0.0,0.0,0.0,0.0,0.0,0.0,0.0,0.0,0.0,0.0,0.0,0.0,0.0,0.0,0.0,0.0,0.0,0.0,0.0,0.0,0.0,0.0,0.0,0.0,0.0,0.0,0.0,0.0,0.0,0.0,0.0,0.0,0.0,0.0,0.0,0.0,0.0,0.0,0.0,0.0,0.0,0.0,0.0,0.0,0.0,0.0,0.0,0.0,0.0,0.0,0.0,0.0,0.0,0.0,0.0,0.0,0.0,0.0,0.0,0.0,0.0,0.0,0.0,0.0,0.0,0.0,0.0,0.0,0.0,0.0,0.0,0.0,0.0,0.0,0.0,0.0,0.0,0.0,0.0,0.0,0.0,0.0,0.0,0.0,0.0,0.0,0.0,0.0,0.0,0.0,0.0,0.0,0.0,0.0,0.0,0.0,0.0,0.0,0.0,0.0,0.0,0.0,0.0,0.0,0.0,0.0,0.0,0.0,0.0,0.0,0.0,0.0,0.0,0.0,0.0,0.0,0.0,0.0,0.0,0.0,0.0,0.0,0.0,0.0,0.0,0.0,0.0,0.0,0.0,0.0,0.0,0.0,0.0,0.0,0.0,0.0,0.0,0.0,0.0,0.0,0.0,0.0,0.0,0.0,0.0,0.0,0.0,0.0,0.0,0.0,0.0,0.0,0.0,0.0,0.0,0.0,0.0,0.0,0.0,0.0,0.0,0.0,0.0,0.0,0.0,0.0,0.0,0.0,0.0,0.0,0.0,0.0,0.0,0.0,0.0,0.0,0.0,0.0,0.0,0.0,0.0,0.0,0.0,0.0,0.0,0.0,0.0,0.0,0.0,0.0,0.0,0.0,0.0,0.0,0.0,0.0,0.0,0.0,0.0,0.0,0.0,0.0,0.0,0.0,0.0,0.0,0.0,0.0,0.0,0.0,0.0,0.0,0.0,0.0,0.0,0.0,0.0,0.0,0.0,0.0,0.0,0.0,0.0,0.0,0.0,0.0,0.0,0.0,0.0,0.0,0.0,0.0,0.0,0.0,0.0,0.0,0.0,0.0,0.0,0.0,0.0,0.0,0.0,0.0,0.0,0.0,0.0,0.0,0.0,0.0,0.0,0.0,0.0,0.0,0.0,0.0,0.0,0.0,0.0,0.0,0.0,0.0,0.0,0.0,0.0,0.0,0.0,0.0,0.0,0.0,0.0,0.0,0.0,0.0,0.0,0.0,0.0,0.0,0.0,0.0,0.0,0.0,0.0,0.0,0.0,0.0,0.0,0.0,0.0,0.0,0.0,0.0,0.0,0.0,0.0,0.0,0.0,0.0,0.0,0.0,0.0,0.0,0.0,0.0,0.0,0.0,0.0,0.0,0.0,0.0,0.0,0.0,0.0,0.0,0.0,0.0,0.0,0.0,0.0,0.0,0.0,0.0,0.0,0.0,0.0,0.0,0.0,0.0,0.0,0.0,0.0,0.0,0.0,0.0,0.0,0.0,0.0,0.0,0.0,0.0,0.0,0.0,0.0,0.0,0.0,0.0,0.0,0.0,0.0,0.0,0.0,0.0,0.0,0.0,0.0,0.0,0.0,0.0,0.0,0.0,0.0,0.0,0.0,0.0,0.0,0.0,0.0,0.0,0.0,0.0,0.0,0.0,0.0,0.0,0.0,0.0,0.0,0.0,0.0,0.0,0.0,0.0,0.0,0.0,0.0,0.0,0.0,0.0,0.0,0.0,0.0,0.0,0.0,0.0,0.0,0.0,0.0,0.0,0.0,0.0,0.0,0.0,0.0,0.0,0.0,0.0,0.0,0.0,0.0,0.0,0.0,0.0,0.0,0.0,0.0,0.0,0.0,0.0,0.0,0.0,0.0,0.0,0.0,0.0,0.0,0.0,0.0,0.0,0.0,0.0,0.0,0.0,0.0,0.0,0.0,0.0,0.0,0.0,0.0,0.0,0.0,0.0,0.0,0.0,0.0,0.0,0.0,0.0,0.0,0.0,0.0,0.0,0.0,0.0,0.0,0.0,0.0,0.0,0.0,0.0,0.0,0.0,0.0,0.0,0.0,0.0,0.0,0.0,0.0,0.0,0.0,0.0,0.0,0.0,0.0,0.0,0.0,0.0,0.0,0.0,0.0,0.0,0.0,0.0,0.0,0.0,0.0,0.0,0.0,0.0,0.0,0.0,0.0,0.0,0.0,0.0,0.0,0.0,0.0,0.0,0.0,0.0,0.0,0.0,0.0,0.0,0.0,0.0,0.0,0.0,0.0,0.0,0.0,0.0,0.0,0.0,0.0,0.0,0.0,0.0,0.0,0.0,0.0,0.0,0.0,0.0,0.0,0.0,0.0,0.0,0.0,0.0,0.0,0.0,0.0,0.0,0.0,0.0,0.0,0.0,0.0,0.0,0.0,0.0,0.0,0.0,0.0,0.0,0.0,0.0,0.0,0.0,0.0,0.0,0.0,0.0,0.0,0.0,0.0,0.0,0.0,0.0,0.0,0.0,0.0,0.0,0.0,0.0,0.0,0.0,0.0,0.0,0.0,0.0,0.0,0.0,0.0,0.0,0.0,0.0,0.0,0.0,0.0,0.0,0.0,0.0,0.0,0.0,0.0,0.0,0.0,0.0,0.0,0.0,0.0,0.0,0.0,0.0,0.0,0.0,0.0,0.0,0.0,0.0,0.0,0.0,0.0,0.0,0.0,0.0,0.0,0.0,0.0,0.0,0.0,0.0,0.0,0.0,0.0,0.0,0.0,0.0,0.0,0.0,0.0,0.0,0.0,0.0,0.0,0.0,0.0,0.0,0.0,0.0,0.0,0.0,0.0,0.0,0.0,0.0,0.0,0.0,0.0,0.0,0.0,0.0,0.0,0.0,0.0,0.0,0.0,0.0,0.0,0.0,0.0,0.0,0.0,0.0,0.0,0.0,0.0,0.0,0.0,0.0,0.0,0.0,0.0,0.0,0.0,0.0,0.0,0.0,0.0,0.0,0.0,0.0,0.0,0.0,0.0,0.0,0.0,0.0,0.0,0.0,0.0,0.0,0.0,0.0,0.0,0.0,0.0,0.0,0.0,0.0,0.0,0.0,0.0,0.0,0.0,0.0,0.0,0.0,0.0,0.0,0.0,0.0,0.0,0.0,0.0,0.0,0.0,0.0,0.0,0.0,0.0,0.0,0.0,0.0,0.0,0.0,0.0,0.0,0.0,0.0,0.0,0.0,0.0,0.0,0.0,0.0,0.0,0.0,0.0,0.0,0.0,0.0,0.0,0.0,0.0,0.0,0.0,0.0,0.0,0.0,0.0,0.0,0.0,0.0,0.0,0.0,0.0,0.0,0.0,0.0,0.0,0.0,0.0,0.0,0.0,0.0,0.0,0.0,0.0,0.0,0.0,0.0,0.0,0.0,0.0,0.0,0.0,0.0,0.0,0.0,0.0,0.0,0.0,0.0,0.0,0.0,0.0,0.0,0.0,0.0,0.0,0.0,0.0,0.0,0.0,0.0,0.0,0.0,0.0,0.0,0.0,0.0,0.0,0.0,0.0,0.0,0.0,0.0,0.0,0.0,0.0,0.0,0.0,0.0,0.0,0.0,0.0,0.0,0.0,0.0,0.0,0.0,0.0,0.0,0.0,0.0,0.0,0.0,0.0,0.0,0.0,0.0,0.0,0.0,0.0,0.0,0.0,0.0,0.0,0.0,0.0,0.0,0.0,0.0,0.0,0.0,0.0,0.0,0.0,0.0,0.0,0.0,0.0,0.0,0.0,0.0,0.0,0.0,0.0,0.0,0.0,0.0,0.0,0.0,0.0,0.0,0.0,0.0,0.0,0.0,0.0,0.0,0.0,0.0,0.0,0.0,0.0,0.0,0.0,0.0,0.0,0.0,0.0,0.0,0.0,0.0,0.0,0.0,0.0,0.0,0.0,0.0,0.0,0.0,0.0,0.0,0.0,0.0,0.0,0.0,0.0,0.0,0.0,0.0,0.0,0.0,0.0,0.0,0.0,0.0,0.0,0.0,0.0,0.0,0.0,0.0,0.0,0.0,0.0,0.0,0.0,0.0,0.0,0.0,0.0,0.0,0.0,0.0,0.0,0.0,0.0,0.0,0.0,0.0,0.0,0.0,0.0,0.0,0.0,0.0,0.0,0.0,0.0,0.0,0.0,0.0,0.0,0.0,0.0,0.0,0.0,0.0,0.0,0.0,0.0,0.0,0.0,0.0,0.0,0.0,0.0,0.0,0.0,0.0,0.0,0.0,0.0,0.0,0.0,0.0,0.0,0.0,0.0,0.0,0.0,0.0,0.0,0.0,0.0,0.0,0.0,0.0,0.0,0.0,0.0,0.0,0.0,0.0,0.0,0.0,0.0,0.0,0.0,0.0,0.0,0.0,0.0,0.0,0.0,0.0,0.0,0.0,0.0,0.0,0.0,0.0,0.0,0.0,0.0,0.0,0.0,0.0,0.0,0.0,0.0,0.0,0.0,0.0,0.0,0.0,0.0,0.0,0.0,0.0,0.0,0.0,0.0,0.0,0.0,0.0,0.0,0.0,0.0,0.0,0.0,0.0,0.0,0.0,0.0,0.0,0.0,0.0,0.0,0.0,0.0,0.0,0.0,0.0,0.0,0.0,0.0,0.0,0.0,0.0,0.0,0.0,0.0,0.0,0.0,0.0,-3.0354,0.0,0.0,0.0,0.0,0.0,0.0,0.0,0.0,0.0,0.0,0.0,0.0,0.0,0.0,0.0,0.0,0.0,0.0,0.0,0.0,0.0,0.0,0.0,0.0,0.0,0.0,0.0,0.0,0.0,0.0,0.0,0.0,0.0,0.0,0.0,0.0,0.0,0.0,0.0,-6.207,-6.2641,-6.3397,-6.2776,-6.237,-6.2151,0.0,0.0,0.0,0.0,0.0,0.0,0.0,0.0,0.0,0.0,0.0,0.0,0.0,0.0,0.0,0.0,0.0,0.0,0.0,0.0,0.0,0.0,0.0,0.0,0.0,0.0,0.0,0.0,0.0,0.0,0.0,0.0,0.0,0.0,0.0,0.0,0.0,0.0,0.0,0.0,0.0,0.0,0.0,0.0,0.0,0.0,0.0,0.0,0.0,0.0,0.0,0.0,0.0,0.0,0.0,0.0,0.0,0.0,0.0,0.0,0.0,0.0,0.0,0.0,0.0,0.0,0.0,0.0,0.0,0.0,0.0,-3.0646,0.0,0.0,0.0,0.0,0.0,0.0,0.0,0.0,0.0,0.0,0.0,0.0,0.0,0.0,0.0,0.0,0.0,0.0,0.0,0.0,0.0,0.0,0.0,-6.1314,-6.1297,-6.1314,-6.1297,-6.1352,0.0,0.0,0.0,0.0,0.0,0.0,0.0,-6.1837,-6.1915,-6.1915,-6.2969,-6.3763,-6.4365,-6.4521,-6.4402,-6.4095,-6.3768,0.0,0.0,0.0,0.0,0.0,0.0,0.0,0.0,0.0,0.0,0.0,0.0,0.0,0.0,0.0,0.0,0.0,0.0,0.0,0.0,0.0,0.0,0.0,0.0,0.0,0.0,0.0,0.0,0.0,0.0,0.0,0.0,0.0,0.0,0.0,0.0,0.0,0.0,0.0,0.0,0.0,0.0,0.0,0.0,0.0,0.0,0.0,0.0,0.0,0.0,0.0,0.0,0.0,0.0,0.0,0.0,0.0,0.0,0.0,0.0,0.0,0.0,0.0,-3.023,-3.049,-3.075,-3.0879,-3.1174,-3.1488,-3.1488,-3.1192,-3.0879,-3.1249,0.0,0.0,0.0,0.0,0.0,0.0,0.0,0.0,0.0,0.0,0.0,0.0,0.0,0.0,0.0,0.0,0.0,0.0,0.0,0.0,0.0,-6.1345,-6.1314,-6.1306,-6.1275,-6.1313,-6.1401,0.0,0.0,0.0,0.0,0.0,-6.172,-6.2423,-6.2813,-6.2813,-6.4453,-6.5325,-6.542,-6.6162,-6.6426,-6.6121,-6.4517,-6.3705,-6.3624,0.0,0.0,0.0,0.0,0.0,0.0,0.0,0.0,0.0,0.0,0.0,0.0,0.0,0.0,0.0,0.0,0.0,0.0,0.0,0.0,0.0,0.0,0.0,0.0,0.0,0.0,0.0,0.0,0.0,0.0,0.0,0.0,0.0,0.0,0.0,0.0,0.0,0.0,0.0,0.0,0.0,-3.8166,-3.7911,0.0,0.0,0.0,0.0,0.0,0.0,0.0,0.0,0.0,0.0,0.0,0.0,0.0,-3.0473,-3.029,-3.0065,-2.9822,-2.9822,-2.9822,-3.0083,-3.0508,-3.075,-3.132,-3.1928,-3.1534,0.0,-3.0879,-3.1009,0.0,0.0,0.0,0.0,0.0,0.0,0.0,0.0,0.0,0.0,0.0,0.0,0.0,0.0,0.0,0.0,0.0,0.0,0.0,0.0,0.0,-6.1788,-6.2044,-6.202,-6.2438,-6.274,-6.2851,-6.2889,0.0,0.0,0.0,-6.3164,-6.3164,-6.3555,-6.3984,-6.4453,-6.5238,-6.584,-6.6327,-6.6703,-6.6852,-6.6731,-6.5853,-6.5375,-6.5157,-6.5058,0.0,0.0,0.0,0.0,0.0,0.0,0.0,0.0,0.0,0.0,0.0,0.0,0.0,0.0,0.0,0.0,0.0,0.0,0.0,0.0,0.0,0.0,0.0,0.0,0.0,0.0,0.0,0.0,0.0,0.0,0.0,0.0,0.0,0.0,0.0,0.0,0.0,0.0,0.0,-3.8743,-3.8674,-3.8674,-3.8283,-3.7952,0.0,0.0,0.0,0.0,0.0,0.0,0.0,0.0,0.0,-3.1009,-3.1096,-3.0829,-3.0171,-3.0096,-3.02,-3.02,-3.0333,-3.06,-3.1034,-3.1414,-3.1902,-3.2331,-3.2198,-3.1842,-3.1547,-3.1282,-3.1282,-3.1282,0.0,0.0,0.0,0.0,-3.0901,-3.0884,0.0,0.0,0.0,0.0,0.0,0.0,0.0,0.0,0.0,0.0,0.0,0.0,-6.1562,-6.2305,-6.2775,-6.2775,-6.3413,-6.3881,-6.3998,-6.3989,-6.4083,-6.4278,-6.4306,-6.4297,-6.4297,-6.454,-6.5048,-6.5941,-6.5941,-6.627,-6.6913,-6.6895,-6.6873,-6.6873,-6.6834,-6.6658,-6.6426,-6.632,-6.6195,-6.6051,0.0,0.0,0.0,0.0,0.0,0.0,0.0,0.0,0.0,0.0,0.0,0.0,0.0,0.0,0.0,0.0,0.0,0.0,0.0,0.0,0.0,0.0,0.0,0.0,0.0,0.0,0.0,0.0,0.0,0.0,0.0,0.0,0.0,0.0,0.0,0.0,0.0,-3.922,-3.9108,-3.9131,-3.841,-3.8045,0.0,0.0,0.0,0.0,0.0,0.0,-3.3301,-3.3428,-3.2848,-3.115,-3.1457,-3.1088,-3.0035,-3.0427,-3.0565,-3.0565,-3.1108,-3.1378,-3.1666,-3.207,-3.2393,-3.2753,-3.2618,-3.2538,-3.2358,-3.189,-3.1531,-3.1531,-3.1531,-3.1531,-3.1396,-3.1143,-3.1007,-3.1007,0.0,0.0,0.0,0.0,0.0,0.0,0.0,0.0,0.0,0.0,0.0,-6.189,-6.2025,-6.2776,-6.3274,-6.3274,-6.3574,-6.386,-6.3971,-6.3998,-6.4072,-6.4219,-6.4281,-6.4297,-6.4297,-6.5098,-6.5957,-6.6834,-6.6834,-6.6848,-6.6904,-6.6848,-6.6795,-6.6795,-6.6795,-6.6795,-6.6784,-6.6624,-6.6524,-6.6426,-6.6051,0.0,0.0,0.0,0.0,0.0,0.0,0.0,0.0,0.0,0.0,0.0,0.0,0.0,0.0,0.0,0.0,0.0,0.0,0.0,0.0,0.0,0.0,0.0,0.0,0.0,0.0,0.0,0.0,0.0,0.0,0.0,0.0,0.0,0.0,0.0,0.0,0.0,0.0,-3.8965,-3.9407,0.0,0.0,0.0,0.0,-3.767,-3.6846,-3.5293,-3.3043,-3.3579,-3.2842,-3.0496,-3.0531,-3.0395,-3.0395,-3.0819,-3.0972,-3.0972,-3.1666,-3.207,-3.207,-3.2472,-3.2808,-3.3193,-3.2748,-3.2827,-3.3152,-3.2394,-3.1801,-3.1531,-3.1531,-3.1531,-3.1396,-3.1143,-3.1007,-3.1007,0.0,0.0,0.0,0.0,0.0,0.0,0.0,0.0,-6.0817,-6.0882,-6.1576,-6.2039,-6.2102,-6.329,-6.407,-6.407,-6.4889,-6.5442,-6.5544,-6.5619,-6.5707,-6.5819,-6.5886,-6.5897,-6.5897,-6.6227,-6.6547,-6.6895,-6.6883,-6.6917,-6.6887,-6.6839,-6.6795,-6.6795,-6.6795,-6.6733,-6.6689,-6.6713,-6.6642,-6.6501,-6.6358,-6.5993,0.0,0.0,0.0,0.0,0.0,0.0,0.0,0.0,0.0,0.0,0.0,0.0,0.0,0.0,0.0,0.0,0.0,0.0,0.0,0.0,0.0,0.0,0.0,0.0,0.0,0.0,0.0,0.0,0.0,0.0,0.0,0.0,0.0,0.0,0.0,0.0,0.0,-3.9709,-3.9779,0.0,-3.9802,-3.9584,-3.9265,-3.8663,-3.8608,-3.7838,-3.609,-3.5578,-3.4492,-3.257,-3.1997,-3.1595,-3.1219,-3.1582,-3.1843,-3.2138,-3.257,-3.2845,-3.2845,-3.3239,-3.3468,-3.3596,-3.3459,-3.3393,-3.3242,-3.2972,-3.2414,-3.1843,-3.1722,-3.1583,-3.1583,-3.1444,-3.1444,-3.1305,0.0,0.0,0.0,0.0,0.0,0.0,0.0,0.0,-6.1379,-6.1559,-6.2066,-6.2452,-6.2579,-6.3949,-6.4859,-6.477,-6.5737,-6.6355,-6.6407,-6.6537,-6.6639,-6.6708,-6.675,-6.6795,-6.6795,-6.6805,-6.6813,-6.6856,-6.6883,-6.6873,-6.6873,-6.6772,-6.6778,-6.6795,-6.6674,-6.6642,-6.6689,-6.6713,-6.6624,-6.6426,-6.6413,-6.6161,-6.5765,0.0,0.0,0.0,0.0,0.0,0.0,0.0,0.0,0.0,0.0,0.0,0.0,0.0,0.0,0.0,0.0,0.0,0.0,0.0,0.0,0.0,0.0,0.0,0.0,0.0,0.0,0.0,0.0,0.0,0.0,0.0,0.0,0.0,0.0,0.0,-3.9919,-4.0013,-3.9941,-3.9939,-3.9939,-4.0379,-4.0318,-3.9711,-3.9635,-3.8859,-3.7356,-3.6172,-3.4809,-3.3108,-3.2683,-3.2276,-3.1896,-3.228,-3.2701,-3.2859,-3.326,-3.3472,-3.3739,-3.3879,-3.4092,-3.422,-3.408,-3.3939,-3.3675,-3.3393,-3.295,-3.2489,-3.1945,-3.17,-3.1559,-3.1559,-3.1559,-3.1559,0.0,0.0,0.0,0.0,0.0,0.0,0.0,-6.2477,-6.2352,-6.287,-6.3053,-6.3269,-6.3612,-6.4785,-6.5548,-6.5331,-6.5981,-6.6411,-6.6406,-6.6517,-6.6628,-6.6683,-6.6754,-6.6795,-6.6795,-6.6795,-6.6795,-6.6795,-6.6795,-6.6795,-6.6795,-6.6681,-6.6689,-6.679,-6.6451,-6.6474,-6.679,-6.6672,-6.6516,-6.6338,-6.6244,-6.6089,-6.5897,0.0,0.0,0.0,0.0,0.0,0.0,0.0,0.0,0.0,0.0,0.0,0.0,0.0,0.0,0.0,0.0,0.0,0.0,0.0,0.0,0.0,0.0,0.0,0.0,0.0,0.0,0.0,0.0,0.0,0.0,0.0,0.0,0.0,-4.0595,-4.0153,-3.9825,-3.9848,-4.0029,-4.0066,-4.0066,-4.0548,-4.0846,-4.0724,-3.9588,-3.8103,-3.6314,-3.4911,-3.3632,-3.2228,-3.2123,-3.2281,-3.2719,-3.3157,-3.3314,-3.3314,-3.3714,-3.4055,-3.4422,-3.4422,-3.4642,-3.5027,-3.4595,-3.4451,-3.4306,-3.3599,-3.3308,-3.3221,-3.2454,-3.1876,-3.1593,-3.1593,-3.1593,-3.1593,0.0,0.0,0.0,0.0,0.0,0.0,0.0,-6.3421,-6.3097,-6.3238,-6.3729,-6.4001,-6.3962,-6.4967,-6.5575,-6.5509,-6.6067,-6.6439,-6.645,-6.6603,-6.6703,-6.6752,-6.677,-6.6795,-6.6795,-6.6795,-6.6795,-6.6795,-6.6795,-6.6795,-6.6795,-6.6778,-6.6739,-6.6795,-6.6681,-6.665,-6.6672,-6.7126,-6.7254,-6.7058,-6.6645,-6.6267,-6.5897,0.0,0.0,0.0,0.0,0.0,0.0,0.0,0.0,0.0,0.0,0.0,0.0,0.0,0.0,0.0,0.0,0.0,0.0,0.0,0.0,0.0,0.0,0.0,0.0,0.0,0.0,0.0,0.0,0.0,0.0,0.0,0.0,-4.0851,-4.0597,-4.0217,-4.0117,-4.0485,-4.0525,-4.0617,-4.0617,-4.1076,-4.0978,-3.9803,-3.9474,-3.8654,-3.6817,-3.5472,-3.4302,-3.3762,-3.3232,-3.3109,-3.3552,-3.3964,-3.4269,-3.4554,-3.4697,-3.4752,-3.4862,-3.4862,-3.4917,-3.5027,-3.4595,-3.4306,-3.4035,-3.3454,-3.3145,-3.2818,-3.2595,-3.2509,-3.2381,-3.2381,-3.2381,-3.233,0.0,0.0,0.0,0.0,0.0,0.0,0.0,-6.4393,-6.4039,-6.4205,-6.4407,-6.4501,-6.4488,-6.5279,-6.5769,-6.5755,-6.6167,-6.647,-6.6489,-6.6611,-6.6713,-6.68,-6.6795,-6.6795,-6.6795,-6.6795,-6.6795,-6.6795,-6.6795,-6.6795,-6.6795,-6.6727,-6.6733,-6.6795,-6.6966,-6.7069,-6.7158,-6.7775,-6.7949,-6.7869,-6.7548,-6.7213,-6.6896,-6.6907,-6.6677,-6.6319,-6.5762,-6.5502,-6.531,-6.4555,0.0,0.0,0.0,0.0,0.0,0.0,0.0,0.0,0.0,0.0,0.0,0.0,0.0,0.0,0.0,0.0,0.0,0.0,0.0,0.0,0.0,0.0,0.0,0.0,-4.1345,-4.1022,-4.0953,-4.0624,-4.0479,-4.0778,-4.1007,-4.1145,-4.1145,-4.1057,-4.0845,-4.059,-3.943,-3.8336,-3.753,-3.5935,-3.4818,-3.4416,-3.3964,-3.3947,-3.4394,-3.4612,-3.4883,-3.5027,-3.5027,-3.5119,-3.5284,-3.5284,-3.523,-3.523,-3.4791,-3.4498,-3.4074,-3.3631,-3.3334,0.0,0.0,0.0,0.0,0.0,-3.2689,-3.2655,0.0,0.0,0.0,0.0,0.0,0.0,0.0,-6.5226,-6.5018,-6.5444,-6.5114,-6.4922,-6.5176,-6.5654,-6.6019,-6.6024,-6.6299,-6.6524,-6.6514,-6.6658,-6.6754,-6.68,-6.6795,-6.6795,-6.6795,-6.6795,-6.6795,-6.6795,-6.6795,-6.6795,-6.6795,-6.6689,-6.6728,-6.6934,-6.7285,-6.7665,-6.8032,-6.8548,-6.8777,-6.8756,-6.8812,-6.8651,-6.8317,-6.836,-6.8202,-6.7865,-6.7347,-6.7089,-6.686,-6.6373,0.0,0.0,0.0,0.0,0.0,0.0,0.0,0.0,0.0,0.0,0.0,0.0,0.0,0.0,0.0,0.0,0.0,0.0,0.0,0.0,0.0,0.0,0.0,0.0,-4.1306,-4.1145,-4.1604,-4.1283,-4.0984,-4.0984,-4.125,-4.1399,-4.1399,-4.0533,-4.0409,-4.1617,-3.9122,-3.7605,-3.7702,0.0,0.0,0.0,0.0,-3.4794,-3.51,-3.5137,-3.5174,-3.5174,-3.5174,-3.5339,-3.5687,-3.5687,-3.5723,-3.5605,-3.5157,-3.4875,-3.4441,-3.3988,-3.3837,-3.3768,-3.3083,-3.2809,-3.2809,-3.2809,-3.2809,-3.2809,0.0,0.0,0.0,0.0,0.0,0.0,0.0,-6.6012,-6.5935,-6.6028,-6.5887,-6.5759,-6.5818,-6.5928,-6.6041,-6.6148,-6.6389,-6.653,-6.6635,-6.6742,-6.6795,-6.68,-6.6795,-6.6795,-6.6795,-6.6795,-6.6795,-6.6795,-6.6795,-6.6795,-6.6795,-6.6784,-6.7103,-6.7706,-6.7759,-6.815,-6.8738,-6.9362,-6.9645,-6.9701,-7.0246,-6.959,-6.829,-6.8252,-6.8177,-6.8028,-6.7795,-6.749,-6.7052,-6.6537,-6.6052,-6.557,-6.505,-6.4122,0.0,0.0,0.0,0.0,0.0,0.0,0.0,0.0,0.0,0.0,0.0,0.0,0.0,0.0,0.0,0.0,0.0,0.0,0.0,-4.204,-4.2015,-4.2086,-4.2178,-4.2109,-4.204,-4.204,-4.1069,-4.0471,-4.0471,-3.9576,-3.8626,-3.7678,-3.7114,-3.6406,-3.5594,-3.4954,-3.4721,-3.4883,-3.5194,-3.5358,-3.5504,-3.5815,-3.5981,-3.5981,0.0,0.0,-3.6091,-3.6091,-3.6127,-3.6052,-3.5306,-3.5007,-3.4857,-3.4139,-3.3837,-3.382,-3.3683,-3.3614,-3.3614,-3.3614,-3.3614,-3.3413,0.0,0.0,0.0,0.0,0.0,0.0,0.0,-6.626,-6.626,-6.626,-6.6187,-6.6148,-6.6148,-6.6148,-6.6221,-6.6374,-6.6496,-6.6596,-6.6672,-6.6757,-6.6793,-6.68,-6.6795,-6.6795,-6.6795,-6.6795,-6.6795,-6.6795,-6.6795,-6.6795,-6.6795,-6.6727,-6.7149,-6.7909,-6.8161,-6.8696,-6.944,-7.012,-7.0387,-7.0425,-7.076,-7.0371,-6.9557,-6.9472,-6.9383,-6.926,-6.9158,-6.8887,-6.849,-6.822,-6.7598,-6.7024,-6.6727,-6.5861,-6.4685,0.0,0.0,0.0,0.0,0.0,0.0,0.0,0.0,0.0,0.0,0.0,0.0,0.0,0.0,-4.3383,0.0,0.0,-4.2395,-4.1588,-4.1472,-4.1589,-4.1857,-4.1331,-4.0979,-4.1522,-4.0956,-4.0255,-3.9805,-3.8685,-3.7866,-3.7866,-3.6739,-3.6149,-3.6455,-3.5795,-3.5468,-3.5614,-3.5815,-3.5907,-3.5907,-3.6109,-3.6201,-3.6201,-3.6201,-3.6201,-3.6201,-3.6201,-3.6052,-3.5903,-3.5306,-3.4857,-3.4724,-3.3988,-3.3837,-3.3837,-3.3837,-3.3837,-3.3837,-3.3837,-3.3837,-3.3651,0.0,0.0,0.0,0.0,0.0,0.0,0.0,-6.6377,-6.6392,-6.6392,-6.6322,-6.6322,-6.6377,-6.6353,-6.6387,-6.6583,-6.66,-6.6628,-6.6717,-6.6758,-6.6795,-6.68,-6.6795,-6.6795,-6.6795,-6.6795,-6.6795,-6.6795,-6.6795,-6.6795,-6.6795,-6.6853,-6.7335,-6.8137,-6.8661,-6.9357,-7.0135,-7.0671,-7.0898,-7.0898,-7.0898,-7.0843,-7.0787,-7.0729,-7.0609,-7.0451,-7.0419,-7.0109,-6.9662,-6.9662,-6.9047,-6.8247,-6.8247,-6.7432,-6.6186,-6.4735,-6.3102,0.0,0.0,0.0,0.0,0.0,0.0,0.0,0.0,0.0,-4.5626,-4.486,-4.4487,-4.4111,-4.3482,-4.3252,-4.2601,-4.1507,-4.1176,-4.1063,-4.1612,-4.0277,-3.9467,-4.0124,-4.0152,-3.9833,-3.8979,-3.7566,-3.7344,-3.8467,-3.677,-3.6309,-3.7451,-3.6607,-3.6201,-3.6201,-3.6201,-3.6201,-3.6201,-3.6201,-3.6201,-3.6201,-3.6201,-3.6201,-3.6201,-3.6201,-3.6052,-3.5754,-3.5157,-3.4724,-3.429,-3.3988,-3.3837,-3.3837,-3.3837,-3.3837,-3.3837,-3.3837,-3.3837,-3.3685,0.0,0.0,0.0,0.0,0.0,0.0,0.0,0.0,-6.6652,-6.6652,-6.6491,-6.6478,-6.6641,-6.6496,-6.6447,-6.6582,-6.6616,-6.6628,-6.6717,-6.6711,-6.6754,-6.68,-6.6795,-6.6795,-6.6795,-6.6795,-6.6795,-6.6795,-6.6795,-6.6795,-6.6834,-6.7571,-6.8222,-6.8816,-6.9661,-7.031,-7.0798,-7.086,-7.0898,-7.0898,-7.0898,-7.0843,-7.0787,-7.0787,-7.0708,-7.0554,-7.0451,-6.989,-6.9176,-6.9176,-6.8548,-6.7794,-6.7794,-6.7286,-6.6355,-6.446,-6.2764,-6.1074,-5.9092,-5.7021,-5.5054,-5.3525,-5.1654,-4.9595,0.0,0.0,-4.5614,-4.4689,-4.443,-4.43,-4.3779,-4.3779,-4.3648,-4.3431,-4.2371,-4.159,-4.1655,-4.0277,-3.9024,-3.8264,-3.7806,-3.7588,-3.7507,-3.6455,-3.5832,-3.5977,-3.6054,-3.6146,-3.6442,-3.6331,-3.6201,-3.6201,-3.6201,-3.6201,-3.6201,-3.6201,-3.6201,-3.6201,-3.6201,-3.6201,-3.6201,-3.6201,-3.6201,-3.6052,-3.5306,-3.4574,-3.3837,-3.3837,-3.3837,-3.3837,-3.3837,-3.3837,-3.3837,-3.3837,-3.3837,-3.3534,0.0,0.0,0.0,0.0,0.0,0.0,0.0,0.0,0.0,-6.6759,-6.6693,-6.6644,-6.675,-6.6678,-6.6638,-6.6672,-6.6679,-6.6679,-6.6761,-6.6757,-6.6758,-6.68,-6.6795,-6.6795,-6.6795,-6.6795,-6.6795,-6.6795,-6.6795,-6.679,-6.6823,-6.7462,-6.8136,-6.8816,-6.9469,-7.0157,-7.0843,-7.0843,-7.0871,-7.0898,-7.0898,-7.0843,-7.0787,-7.0787,-7.0609,-7.0319,-7.0179,-6.9702,0.0,-6.878,-6.8247,-6.7633,-6.723,-6.7179,-6.6684,-6.4083,-6.3147,-6.2226,-5.918,-5.6586,0.0,0.0,-5.1258,-4.9281,-4.7922,-4.6958,-4.591,-4.5137,-4.4901,-4.4617,-4.4202,-4.328,-4.2281,0.0,-4.0381,-3.9532,-3.9777,-3.8541,-3.7615,-3.8078,-3.7238,-3.6563,-3.6563,-3.6146,-3.5962,-3.5962,-3.6109,-3.6201,-3.6201,-3.6201,-3.6201,-3.6201,-3.6201,-3.6201,-3.6201,-3.6201,-3.6201,-3.6201,-3.6201,-3.6201,-3.6201,-3.6201,-3.5903,-3.5456,-3.5157,-3.4574,-3.3837,-3.3837,-3.3837,-3.3837,-3.3837,-3.3837,-3.3837,-3.3837,-3.3837,-3.3534,0.0,0.0,0.0,0.0,0.0,0.0,0.0,0.0,0.0,0.0,-6.6798,-6.6805,-6.6817,-6.6795,-6.6777,-6.67,-6.6692,-6.6735,-6.6778,-6.6787,-6.6794,-6.6817,-6.68,-6.679,-6.679,-6.6784,-6.6784,-6.6784,-6.6784,-6.6817,-6.6805,-6.7541,-6.8191,-6.8743,-6.9502,-7.0172,-7.0758,-7.0758,-7.0815,-7.0871,-7.0843,-7.0843,-7.0815,-7.0787,-7.0508,-7.0106,-6.9963,-6.9353,-6.8585,-6.8408,-6.7888,-6.7179,-6.6981,-6.698,-6.6621,-6.3927,-6.2946,-6.21,-5.907,0.0,0.0,-5.3184,-5.1174,-4.9174,-4.8183,-4.7351,-4.6625,-4.5977,-4.5586,-4.5324,-4.4906,-4.3689,-4.243,-4.108,-3.9597,-3.8596,-3.8457,-3.7217,-3.6645,-3.7786,-3.6922,-3.6201,-3.6201,-3.6201,-3.6201,-3.6201,-3.6201,-3.6201,-3.6201,-3.6201,-3.6201,-3.6201,-3.6201,-3.6201,-3.6201,-3.6201,-3.6201,-3.6201,-3.6201,-3.6201,-3.6201,-3.6201,-3.5754,-3.5007,-3.5007,-3.4574,-3.3837,-3.3837,-3.3837,-3.3837,-3.3837,-3.3837,-3.3837,-3.3837,-3.3837,-3.3534,0.0,0.0,0.0,0.0,0.0,0.0,0.0,0.0,0.0,0.0,0.0,0.0,0.0,-6.6795,-6.6777,-6.67,-6.6683,-6.6699,-6.6706,-6.6713,-6.6717,-6.6797,-6.6809,-6.6811,-6.6811,-6.6798,-6.6783,-6.6783,-6.6783,-6.6783,-6.6822,-6.8265,-6.8855,-6.8743,-7.0274,-7.0875,-7.0669,-7.0669,-7.0729,-7.0787,-7.0699,-7.0758,-7.0898,-7.0815,-7.0501,-7.0061,-6.9961,-6.8778,-6.7357,-6.8,-6.7306,-6.6274,-6.7052,-6.6777,-6.5931,-6.4136,-6.1662,-5.9546,-5.8822,0.0,-5.4828,-5.3069,-5.1308,-4.9541,-4.7691,-4.7613,-4.7714,-4.7051,-4.6917,-4.665,-4.5978,-4.5843,-4.5142,-4.3353,-4.1651,-4.0208,-3.8641,-3.7217,-3.6201,-3.6201,-3.6201,-3.6201,0.0,-3.6201,-3.6201,-3.6201,-3.6201,-3.6201,-3.6201,-3.6201,-3.6201,-3.6201,-3.6201,-3.6201,-3.6201,-3.6201,-3.6201,-3.6201,-3.6201,-3.6201,-3.6201,-3.6201,-3.5754,-3.5007,-3.5007,-3.4574,-3.3837,-3.3837,-3.3837,-3.3837,-3.3837,-3.3837,-3.3837,-3.3837,-3.3837,-3.3534,0.0,0.0,0.0,0.0,0.0,0.0,0.0,0.0,0.0,0.0,0.0,0.0,0.0,0.0,0.0,0.0,-6.6683,-6.6683,-6.6688,-6.6696,-6.6742,-6.6795,-6.6811,-6.6791,-6.6791,-6.6783,-6.6783,-6.6783,-6.6783,-6.6775,-6.6759,-6.8093,-6.8684,-6.8682,-6.9986,-7.0601,-7.0616,-7.0616,-7.0678,-7.0699,-7.0737,-7.054,-7.0304,-7.0271,-6.9776,-6.9015,0.0,-6.8453,-6.7891,-6.7782,-6.7374,-6.688,-6.6671,-6.6214,-6.5332,-6.3112,-6.1037,-5.9422,-5.9099,0.0,-5.548,-5.3581,-5.1918,-5.0255,-4.854,-4.8036,-4.7894,-4.7762,-4.7364,-4.6965,-4.6697,-4.5437,-4.4161,-4.347,-4.1063,-3.9076,-3.8516,-3.7217,-3.6201,-3.6201,-3.6201,0.0,0.0,0.0,0.0,-3.6201,-3.6201,-3.6201,-3.6201,-3.6201,-3.6201,-3.6201,-3.6201,-3.6201,-3.6201,-3.6201,-3.6201,-3.6201,-3.6201,-3.6201,-3.6201,-3.6201,-3.5754,-3.5007,-3.5007,-3.4574,-3.3837,-3.3837,-3.3837,-3.3837,-3.3837,-3.3837,-3.3837,-3.3837,-3.3837,-3.3534,0.0,0.0,0.0,0.0,0.0,0.0,0.0,0.0,0.0,0.0,0.0,0.0,0.0,0.0,0.0,0.0,0.0,-6.6611,-6.6594,-6.6627,-6.6642,-6.6705,-6.6702,-6.6683,-6.6683,-6.6602,-6.6613,-6.6732,-6.6673,-6.6673,-6.6732,-6.7997,-6.8605,-6.8657,-6.9855,-7.0451,-7.0522,-7.0522,-7.0483,-7.0413,-7.0381,-7.0141,-6.9739,-6.9664,-6.9143,0.0,-6.8272,-6.8065,-6.78,-6.7475,-6.7094,-6.6721,-6.6505,-6.5671,-6.4432,-6.236,-6.0732,-5.9529,-5.9099,-5.7358,-5.5472,-5.391,-5.2112,-5.0308,-4.9072,-4.8551,-4.842,-4.8289,-4.7918,-4.7521,-4.7232,-4.5843,-4.4573,-4.3863,-4.1347,-3.9365,-3.8787,-3.7364,-3.6349,-3.6201,-3.6201,-3.6201,0.0,0.0,0.0,-3.6201,-3.6201,-3.6201,-3.6201,-3.6201,-3.6201,-3.6201,-3.6201,-3.6201,-3.6201,-3.6201,-3.6201,-3.6201,-3.6201,-3.6201,-3.6201,-3.6201,-3.5754,-3.5007,-3.5007,-3.4574,-3.3837,-3.3837,-3.3837,-3.3837,-3.3837,-3.3837,-3.3837,-3.3837,-3.3837,-3.3685,0.0,0.0,0.0,0.0,0.0,0.0,0.0,0.0,0.0,0.0,0.0,0.0,0.0,0.0,0.0,0.0,0.0,0.0,-6.642,-6.6438,-6.6477,-6.6494,-6.6501,-6.6489,-6.6475,-6.6239,-6.6256,-6.6569,-6.6377,-6.6422,-6.668,-6.7966,-6.858,-6.8635,-6.9826,-7.0386,-7.0348,-7.0348,-7.0141,-6.9815,-6.9778,-6.9508,-6.9231,-6.9021,-6.8622,-6.8161,-6.8092,-6.7599,-6.6918,-6.6989,-6.6484,-6.5865,-6.6492,-6.5293,-6.3514,-6.1859,-6.0732,-5.9773,-5.9021,-5.6907,-5.4887,-5.4176,-5.2015,-4.9976,-4.9332,-4.9072,-4.8942,-4.8706,-4.86,-4.8313,0.0,0.0,-4.6405,-4.4573,-4.2635,-4.082,-3.9326,-3.7786,-3.6664,0.0,0.0,0.0,0.0,0.0,0.0,-3.6201,0.0,-3.6201,-3.6201,-3.6201,-3.6201,-3.6201,-3.6201,-3.6201,-3.6201,-3.6201,-3.6201,-3.6201,-3.6201,-3.6201,-3.6201,-3.6201,-3.5754,-3.5007,-3.5007,-3.4574,-3.3837,-3.3837,-3.3837,-3.3837,-3.3837,-3.3837,-3.3837,-3.3837,-3.3837,-3.3685,0.0,0.0,0.0,0.0,0.0,0.0,0.0,0.0,0.0,0.0,0.0,0.0,0.0,0.0,0.0,0.0,0.0,0.0,-6.6464,-6.65,-6.65,-6.6517,-6.6514,-6.64,-6.6221,-6.6128,-6.609,-6.5992,-6.5951,-6.5972,-6.607,-6.7499,-6.8125,-6.8202,-6.9616,-7.0038,-6.9663,-6.9663,-6.935,-6.8935,-6.8891,-6.8622,-6.8246,-6.8234,-6.7484,-6.6572,-6.7118,-6.6743,-6.611,0.0,0.0,0.0,0.0,-6.4262,-6.3419,-6.1317,-6.0377,-5.988,-5.9422,-5.7804,-5.605,-5.4887,-5.3093,-5.1194,-5.0104,-4.9461,-4.9072,-4.8942,-4.8706,-4.8445,0.0,0.0,0.0,-4.5978,-4.3053,0.0,-4.0371,-3.8078,0.0,-3.6201,0.0,-3.6201,-3.6201,-3.6201,0.0,0.0,-3.6201,-3.6201,-3.6201,-3.6201,-3.6201,-3.6201,-3.6201,-3.6201,-3.6201,-3.6201,-3.6201,-3.6201,-3.6201,-3.6201,-3.6201,-3.6201,-3.5754,-3.5007,-3.5007,-3.4574,-3.3837,-3.3837,-3.3837,-3.3837,-3.3837,-3.3837,-3.3837,-3.3837,-3.3837,-3.3837,0.0,0.0,0.0,0.0,0.0,0.0,0.0,0.0,0.0,0.0,0.0,0.0,0.0,0.0,0.0,0.0,0.0,0.0,0.0,-6.6355,-6.632,-6.6225,-6.6225,-6.6108,-6.5897,-6.5765,-6.5702,-6.5789,-6.5653,-6.5639,-6.582,-6.7318,-6.7859,-6.7706,-6.9165,-6.9546,-6.9058,-6.9058,-6.8758,0.0,0.0,-6.7986,-6.754,-6.714,-6.6569,-6.5939,-6.6286,-6.6346,0.0,0.0,0.0,-6.5855,-6.4262,-6.3514,-6.2778,-6.0763,0.0,-5.988,-5.9422,-5.7804,-5.5964,-5.5122,-5.3093,-5.1194,-5.0359,-4.9719,-4.9332,-4.9332,-4.9202,0.0,-4.8313,0.0,0.0,0.0,0.0,0.0,-4.1063,-3.837,-3.6367,0.0,-3.6201,0.0,-3.6201,-3.6201,-3.6201,0.0,-3.6201,-3.6201,-3.6201,-3.6201,-3.6201,-3.6201,-3.6201,-3.6201,-3.6201,-3.6201,-3.6201,-3.6201,-3.6201,-3.6201,-3.6201,-3.6201,-3.5754,-3.5007,0.0,-3.4574,-3.3837,-3.3837,-3.3837,-3.3837,-3.3837,-3.3837,-3.3837,-3.3837,-3.3837,-3.3837,0.0,0.0,0.0,0.0,0.0,0.0,0.0,0.0,0.0,0.0,0.0,0.0,0.0,0.0,0.0,0.0,0.0,0.0,0.0,0.0,-6.608,-6.5881,-6.5856,-6.5756,-6.5542,-6.5307,-6.5329,-6.5601,-6.537,-6.5388,-6.5702,-6.7208,-6.7674,-6.7265,-6.8714,-6.9058,-6.8576,-6.8483,-6.8185,-6.7768,-6.7768,-6.7486,-6.7004,0.0,-6.5788,-6.5711,-6.56,0.0,0.0,0.0,-6.6148,-6.5114,-6.417,-6.3132,-6.2022,-6.0481,-6.0016,-5.9773,-5.9099,-5.7133,-5.5267,-5.4769,-5.2631,-5.0614,-5.0232,-4.9847,-4.959,-4.959,0.0,-4.9332,-4.8576,-4.7918,-4.7364,-4.654,0.0,-4.1247,-4.0921,-3.8516,-3.6664,-3.6201,-3.6201,-3.6201,-3.6201,-3.6201,-3.6201,-3.6201,-3.6201,-3.6201,-3.6201,-3.6201,-3.6201,-3.6201,-3.6201,-3.6201,-3.6201,-3.6201,-3.6201,-3.6201,-3.6201,-3.6201,-3.6201,-3.6201,-3.5754,-3.5007,-3.5007,0.0,-3.3837,-3.3837,-3.3837,-3.3837,-3.3837,-3.3837,-3.3837,-3.3837,-3.3837,-3.3837,0.0,0.0,0.0,0.0,0.0,0.0,0.0,0.0,0.0,0.0,-6.6663,-6.6543,0.0,0.0,0.0,0.0,0.0,0.0,0.0,0.0,0.0,-6.5881,-6.5731,-6.5542,-6.5276,-6.5213,-6.515,-6.5023,-6.4989,-6.5023,-6.509,-6.6733,-6.746,-6.7426,-6.8628,-6.8833,-6.8331,-6.7959,-6.7469,-6.6983,-6.6983,-6.6925,-6.6786,-6.6012,0.0,0.0,0.0,0.0,0.0,0.0,-6.6148,-6.5114,-6.417,-6.3132,-6.2022,-6.0481,-6.0016,-5.9667,-5.8026,-5.6537,-5.515,-5.3964,-5.2439,-5.0994,-5.0614,-5.0232,0.0,0.0,-4.959,-4.9047,-4.7449,-4.7606,0.0,-4.3747,0.0,0.0,0.0,0.0,-3.6201,0.0,0.0,0.0,0.0,0.0,0.0,0.0,0.0,-3.6201,-3.6201,-3.6201,-3.6201,-3.6201,-3.6201,-3.6201,-3.6201,-3.6201,-3.6201,-3.6201,-3.6201,-3.6201,-3.6201,-3.6201,-3.5754,-3.5007,-3.5007,0.0,-3.3837,-3.3837,-3.3837,-3.3837,-3.3837,-3.3837,-3.3837,-3.3837,-3.3837,-3.3837,0.0,0.0,0.0,0.0,0.0,0.0,0.0,-6.6693,-6.6691,-6.662,-6.6581,-6.65,-6.6422,-6.6334,-6.6263,0.0,0.0,0.0,0.0,0.0,0.0,0.0,0.0,0.0,-6.5057,-6.5057,0.0,0.0,0.0,-6.4888,-6.4926,0.0,-6.7089,-6.6603,-6.8077,-6.8271,-6.7486,-6.7286,-6.704,-6.6786,-6.6786,-6.6572,-6.6172,0.0,0.0,0.0,0.0,0.0,0.0,0.0,-6.4167,-6.3311,-6.3667,-6.2778,-6.1379,-6.0302,-6.0016,-5.9773,-5.8495,-5.6764,-5.5295,-5.4679,-5.278,-5.112,-5.0867,0.0,0.0,0.0,-4.9719,-4.9047,-4.7293,0.0,0.0,0.0,0.0,0.0,0.0,0.0,0.0,0.0,0.0,0.0,0.0,0.0,0.0,0.0,0.0,-3.6201,-3.6201,-3.6201,-3.6201,-3.6201,-3.6201,-3.6201,-3.6201,-3.6201,-3.6201,-3.6201,-3.6201,-3.6201,-3.6201,-3.5903,-3.5605,-3.5306,-3.4875,0.0,-3.4139,-3.3837,-3.3837,-3.3837,-3.3837,-3.3837,-3.3837,-3.3837,-3.3837,-3.3837,0.0,0.0,0.0,0.0,0.0,0.0,0.0,-6.6712,-6.6669,-6.6553,-6.6524,-6.6508,-6.6439,-6.6373,-6.6283,0.0,0.0,0.0,0.0,0.0,0.0,0.0,0.0,0.0,0.0,0.0,0.0,0.0,0.0,0.0,0.0,0.0,0.0,0.0,0.0,-6.77,-6.6961,-6.6845,-6.6786,0.0,0.0,-6.6233,0.0,0.0,0.0,0.0,0.0,0.0,0.0,0.0,-6.2263,-6.1375,-6.2779,-6.2193,-6.069,-6.0197,-6.0016,-5.9773,-5.8991,-5.7133,-5.5295,-5.5032,-5.3025,-5.1246,-5.112,-5.0741,0.0,0.0,-4.9847,-4.9047,-4.6894,0.0,0.0,0.0,0.0,0.0,0.0,0.0,0.0,0.0,0.0,0.0,0.0,0.0,0.0,0.0,0.0,0.0,-3.6201,-3.6201,-3.6201,-3.6201,-3.6201,-3.6201,-3.6201,-3.6201,-3.6201,-3.6201,-3.6201,-3.6201,-3.6201,-3.5903,-3.5605,-3.5456,-3.4875,0.0,0.0,-3.3988,-3.3837,-3.3837,-3.3837,-3.3837,-3.3837,-3.3837,-3.3837,-3.3837,0.0,0.0,0.0,0.0,0.0,0.0,0.0,-6.6712,-6.6691,-6.6581,-6.6553,-6.6439,-6.6316,-6.6264,-6.6205,0.0,0.0,0.0,0.0,0.0,0.0,0.0,0.0,0.0,0.0,0.0,0.0,0.0,0.0,0.0,0.0,0.0,0.0,0.0,0.0,0.0,0.0,-6.7019,0.0,0.0,0.0,0.0,0.0,0.0,0.0,0.0,0.0,0.0,0.0,0.0,0.0,-6.0551,-6.1247,-6.1152,-6.069,-6.0481,0.0,0.0,-5.8246,-5.6651,-5.515,-5.3964,-5.2658,-5.1471,-5.112,0.0,0.0,-5.0257,-5.0129,-4.9047,-4.5908,-4.6201,-4.5368,0.0,0.0,-3.9962,0.0,0.0,0.0,0.0,0.0,0.0,0.0,0.0,0.0,0.0,0.0,0.0,-3.6201,-3.6201,-3.6201,-3.6201,-3.6201,-3.6201,-3.6201,-3.6201,-3.6201,-3.6201,-3.6201,-3.6201,-3.6201,-3.6201,-3.5754,-3.5007,-3.5007,0.0,0.0,-3.3837,-3.3837,-3.3837,-3.3837,-3.3837,-3.3837,-3.3837,-3.3837,-3.3837,0.0,0.0,0.0,0.0,0.0,0.0,-6.6712,-6.6712,-6.668,-6.6528,-6.6384,-6.6224,-6.6084,-6.5928,-6.5881,-6.6036,0.0,0.0,0.0,0.0,0.0,0.0,0.0,0.0,0.0,0.0,0.0,-6.4888,0.0,0.0,0.0,0.0,0.0,0.0,0.0,0.0,0.0,0.0,0.0,0.0,0.0,0.0,0.0,0.0,0.0,0.0,0.0,0.0,0.0,0.0,0.0,0.0,-5.9612,-6.0028,0.0,0.0,-6.0272,-5.9849,-5.8136,-5.6991,-5.5848,-5.3964,-5.2807,-5.2094,-5.1471,0.0,-5.0994,-5.0487,-5.0232,-4.9047,-4.5797,-4.5526,-4.455,-4.0698,-4.0146,0.0,0.0,0.0,0.0,0.0,0.0,0.0,0.0,0.0,0.0,0.0,0.0,0.0,-3.6201,-3.6201,-3.6201,-3.6201,-3.6201,-3.6201,-3.6201,-3.6201,-3.6201,-3.6201,-3.6201,-3.6201,-3.6201,-3.5903,-3.5605,-3.5306,-3.4875,0.0,0.0,-3.3837,-3.3837,-3.3837,-3.3837,-3.3837,-3.3837,-3.3837,-3.3837,-3.3837,0.0,0.0,0.0,0.0,0.0,-6.6712,-6.6712,-6.6712,-6.6618,-6.64,-6.6221,-6.601,-6.5832,-6.5597,-6.5542,-6.5678,-6.5569,0.0,0.0,0.0,0.0,0.0,0.0,0.0,0.0,0.0,-6.4817,-6.467,-6.4367,0.0,0.0,0.0,0.0,0.0,0.0,0.0,0.0,0.0,0.0,0.0,0.0,0.0,0.0,0.0,0.0,0.0,0.0,0.0,0.0,0.0,0.0,0.0,0.0,0.0,0.0,0.0,-6.0481,-6.0061,-5.8466,-5.747,-5.6308,-5.456,-5.3295,-5.2465,0.0,0.0,-5.112,-5.0867,-5.0614,-4.9411,-4.6043,-4.5368,-4.4276,-4.1004,-4.0166,-3.9714,0.0,0.0,0.0,0.0,0.0,0.0,0.0,0.0,0.0,0.0,0.0,0.0,-3.6201,-3.6201,-3.6201,-3.6201,-3.6201,-3.6201,-3.6201,-3.6201,-3.6201,-3.6201,-3.6201,-3.6201,-3.6201,-3.5903,-3.5605,-3.5456,-3.4875,0.0,0.0,-3.3988,-3.3837,-3.3837,-3.3837,-3.3837,-3.3837,-3.3837,-3.3837,-3.3837,0.0,0.0,0.0,0.0,0.0,0.0,-6.6712,-6.6712,-6.6555,-6.6165,-6.6109,-6.5968,-6.5624,-6.5367,-6.5213,-6.5213,-6.5213,0.0,0.0,0.0,0.0,0.0,0.0,0.0,0.0,0.0,-6.467,-6.4209,-6.4209,-6.393,-6.3416,-6.4598,0.0,0.0,0.0,0.0,0.0,0.0,0.0,0.0,0.0,0.0,0.0,0.0,0.0,0.0,0.0,0.0,0.0,0.0,0.0,0.0,0.0,-5.8793,-5.907,0.0,-6.0586,-6.0167,-5.9315,-5.7944,-5.6537,-5.5644,-5.3992,-5.2588,0.0,0.0,-5.1471,-5.112,-5.112,-5.0053,-4.6422,-4.575,-4.4664,-4.141,-4.0596,0.0,0.0,0.0,0.0,0.0,0.0,0.0,0.0,0.0,0.0,0.0,0.0,0.0,-3.6201,-3.6201,-3.6201,-3.6201,-3.6201,-3.6201,-3.6201,-3.6201,-3.6201,-3.6201,-3.6201,-3.6201,-3.6201,-3.6201,-3.5754,0.0,0.0,0.0,0.0,-3.3837,-3.3837,-3.3837,-3.3837,-3.3837,-3.3837,-3.3837,-3.3837,-3.3685,0.0,0.0,0.0,0.0,0.0,0.0,0.0,-6.6377,-6.6185,-6.5925,-6.5765,-6.5628,-6.5367,-6.5123,-6.4989,-6.4989,-6.4989,0.0,0.0,0.0,0.0,0.0,0.0,0.0,0.0,0.0,-6.4328,-6.4209,-6.3498,-6.3084,-6.294,-6.4108,-6.4639,-6.4712,0.0,0.0,0.0,0.0,0.0,0.0,0.0,0.0,0.0,0.0,0.0,0.0,0.0,0.0,0.0,0.0,0.0,0.0,0.0,0.0,0.0,-5.935,-5.9713,0.0,-5.747,-5.6793,-5.6222,-5.3992,-5.3443,-5.3105,-5.2094,0.0,-5.1471,-5.112,-5.0614,-4.9152,-4.6311,-4.5232,-4.3885,-4.1289,-4.074,0.0,0.0,0.0,0.0,0.0,0.0,0.0,0.0,0.0,0.0,0.0,0.0,0.0,-3.6201,-3.6201,-3.6201,-3.6201,-3.6201,-3.6201,-3.6201,-3.6201,-3.6201,-3.6201,-3.6201,-3.6201,-3.6201,-3.5903,-3.5456,0.0,0.0,0.0,0.0,-3.3837,-3.3837,-3.3837,-3.3837,-3.3837,-3.3837,-3.3837,-3.3837,-3.3685,0.0,0.0,0.0,0.0,0.0,0.0,0.0,-6.6187,-6.5986,-6.573,-6.5575,-6.5379,-6.5085,-6.4993,-6.4888,-6.4888,-6.4888,0.0,0.0,0.0,0.0,0.0,0.0,0.0,-6.4633,-6.4328,-6.4009,-6.3631,-6.3036,-6.2595,-6.2464,-6.3766,-6.4396,-6.4468,-6.6098,-6.6668,0.0,0.0,0.0,0.0,0.0,0.0,-6.1561,0.0,0.0,0.0,0.0,0.0,0.0,0.0,0.0,0.0,0.0,0.0,0.0,0.0,-5.7664,-5.744,0.0,-5.6107,-5.5876,-5.3565,-5.3105,0.0,0.0,0.0,-5.1596,-5.1372,-5.0461,-4.9152,-4.6846,-4.5232,-4.3769,-4.1714,-4.1025,0.0,0.0,0.0,0.0,0.0,0.0,0.0,0.0,0.0,0.0,0.0,0.0,0.0,-3.6201,-3.6201,-3.6201,-3.6201,-3.6201,-3.6201,-3.6201,-3.6201,-3.6201,-3.6201,-3.6201,-3.6201,-3.6201,-3.5754,-3.5456,0.0,0.0,0.0,0.0,-3.3837,-3.3837,-3.3837,-3.3837,-3.3837,-3.3837,-3.3837,-3.3837,-3.3685,0.0,0.0,0.0,0.0,0.0,0.0,0.0,-6.6088,-6.592,-6.552,-6.5465,-6.5329,-6.4958,-6.4888,-6.4888,-6.4888,0.0,0.0,0.0,0.0,0.0,0.0,0.0,0.0,-6.4209,-6.4131,-6.3631,-6.2695,-6.2645,-6.2427,-6.2041,-6.3635,-6.4396,-6.4468,-6.6003,-6.6294,-6.5533,-6.4634,-6.3791,-6.3165,-6.2829,-6.1669,0.0,0.0,0.0,0.0,0.0,0.0,0.0,0.0,0.0,0.0,0.0,0.0,0.0,0.0,0.0,0.0,0.0,-5.5644,-5.5412,0.0,0.0,0.0,0.0,0.0,0.0,-5.1596,-5.0715,-4.9386,-4.7773,-4.5908,-4.4045,-4.2278,-4.1452,0.0,0.0,0.0,0.0,0.0,0.0,0.0,0.0,0.0,0.0,0.0,0.0,0.0,-3.6201,-3.6201,-3.6201,-3.6201,-3.6201,-3.6201,-3.6201,-3.6201,-3.6201,-3.6201,-3.6201,-3.6201,-3.6201,-3.5754,-3.5306,0.0,0.0,0.0,0.0,-3.3837,-3.3837,-3.3837,-3.3837,-3.3837,-3.3837,-3.3837,-3.3685,-3.3534,0.0,0.0,0.0,0.0,0.0,0.0,0.0,0.0,0.0,0.0,-6.5283,-6.5226,-6.5027,-6.4924,-6.4888,0.0,0.0,0.0,0.0,0.0,0.0,0.0,0.0,0.0,-6.4209,-6.3453,-6.294,-6.2695,-6.236,-6.2114,-6.2041,-6.3635,-6.4339,-6.4202,-6.5233,-6.5237,-6.4288,-6.3505,-6.3021,-6.2829,-6.2043,-6.1119,0.0,0.0,0.0,0.0,-5.7181,-5.6475,0.0,0.0,0.0,0.0,0.0,0.0,0.0,0.0,-5.4259,-5.3806,-5.3416,0.0,-5.3926,-5.3078,-5.2738,-5.2465,0.0,0.0,0.0,0.0,0.0,0.0,0.0,-4.5661,-4.3814,-4.2278,0.0,0.0,0.0,0.0,0.0,0.0,0.0,0.0,0.0,0.0,0.0,0.0,0.0,-3.6201,-3.6201,-3.6201,-3.6201,-3.6201,-3.6201,-3.6201,-3.6201,-3.6201,-3.6201,-3.6201,-3.6201,-3.6201,-3.6201,-3.5456,-3.5157,0.0,0.0,0.0,-3.3837,-3.3837,-3.3837,-3.3837,-3.3837,-3.3837,-3.3837,-3.3837,-3.3365,-3.2757,0.0,0.0,0.0,0.0,0.0,0.0,0.0,0.0,0.0,0.0,0.0,-6.5161,-6.4989,-6.4993,0.0,0.0,0.0,0.0,0.0,0.0,0.0,0.0,0.0,-6.3846,-6.3846,-6.3094,-6.2595,-6.2412,-6.2132,-6.2005,-6.2041,-6.3579,-6.4036,-6.3657,-6.4031,-6.3865,-6.3358,-6.2523,-6.2167,-6.2088,-6.0986,0.0,0.0,0.0,0.0,0.0,-5.6183,-5.5819,0.0,-5.4815,-5.4819,-5.4923,0.0,0.0,0.0,0.0,-5.2956,-5.2588,-5.2218,-5.2588,-5.2983,-5.2342,-5.2094,-5.2094,-5.1721,0.0,0.0,0.0,0.0,0.0,0.0,0.0,0.0,0.0,0.0,0.0,0.0,0.0,0.0,0.0,0.0,0.0,0.0,0.0,0.0,0.0,0.0,-3.6201,-3.6201,-3.6201,-3.6201,-3.6201,-3.6201,-3.6201,-3.6201,-3.6201,-3.6201,-3.6201,-3.6201,-3.6052,-3.5903,-3.5306,-3.4857,0.0,0.0,0.0,-3.3837,-3.3837,-3.3837,-3.3837,-3.3837,-3.3837,-3.3837,-3.3837,-3.3534,-3.2909,0.0,0.0,0.0,0.0,0.0,0.0,0.0,0.0,0.0,0.0,0.0,0.0,0.0,0.0,0.0,0.0,0.0,0.0,0.0,0.0,0.0,0.0,-6.3766,-6.3325,-6.3325,-6.2843,-6.2412,-6.2005,-6.195,-6.2023,-6.2168,-6.3351,-6.3571,-6.2899,-6.2806,-6.2676,-6.2523,-6.1676,-6.1301,-6.102,-6.0054,0.0,0.0,0.0,0.0,0.0,0.0,0.0,0.0,-5.386,-5.3791,-5.3834,-5.2196,0.0,0.0,0.0,0.0,0.0,-5.1596,-5.197,-5.2218,-5.1721,-5.1596,-5.1596,-5.1596,0.0,0.0,0.0,0.0,0.0,0.0,0.0,0.0,0.0,0.0,0.0,0.0,0.0,0.0,0.0,0.0,0.0,0.0,0.0,0.0,0.0,0.0,-3.6201,-3.6201,-3.6201,-3.6201,-3.6201,-3.6201,-3.6201,-3.6201,-3.6201,-3.6201,-3.6201,-3.6201,-3.6052,-3.5605,-3.5157,-3.4724,-3.4441,0.0,0.0,-3.3837,-3.3837,-3.3837,-3.3837,-3.3837,-3.3837,-3.3837,-3.3837,-3.3685,-3.3382,0.0,0.0,0.0,0.0,0.0,0.0,0.0,0.0,0.0,0.0,0.0,0.0,0.0,0.0,0.0,0.0,0.0,0.0,0.0,0.0,0.0,-6.3593,-6.3094,-6.2843,-6.2843,-6.236,-6.206,-6.2005,-6.1895,-6.2201,-6.2831,-6.2877,-6.2813,-6.2529,-6.2455,-6.1963,-6.1301,-6.1169,-6.0633,-5.9881,-5.9674,0.0,0.0,0.0,0.0,0.0,0.0,0.0,0.0,-5.386,-5.3471,-5.3337,-5.2058,0.0,0.0,0.0,0.0,0.0,-5.1596,-5.1471,-5.1372,-5.1596,-5.1596,-5.1596,-5.1596,-5.1596,0.0,0.0,0.0,0.0,0.0,0.0,0.0,0.0,0.0,0.0,0.0,0.0,0.0,0.0,0.0,0.0,0.0,0.0,0.0,0.0,0.0,-3.6201,-3.6201,-3.6201,-3.6201,-3.6201,-3.6201,-3.6201,-3.6201,-3.6201,-3.6201,-3.6201,-3.6201,-3.6052,-3.5605,-3.5157,-3.4724,-3.4441,0.0,-3.3837,-3.3837,-3.3837,-3.3837,-3.3837,-3.3837,-3.3837,-3.3837,-3.3837,-3.3382,-3.2604,0.0,0.0,0.0,0.0,0.0,0.0,0.0,0.0,0.0,0.0,0.0,0.0,0.0,0.0,0.0,0.0,0.0,0.0,0.0,0.0,-6.2794,-6.2999,-6.2581,-6.2427,-6.2695,-6.2238,-6.2005,-6.2005,-6.2273,-6.2443,-6.232,-6.2048,-6.2105,-6.2402,-6.1917,-6.1465,-6.1035,-6.0548,-5.9968,-5.9499,0.0,0.0,0.0,0.0,0.0,0.0,0.0,0.0,0.0,0.0,-5.2226,-5.1906,-5.0981,0.0,0.0,0.0,0.0,0.0,-5.1596,-5.1471,-5.1346,-5.1372,-5.122,-5.1094,-5.1094,-5.1094,-5.1094,0.0,0.0,0.0,0.0,0.0,0.0,0.0,0.0,0.0,0.0,0.0,0.0,0.0,0.0,0.0,0.0,0.0,0.0,0.0,0.0,0.0,-3.6201,-3.6201,-3.6201,-3.6201,-3.6201,-3.6201,-3.6201,-3.6201,-3.6201,-3.6201,-3.6201,-3.5903,-3.5306,-3.5157,-3.4724,-3.4139,0.0,-3.3837,-3.3837,-3.3837,-3.3837,-3.3837,-3.3837,-3.3837,-3.3837,-3.3837,-3.3078,-3.184,0.0,0.0,0.0,0.0,0.0,0.0,0.0,0.0,0.0,0.0,0.0,0.0,0.0,0.0,0.0,0.0,0.0,0.0,0.0,-6.3345,-6.3079,-6.3079,-6.273,-6.2658,-6.2786,-6.244,-6.2257,-6.2233,-6.2673,-6.246,-6.1616,-6.162,-6.1704,-6.1963,-6.1383,-6.1002,-6.0717,-5.9968,-5.9323,-5.8754,0.0,0.0,0.0,0.0,0.0,0.0,0.0,0.0,0.0,0.0,0.0,0.0,0.0,0.0,0.0,-5.1106,-5.1367,-5.1471,-5.1596,-5.1596,-5.1471,-5.112,-5.0994,-5.0842,-5.0588,-5.0588,-5.0741,0.0,0.0,0.0,0.0,0.0,0.0,0.0,0.0,0.0,0.0,0.0,0.0,0.0,0.0,0.0,0.0,0.0,0.0,0.0,0.0,0.0,-3.6201,-3.6201,-3.6201,-3.6201,-3.6201,-3.6201,-3.6201,-3.6201,-3.6201,-3.6201,-3.6201,-3.5754,-3.5007,-3.5007,-3.4574,-3.3837,-3.3837,-3.3837,-3.3837,-3.3837,-3.3837,-3.3837,-3.3837,-3.3837,-3.3837,-3.3837,-3.2926,-3.1686,0.0,0.0,0.0,0.0,0.0,0.0,0.0,0.0,0.0,0.0,0.0,0.0,0.0,0.0,0.0,0.0,0.0,0.0,0.0,-6.453,-6.4271,-6.4271,-6.4215,-6.3852,-6.3147,-6.3147,-6.3077,-6.2942,-6.2754,-6.2191,-6.1147,-6.1883,-6.185,-6.1169,-6.1119,-6.0548,-5.9707,-5.9587,-5.8483,-5.6831,-5.6638,0.0,0.0,0.0,0.0,0.0,0.0,0.0,0.0,0.0,0.0,0.0,0.0,0.0,-4.9225,-5.0162,-5.0706,-5.1246,-5.1471,-5.1346,-5.112,-5.112,-5.1372,-5.1346,-5.0715,-5.0867,-5.0994,-5.0715,0.0,0.0,0.0,0.0,0.0,0.0,0.0,0.0,0.0,0.0,0.0,0.0,0.0,0.0,0.0,0.0,0.0,0.0,0.0,0.0,-3.6201,-3.6201,-3.6201,-3.6201,-3.6201,-3.6201,-3.6201,-3.6201,-3.6201,-3.6201,-3.6201,-3.5754,-3.5007,-3.5007,-3.4574,-3.3837,-3.3837,-3.3837,-3.3837,-3.3837,-3.3837,-3.3837,-3.3837,-3.3837,-3.3837,-3.3837,-3.3213,-3.2452,0.0,0.0,0.0,0.0,0.0,0.0,0.0,0.0,0.0,0.0,0.0,0.0,0.0,0.0,0.0,0.0,0.0,0.0,0.0,-6.4472,-6.4396,-6.4396,-6.4396,-6.4468,-6.4685,-6.3739,-6.3178,-6.2959,-6.2196,-6.1855,-6.1839,-6.1622,-6.1383,-6.1119,-6.0463,-5.9968,-5.9499,-5.83,-5.7276,-5.6541,-5.6017,-5.5551,0.0,0.0,0.0,0.0,0.0,0.0,0.0,0.0,-4.9133,-4.8341,-4.8257,-4.8608,-4.9025,-4.9713,-5.0404,-5.0842,-5.1246,-5.0994,-5.0867,-5.0994,-5.1246,0.0,0.0,-5.0359,-5.0487,-5.0588,-4.954,0.0,0.0,0.0,0.0,0.0,0.0,0.0,0.0,0.0,0.0,0.0,0.0,0.0,0.0,0.0,0.0,0.0,0.0,0.0,-3.6516,-3.6349,-3.6201,-3.6201,-3.6201,-3.6201,-3.6201,-3.6201,-3.6201,-3.6201,-3.5903,-3.5605,-3.5007,-3.4724,-3.4273,-3.3837,-3.3837,-3.3837,-3.3837,-3.3837,-3.3837,-3.3837,-3.3837,-3.3837,-3.3837,-3.3837,-3.2909,-3.184,0.0,0.0,0.0,0.0,0.0,0.0,0.0,0.0,0.0,0.0,0.0,0.0,0.0,0.0,0.0,0.0,0.0,0.0,-6.5214,-6.5156,-6.5156,-6.5156,-6.4946,-6.5082,-6.5622,-6.4152,-6.3317,-6.3282,-6.1919,-6.1458,-6.1917,-6.1334,-6.0919,-6.0633,-5.9881,-5.9234,-5.8573,-5.7181,-5.6445,-5.6085,-5.5451,-5.5179,0.0,0.0,0.0,0.0,0.0,0.0,0.0,0.0,-4.8353,-4.7519,-4.7692,-4.7962,-4.8523,-4.9209,-4.9771,-5.0257,-5.0816,-5.0715,-5.0614,-5.0867,0.0,0.0,-5.0232,-5.0232,-5.0232,-5.0232,-4.9177,-4.7449,-4.4983,0.0,0.0,0.0,0.0,0.0,0.0,0.0,0.0,0.0,0.0,0.0,0.0,0.0,0.0,0.0,0.0,0.0,0.0,-3.6516,-3.6349,-3.6201,-3.6201,-3.6201,-3.6201,-3.6201,-3.6201,-3.6201,-3.5754,-3.5456,-3.5007,-3.4724,-3.429,-3.3837,-3.3837,-3.3837,-3.3837,-3.3837,-3.3837,-3.3837,-3.3837,-3.3837,-3.3837,-3.3837,-3.3078,-3.2162,0.0,0.0,0.0,0.0,0.0,0.0,0.0,0.0,0.0,0.0,0.0,0.0,0.0,0.0,0.0,0.0,0.0,0.0,-6.6786,-6.6786,-6.6822,-6.6786,-6.611,-6.5697,-6.5697,-6.4253,-6.3608,-6.3831,-6.2009,-6.1119,-6.1119,-6.1119,-6.0548,-5.9587,-5.9587,-5.8483,-5.6638,-5.6638,-5.6017,-5.5179,-5.5179,-5.5179,-5.5179,0.0,0.0,0.0,0.0,0.0,0.0,0.0,-4.7442,-4.7087,-4.69,-4.6945,-4.7255,-4.8154,-4.8835,-4.952,-5.0308,-5.0588,-5.0588,0.0,0.0,0.0,-5.0104,-5.0359,-5.0461,-4.9719,-4.842,-4.6808,-4.4595,0.0,0.0,0.0,0.0,0.0,0.0,0.0,0.0,0.0,0.0,0.0,0.0,0.0,0.0,0.0,0.0,0.0,0.0,-3.6812,-3.6664,-3.6201,-3.6201,-3.6201,-3.6201,-3.6201,-3.6201,-3.6201,-3.5754,-3.5456,-3.5007,-3.5007,-3.4574,-3.3837,-3.3837,-3.3837,-3.3837,-3.3837,-3.3837,-3.3837,-3.3837,-3.3837,-3.3837,-3.3837,-3.3837,-3.3685,0.0,0.0,0.0,0.0,0.0,0.0,0.0,0.0,0.0,0.0,0.0,0.0,0.0,0.0,0.0,0.0,0.0,0.0,-6.6786,-6.6786,-6.6572,-6.6048,-6.5824,-6.5468,-6.4941,-6.3647,-6.2753,-6.2324,-6.1547,-6.1119,-6.1119,-6.0345,-5.9881,-5.9499,-5.8116,-5.7181,-5.6541,-5.5918,-5.5451,-5.5179,-5.5179,-5.5179,-5.5179,0.0,0.0,0.0,0.0,0.0,0.0,0.0,0.0,0.0,-4.6661,-4.6702,-4.7154,-4.7453,-4.8158,-4.9065,-4.9596,-4.9672,0.0,-5.0461,0.0,0.0,0.0,-5.0359,0.0,0.0,-4.7269,-4.5932,-4.4458,0.0,0.0,0.0,0.0,0.0,0.0,0.0,0.0,0.0,0.0,0.0,0.0,0.0,0.0,0.0,0.0,0.0,0.0,-3.696,-3.6664,-3.6201,-3.6201,-3.6201,-3.6201,-3.6201,-3.6201,-3.6201,-3.6052,-3.5754,-3.5456,-3.4875,-3.4441,-3.4139,-3.3988,-3.3837,-3.3837,-3.3837,-3.3837,-3.3837,-3.3837,-3.3837,-3.3837,-3.3837,-3.3382,-3.3061,0.0,0.0,0.0,0.0,0.0,0.0,0.0,0.0,0.0,0.0,-6.4724,-6.5158,0.0,0.0,0.0,0.0,0.0,0.0,0.0,-6.6512,-6.6172,-6.576,-6.5141,-6.4463,-6.3754,-6.2863,-6.2122,-6.1709,-6.1334,-6.1119,-6.1119,-6.0054,-5.9411,-5.8934,-5.7276,-5.6378,-5.6017,-5.5481,-5.5179,-5.5179,-5.5179,-5.5179,-5.5179,0.0,0.0,0.0,0.0,0.0,0.0,0.0,0.0,0.0,-4.6421,-4.6552,-4.6853,-4.6834,-4.7508,-4.8359,-4.8584,-4.8803,0.0,-4.959,-4.9461,-4.9357,-4.959,0.0,0.0,0.0,0.0,0.0,0.0,0.0,0.0,0.0,0.0,0.0,0.0,0.0,0.0,0.0,0.0,0.0,0.0,0.0,0.0,0.0,0.0,0.0,0.0,-3.7421,-3.696,-3.6516,-3.6516,-3.6349,-3.6201,-3.6201,-3.6201,-3.6201,-3.6201,-3.6052,-3.5754,-3.5174,-3.4724,-3.4441,-3.3988,-3.3837,-3.3837,-3.3837,-3.3837,-3.3837,-3.3837,-3.3837,-3.3837,-3.3837,-3.3534,-3.3213,0.0,0.0,0.0,0.0,0.0,0.0,0.0,0.0,0.0,0.0,-6.4159,-6.4705,0.0,0.0,0.0,0.0,0.0,0.0,0.0,-6.611,-6.5661,-6.5597,-6.4183,-6.3083,-6.2381,-6.1951,-6.1709,-6.1709,-6.1334,-6.1119,-6.1119,-5.9968,-5.8934,-5.8085,-5.6991,-5.6017,-5.5179,-5.5179,-5.5179,-5.5179,-5.5179,-5.5179,-5.5179,-5.5179,0.0,0.0,0.0,0.0,0.0,0.0,0.0,0.0,-4.6446,-4.6301,-4.628,-4.6536,-4.6936,-4.7356,-4.7646,0.0,0.0,-4.8576,-4.86,0.0,-4.8942,0.0,0.0,0.0,0.0,0.0,0.0,0.0,0.0,0.0,0.0,0.0,0.0,0.0,0.0,0.0,0.0,0.0,0.0,0.0,0.0,0.0,0.0,0.0,0.0,-3.8009,-3.7568,-3.6812,-3.6812,-3.6664,-3.6201,-3.6201,-3.6201,-3.6201,-3.6201,-3.6201,-3.6201,-3.5754,-3.5174,-3.4441,-3.3988,-3.3837,-3.3837,-3.3837,-3.3837,-3.3837,-3.3837,-3.3837,-3.3837,-3.3837,-3.3837,-3.3837,0.0,0.0,0.0,0.0,0.0,0.0,0.0,0.0,0.0,0.0,0.0,0.0,0.0,0.0,0.0,0.0,0.0,0.0,0.0,-6.611,-6.5403,-6.4873,-6.3422,-6.2537,-6.2381,-6.211,-6.1837,-6.1709,-6.1334,-6.1119,-6.1035,-5.9234,-5.8268,-5.7993,-5.628,-5.5381,-5.5179,-5.5179,-5.5179,-5.5179,-5.5179,-5.5179,-5.5179,-5.5006,-5.3993,0.0,0.0,0.0,0.0,0.0,0.0,0.0,-4.6446,-4.6301,-4.6326,-4.633,-4.6512,-4.6936,-4.7356,-4.7518,0.0,0.0,-4.86,0.0,0.0,0.0,0.0,0.0,0.0,0.0,0.0,0.0,0.0,0.0,0.0,0.0,0.0,0.0,0.0,0.0,0.0,0.0,0.0,0.0,0.0,0.0,0.0,0.0,-3.8009,-3.8009,-3.7568,-3.6812,-3.6812,-3.6664,-3.6201,-3.6201,-3.6201,0.0,-3.6201,-3.6201,-3.6201,-3.5754,-3.5174,-3.4441,-3.3988,-3.3837,-3.3837,-3.3837,-3.3837,-3.3837,-3.3837,-3.3837,-3.3837,-3.3837,-3.3837,-3.3802,0.0,0.0,0.0,0.0,0.0,0.0,0.0,0.0,0.0,0.0,0.0,0.0,0.0,0.0,0.0,0.0,0.0,0.0,0.0,0.0,-6.4669,-6.357,-6.2813,-6.2381,-6.2381,-6.211,-6.1917,-6.1709,-6.0936,-6.043,-6.0345,-5.8844,-5.7807,-5.7276,-5.5819,-5.5179,-5.5179,-5.5179,-5.5179,-5.5179,-5.5179,-5.5179,-5.5179,-5.5078,-5.3623,-5.1509,-5.0961,0.0,0.0,0.0,0.0,0.0,0.0,0.0,-4.6301,-4.6059,-4.6337,-4.6563,-4.6611,0.0,0.0,0.0,0.0,0.0,0.0,0.0,0.0,0.0,0.0,0.0,0.0,0.0,0.0,0.0,0.0,0.0,0.0,0.0,0.0,0.0,0.0,0.0,0.0,0.0,0.0,0.0,0.0,-3.8574,-3.8302,-3.8302,-3.8009,-3.7402,-3.7255,-3.696,-3.6497,-3.6349,-3.6201,-3.6201,-3.6201,-3.6201,-3.6201,-3.5754,-3.5306,-3.4724,-3.429,-3.3988,-3.3837,-3.3837,-3.3837,-3.3837,-3.3837,-3.3837,-3.3837,-3.3837,-3.3734,-3.3546,0.0,0.0,0.0,0.0,0.0,0.0,0.0,0.0,0.0,0.0,0.0,0.0,0.0,0.0,0.0,0.0,0.0,0.0,0.0,0.0,0.0,-6.2459,-6.2381,-6.2381,-6.2381,-6.2189,-6.1837,-6.1432,-6.045,-5.9642,-5.9056,-5.8208,-5.7371,-5.6541,-5.5651,-5.5179,-5.5179,-5.5179,-5.5179,-5.5179,-5.5179,-5.5179,-5.5179,-5.5179,-5.3489,-5.1044,-5.0713,-4.8965,-4.6636,-4.6421,0.0,0.0,0.0,0.0,-4.6301,-4.5939,-4.614,-4.639,-4.5868,0.0,-4.7215,0.0,0.0,0.0,0.0,0.0,0.0,0.0,0.0,0.0,0.0,0.0,0.0,0.0,0.0,0.0,0.0,0.0,0.0,0.0,0.0,0.0,0.0,0.0,0.0,0.0,0.0,-3.8574,-3.8574,-3.8574,-3.8428,-3.8009,-3.7568,-3.7255,-3.6812,-3.6367,-3.6201,-3.6201,-3.6201,-3.6201,-3.6201,-3.5903,-3.5456,-3.5007,-3.4574,-3.4139,-3.3837,-3.3837,-3.3837,-3.3837,-3.3837,-3.3837,-3.3837,-3.3837,-3.3597,-3.3254,0.0,0.0,0.0,0.0,0.0,0.0,0.0,0.0,0.0,0.0,-6.2805,0.0,0.0,0.0,0.0,0.0,0.0,0.0,0.0,0.0,0.0,-6.2459,-6.2381,-6.2381,-6.2381,-6.2381,-6.1756,-6.0384,-6.0214,-5.9049,-5.7022,-5.6831,-5.6735,-5.6541,-5.5651,-5.5179,-5.5179,-5.5179,-5.5179,-5.5179,-5.5179,-5.5179,-5.5179,-5.4905,-5.3993,-5.2509,-5.0961,-4.9422,-4.7977,-4.6755,-4.6301,0.0,0.0,0.0,-4.6301,-4.6301,-4.6109,-4.6041,0.0,0.0,0.0,0.0,0.0,0.0,0.0,0.0,0.0,0.0,0.0,0.0,0.0,0.0,0.0,0.0,0.0,0.0,0.0,0.0,0.0,0.0,0.0,0.0,0.0,0.0,0.0,0.0,-3.8574,-3.8574,-3.8574,-3.8574,-3.8428,-3.8009,-3.7568,-3.7255,-3.6812,-3.6367,-3.6201,-3.6201,-3.6201,-3.6201,-3.6201,-3.6201,-3.5903,-3.5456,-3.4724,-3.4441,-3.429,-3.3988,-3.3837,-3.3837,-3.3837,-3.3837,-3.3837,-3.3837,-3.3597,-3.322,0.0,0.0,0.0,0.0,0.0,0.0,0.0,0.0,0.0,0.0,0.0,-6.2805,0.0,0.0,0.0,0.0,0.0,0.0,0.0,0.0,0.0,-6.2381,-6.2381,-6.2381,-6.2381,-6.187,-6.1152,-6.0214,-5.9137,-5.79,-5.6541,-5.6085,-5.5819,-5.5819,-5.5381,-5.5179,-5.5179,-5.5179,-5.5179,-5.5179,-5.5179,-5.5179,-5.5209,-5.5078,-5.42,-5.2857,-5.1291,-4.9874,-4.83,-4.6993,-4.6446,-4.6301,-4.6301,0.0,0.0,0.0,-4.618,0.0,-4.6242,0.0,0.0,0.0,0.0,0.0,0.0,0.0,0.0,0.0,0.0,0.0,0.0,0.0,0.0,0.0,0.0,0.0,0.0,0.0,0.0,0.0,0.0,0.0,0.0,0.0,0.0,0.0,-3.8574,-3.8574,-3.8574,-3.8574,-3.8574,-3.8302,-3.7715,-3.7255,-3.7107,-3.6497,-3.6201,-3.6201,-3.6201,-3.6201,-3.6201,-3.6201,-3.5903,-3.5306,-3.4875,-3.4423,-3.3988,-3.3837,-3.3837,-3.3837,-3.3837,-3.3837,-3.382,-3.3597,-3.3272,-3.2731,0.0,0.0,0.0,0.0,0.0,0.0,0.0,0.0,0.0,0.0,0.0,0.0,0.0,0.0,0.0,0.0,0.0,0.0,0.0,0.0,0.0,-6.2381,-6.2381,-6.2381,-6.2381,-6.1399,-6.0534,-5.9838,-5.8177,-5.6927,-5.6183,-5.5551,-5.5179,-5.5179,-5.5179,-5.5179,-5.5179,-5.5179,-5.5179,-5.5179,-5.5179,-5.5179,-5.5179,-5.5179,-5.4509,-5.3413,-5.2079,-5.0629,0.0,0.0,0.0,0.0,0.0,0.0,0.0,0.0,0.0,0.0,0.0,0.0,0.0,0.0,0.0,0.0,0.0,0.0,0.0,0.0,0.0,0.0,0.0,0.0,0.0,0.0,0.0,0.0,0.0,0.0,0.0,0.0,0.0,0.0,0.0,0.0,0.0,0.0,-3.8574,-3.8574,-3.8574,-3.8574,-3.8574,-3.8574,-3.7843,-3.7421,-3.7421,-3.6664,-3.6201,-3.6201,-3.6201,-3.6201,-3.6201,-3.6201,-3.5754,-3.5007,-3.5007,-3.4574,-3.3988,-3.3837,-3.3837,-3.3837,-3.3837,-3.3785,-3.3665,-3.3374,-3.2816,-3.2064,0.0,0.0,0.0,0.0,0.0,0.0,0.0,0.0,0.0,0.0,0.0,0.0,-6.2805,-6.3365,-6.3752,-6.3693,-6.3688,0.0,0.0,0.0,0.0,-6.2381,-6.2381,0.0,-6.2381,-6.1235,-6.0075,-5.8902,-5.7621,-5.6445,-5.528,-5.5179,-5.5179,-5.5179,-5.5179,-5.5179,-5.5179,-5.5179,-5.5179,-5.5179,-5.5179,-5.5179,-5.5179,-5.5179,-5.5179,-5.4845,-5.3413,0.0,0.0,0.0,0.0,0.0,0.0,0.0,0.0,0.0,0.0,0.0,0.0,0.0,0.0,0.0,0.0,0.0,0.0,0.0,0.0,0.0,0.0,0.0,0.0,0.0,0.0,0.0,0.0,0.0,0.0,0.0,0.0,0.0,0.0,0.0,0.0,0.0,0.0,0.0,-3.8574,-3.8574,-3.8574,-3.8574,-3.8574,-3.8574,-3.7843,-3.7421,-3.7421,-3.6664,-3.6201,-3.6201,-3.6201,-3.6201,-3.6201,-3.6201,-3.5754,-3.5007,-3.5007,-3.4724,-3.429,-3.3988,-3.3837,-3.3837,-3.3837,-3.3614,-3.3306,-3.3272,-3.2351,-3.1131,0.0,0.0,0.0,0.0,0.0,0.0,0.0,0.0,0.0,0.0,0.0,0.0,0.0,-6.3802,-6.3849,-6.3788,-6.3202,0.0,0.0,0.0,0.0,-6.2381,-6.2381,-6.2381,-6.2381,-6.0619,-5.9379,-5.8812,-5.7022,-5.5849,-5.5179,-5.5179,-5.5179,-5.5179,-5.5179,-5.5179,-5.5179,-5.5179,-5.5179,-5.5179,-5.5179,-5.5179,-5.5179,-5.5179,0.0,0.0,0.0,0.0,0.0,0.0,0.0,0.0,0.0,0.0,0.0,0.0,0.0,0.0,0.0,0.0,0.0,0.0,0.0,0.0,0.0,0.0,0.0,0.0,0.0,0.0,0.0,0.0,0.0,0.0,0.0,0.0,0.0,0.0,0.0,0.0,0.0,0.0,0.0,0.0,0.0,0.0,0.0,-3.8574,-3.8574,-3.8574,-3.8574,-3.8574,-3.7843,-3.7107,-3.6664,-3.6349,-3.6201,-3.6201,-3.6201,-3.6201,-3.6201,-3.6201,-3.5754,-3.5007,-3.5007,-3.4574,-3.3988,-3.3837,-3.3837,-3.3837,-3.3837,-3.3614,-3.3237,-3.2981,-3.2132,-3.0937,0.0,0.0,0.0,0.0,0.0,0.0,0.0,0.0,0.0,-6.3002,0.0,0.0,0.0,0.0,-6.3538,-6.3448,-6.2775,-6.2381,-6.2381,-6.2381,-6.2381,-6.2381,-6.2381,-6.2223,-6.1951,-5.9932,-5.8678,-5.8451,-5.6357,-5.527,-5.528,-5.5179,-5.5179,-5.5179,-5.5179,-5.5179,-5.5179,-5.5179,-5.5179,-5.5179,0.0,0.0,-5.5179,0.0,0.0,0.0,0.0,0.0,0.0,0.0,0.0,0.0,0.0,0.0,0.0,0.0,0.0,0.0,-4.6059,0.0,0.0,0.0,0.0,0.0,0.0,0.0,0.0,0.0,0.0,0.0,0.0,0.0,0.0,0.0,0.0,0.0,0.0,0.0,0.0,0.0,0.0,0.0,0.0,0.0,0.0,0.0,0.0,0.0,-3.8574,-3.8574,-3.8428,-3.8136,-3.7696,-3.696,-3.6201,-3.6201,-3.6201,-3.6201,-3.6201,-3.6201,-3.6201,-3.6201,-3.5754,-3.5007,-3.5007,-3.4574,-3.3837,-3.3837,-3.3837,-3.382,-3.37,-3.3409,-3.3032,-3.2346,-3.1393,-3.0323,0.0,0.0,0.0,0.0,0.0,0.0,0.0,0.0,-6.3147,-6.3002,0.0,0.0,0.0,0.0,0.0,-6.2711,-6.2537,-6.2381,-6.2381,-6.2381,-6.2381,-6.2381,0.0,0.0,-6.0986,-5.9166,-5.8083,-5.7777,-5.5669,-5.4948,-5.5581,-5.528,-5.5179,-5.5179,-5.5179,-5.5179,-5.5179,0.0,-5.5179,-5.5179,0.0,-5.5209,-5.5179,0.0,0.0,0.0,-5.5179,-5.4406,0.0,-5.3069,0.0,0.0,0.0,0.0,0.0,0.0,0.0,0.0,0.0,0.0,0.0,0.0,0.0,0.0,0.0,0.0,0.0,0.0,0.0,0.0,0.0,0.0,0.0,0.0,0.0,0.0,0.0,0.0,0.0,0.0,0.0,0.0,0.0,0.0,0.0,0.0,-3.8574,-3.8574,-3.8574,-3.8574,-3.8282,-3.7421,-3.7421,-3.696,-3.6201,-3.6201,-3.6201,-3.6201,-3.6201,-3.6201,-3.6201,-3.6201,-3.5754,-3.5007,-3.5007,-3.4556,-3.382,-3.3837,-3.3837,-3.3785,-3.3409,-3.3032,-3.2621,-3.1393,-3.0307,-2.9154,0.0,0.0,0.0,0.0,0.0,0.0,-6.3557,-6.3373,-6.3194,0.0,0.0,0.0,-6.3872,-6.3875,-6.3624,-6.2966,-6.2693,-6.2537,-6.2381,-6.2381,-6.2381,-6.2381,-6.2381,-6.1951,-6.0986,-5.9654,-5.8563,-5.7777,-5.6322,-5.5599,-5.5581,-5.5481,-5.5381,-5.5179,-5.5179,-5.5179,-5.5179,-5.5179,0.0,-5.5179,-5.5179,-5.5108,0.0,0.0,0.0,0.0,0.0,-5.4773,-5.4539,0.0,-5.2857,-5.1972,0.0,0.0,0.0,0.0,0.0,0.0,-4.6301,0.0,0.0,0.0,0.0,0.0,0.0,0.0,0.0,0.0,0.0,0.0,0.0,0.0,0.0,0.0,0.0,0.0,0.0,0.0,0.0,0.0,0.0,0.0,0.0,0.0,0.0,0.0,-3.8574,-3.8574,-3.8574,-3.8282,-3.7862,-3.7421,-3.7107,-3.6664,-3.6201,-3.6201,-3.6201,-3.6201,-3.6201,-3.6201,-3.6201,-3.5903,-3.5456,-3.5007,-3.4724,-3.4134,-3.3443,-3.3734,-3.3683,-3.3426,-3.3306,-3.2861,-3.2134,-3.1293,-3.0307,-2.9154,0.0,0.0,0.0,0.0,0.0,-6.3602,-6.3602,-6.3419,-6.339,0.0,0.0,0.0,-6.3872,-6.3863,-6.3677,-6.3152,-6.2847,-6.2615,-6.2537,-6.2459,-6.2381,-6.2381,-6.2381,-6.179,-6.045,-5.9469,-5.8409,-5.7338,-5.623,-5.5675,-5.578,-5.5681,-5.5481,-5.5179,-5.5179,-5.5179,-5.5179,0.0,0.0,0.0,-5.5108,0.0,0.0,-5.4671,-5.4671,0.0,0.0,0.0,-5.5078,-5.4406,-5.3174,0.0,0.0,0.0,0.0,0.0,0.0,0.0,0.0,0.0,0.0,0.0,0.0,0.0,-4.5696,-4.338,0.0,0.0,0.0,0.0,0.0,0.0,0.0,0.0,0.0,0.0,0.0,0.0,0.0,0.0,0.0,0.0,0.0,-3.8476,-3.8574,-3.8574,-3.8574,-3.8574,-3.8574,-3.8155,-3.7862,-3.7402,-3.696,-3.6664,-3.6201,-3.6201,-3.6201,-3.6201,-3.6201,-3.6201,-3.6201,-3.5591,-3.5222,-3.4776,-3.4171,-3.3534,-3.3049,-3.3272,-3.322,-3.3015,-3.2861,-3.2518,-3.1963,-3.0805,-2.9905,-2.9154,0.0,0.0,0.0,-6.3602,-6.3602,-6.3602,-6.3602,-6.3585,-6.3743,0.0,-6.3779,-6.3392,-6.3474,-6.3442,-6.3302,-6.3302,-6.2923,-6.2804,-6.2693,-6.2537,-6.2381,-6.2381,-6.2381,-6.1595,-5.9762,-5.9145,-5.8268,-5.6954,-5.6019,-5.573,-5.6077,-5.578,-5.5481,-5.5179,-5.5179,0.0,0.0,0.0,0.0,-5.5179,-5.4905,-5.4803,0.0,0.0,-5.4436,0.0,-5.47,-5.4875,-5.5078,-5.5179,-5.3279,0.0,0.0,0.0,0.0,0.0,-4.6301,0.0,0.0,0.0,0.0,0.0,0.0,0.0,-4.5331,-4.313,-4.1075,0.0,0.0,0.0,0.0,0.0,0.0,0.0,0.0,0.0,0.0,0.0,0.0,0.0,0.0,0.0,-3.7851,-3.8203,-3.8437,-3.8437,-3.8437,-3.8437,-3.8437,-3.8001,-3.7582,-3.727,-3.6829,-3.6368,-3.6072,-3.6072,-3.6072,-3.6072,-3.6072,-3.6072,-3.6072,-3.5283,-3.4827,-3.4368,-3.3559,-3.2947,-3.2621,-3.2621,-3.2621,-3.2587,-3.2261,-3.1963,-3.1735,-2.9984,-2.9266,-2.8947,0.0,0.0,-6.3602,-6.3602,-6.3602,-6.3602,-6.3602,-6.4067,-6.4372,-6.4376,-6.4255,-6.4215,-6.4353,-6.3863,-6.3452,-6.3302,-6.3227,-6.3,-6.2693,-6.2615,-6.2537,-6.2381,-6.2381,-6.187,-6.0736,-6.0604,-5.9719,-5.7933,-5.7683,-5.715,-5.6274,-5.6077,-5.578,-5.5481,-5.528,-5.5179,0.0,0.0,0.0,-5.5179,-5.4905,0.0,-5.4333,-5.4126,-5.4023,-5.4126,-5.4126,-5.423,-5.4539,-5.4773,-5.386,-5.2295,0.0,0.0,0.0,0.0,0.0,0.0,0.0,0.0,0.0,0.0,0.0,0.0,-4.4767,-4.3232,-4.1565,0.0,0.0,0.0,0.0,0.0,0.0,0.0,0.0,0.0,0.0,0.0,0.0,0.0,0.0,0.0,-3.7422,-3.75,-3.7539,-3.7539,-3.7539,-3.7539,-3.7539,-3.697,-3.6542,-3.6399,-3.568,-3.5265,-3.5265,-3.5265,-3.5265,-3.5265,-3.5265,-3.5265,-3.5265,-3.4468,-3.4141,-3.3996,-3.3162,-3.2664,-3.2244,-3.2244,-3.2244,-3.2227,-3.2159,-3.1507,-3.065,-3.0299,-2.9234,-2.7875,0.0,-6.3602,-6.3602,-6.3602,-6.3602,-6.375,-6.4159,-6.4485,-6.4768,-6.5059,-6.4759,-6.4415,-6.4112,-6.3785,-6.36,-6.3452,-6.3377,-6.3152,-6.2847,-6.277,-6.2615,-6.2381,-6.2381,-6.1951,-6.0986,-6.0567,-5.9587,-5.8211,-5.7746,-5.7115,-5.6372,-5.6274,-5.5979,-5.5581,-5.5481,-5.528,0.0,0.0,-5.5179,-5.5179,-5.4905,0.0,-5.4304,-5.3993,-5.3919,-5.3919,-5.3919,-5.4097,-5.4304,-5.4671,-5.3547,0.0,0.0,-4.9422,-4.756,0.0,-4.6446,-4.6301,0.0,0.0,0.0,-4.6301,0.0,0.0,0.0,-4.2958,-4.1437,0.0,0.0,0.0,0.0,0.0,0.0,0.0,0.0,0.0,0.0,0.0,0.0,0.0,0.0,0.0,-3.6992,-3.7168,-3.7164,-3.7003,-3.7003,-3.6862,-3.672,-3.6152,-3.5867,-3.5867,-3.5314,-3.5027,-3.5027,-3.5027,-3.5027,-3.5027,-3.5027,-3.4917,-3.4715,-3.3803,-3.318,-3.2985,-3.1928,-3.1456,-3.1285,-3.1285,-3.1285,-3.1302,-3.1508,-3.0915,-2.9864,-2.9444,-2.8506,-2.7412,-6.3862,0.0,-6.3825,-6.3825,-6.3973,-6.4308,-6.4976,-6.5199,-6.5471,-6.5971,-6.526,-6.4498,-6.3858,-6.3639,-6.36,-6.36,-6.3452,-6.3302,-6.3076,-6.2923,-6.2693,-6.2459,-6.2459,-6.211,-6.1268,-6.0567,-5.9587,-5.8455,-5.7746,-5.7019,-5.647,-5.647,-5.6176,-5.578,-5.5681,-5.5481,0.0,0.0,0.0,-5.5179,0.0,-5.4671,-5.4304,-5.4023,-5.3919,-5.3919,-5.3815,-5.3993,-5.4304,-5.4568,-5.3126,-5.1237,-5.1209,-4.9335,0.0,0.0,0.0,0.0,0.0,0.0,0.0,0.0,0.0,-4.5793,0.0,0.0,0.0,0.0,0.0,0.0,0.0,0.0,0.0,0.0,0.0,0.0,0.0,0.0,0.0,0.0,0.0,0.0,0.0,-3.6855,-3.6911,-3.647,-3.647,-3.6329,-3.5925,-3.5623,-3.5339,-3.5339,-3.4931,-3.4752,-3.4678,-3.4678,-3.4642,-3.4568,-3.4568,-3.4385,-3.4037,-3.3013,-3.2276,-3.1974,-3.0839,-3.0429,-3.0429,-3.0429,-3.0395,-3.0361,-3.0754,-3.0153,-2.9061,-2.8648,-2.7818,-2.6888,-6.4828,-6.4679,0.0,-6.4679,-6.5311,-6.5868,-6.5942,-6.6574,-6.6988,-6.6957,-6.5904,-6.4976,-6.4532,0.0,0.0,0.0,0.0,0.0,-6.3302,0.0,-6.3076,-6.2693,-6.2649,-6.2537,-6.2223,-6.2144,-6.1235,-5.9411,-5.9323,-5.8455,-5.6761,-5.647,-5.6372,-5.6274,-5.578,0.0,0.0,0.0,-5.5179,0.0,-5.5179,-5.4976,0.0,-5.4126,-5.3919,-5.3919,-5.3605,-5.371,-5.3993,0.0,-5.3652,-5.2566,0.0,-5.0099,-4.8558,0.0,0.0,0.0,0.0,0.0,0.0,0.0,-4.6301,0.0,0.0,0.0,0.0,0.0,0.0,0.0,0.0,0.0,0.0,0.0,0.0,0.0,0.0,0.0,0.0,0.0,0.0,0.0,0.0,-3.6133,-3.6035,-3.5624,-3.5624,-3.5486,-3.5054,-3.4778,-3.4519,-3.4519,-3.4084,-3.378,-3.3431,-3.3431,-3.3248,-3.2863,-3.2863,-3.2845,-3.2808,-3.1944,-3.1637,-3.1449,-3.0718,-3.0429,-3.0429,-3.0429,-3.0241,-3.0001,-3.0361,-2.9643,-2.8355,-2.9061,-2.7956,-2.6158,-6.5719,-6.5571,0.0,0.0,-6.5868,-6.6277,-6.6722,-6.6846,-6.6811,-6.6496,-6.5332,-6.4463,0.0,0.0,0.0,0.0,0.0,-6.3526,0.0,0.0,-6.3357,-6.3538,-6.3008,0.0,-6.3182,-6.2152,-6.0903,-5.9587,-5.9088,-5.8119,-5.6761,-5.6664,-5.6567,-5.6372,-5.5979,0.0,-5.5581,0.0,0.0,0.0,0.0,0.0,0.0,-5.4333,-5.389,-5.3605,-5.35,-5.3605,-5.3605,0.0,-5.2487,0.0,0.0,0.0,0.0,0.0,0.0,0.0,0.0,0.0,0.0,0.0,0.0,0.0,-4.2855,0.0,-4.1052,0.0,0.0,0.0,0.0,0.0,0.0,0.0,0.0,0.0,0.0,0.0,0.0,0.0,0.0,0.0,0.0,0.0,0.0,0.0,-3.5059,-3.4921,-3.4232,-3.3872,-3.3742,-3.3742,-3.3366,-3.3028,-3.2863,-3.2863,-3.2771,-3.2588,-3.2588,-3.2344,-3.1993,-3.1461,-3.0919,-3.0443,-3.0044,-2.9778,-2.9778,-2.9778,-2.9693,-2.959,-2.9429,-2.9022,-2.8598,-2.8478,-2.7661,-2.6748,-6.6871,0.0,0.0,0.0,0.0,-6.6945,-6.754,-6.712,-6.6664,0.0,0.0,0.0,-6.4074,-6.3785,0.0,0.0,-6.36,-6.3526,0.0,0.0,-6.3748,0.0,0.0,0.0,0.0,-6.2226,-6.1102,-5.9935,-5.9088,-5.8119,-5.7211,-5.6954,-5.6664,-5.647,0.0,-5.5979,-5.5681,0.0,0.0,-5.5179,-5.5179,-5.5209,-5.4976,-5.4539,-5.3993,-5.3605,-5.353,-5.35,-5.3395,-5.2808,-5.1731,0.0,-4.9788,0.0,0.0,0.0,0.0,0.0,-4.6301,0.0,0.0,0.0,0.0,0.0,0.0,0.0,0.0,0.0,0.0,0.0,0.0,0.0,0.0,0.0,0.0,0.0,0.0,0.0,0.0,0.0,0.0,0.0,0.0,0.0,0.0,0.0,0.0,-3.4209,-3.3651,-3.3266,-3.3046,-3.3046,-3.2753,-3.2551,-3.2441,-3.2441,-3.2368,-3.2258,-3.2125,-3.1847,-3.1443,-3.0918,-3.0346,-2.9952,-2.9447,-2.9316,-2.9316,-2.9436,-2.947,-2.9372,-2.9211,-2.9277,-2.9207,-2.8036,-2.7262,-2.7024,-6.8431,-6.78,0.0,0.0,0.0,0.0,0.0,0.0,0.0,0.0,0.0,0.0,0.0,0.0,0.0,0.0,0.0,-6.36,-6.36,0.0,-6.4209,0.0,0.0,-6.4268,0.0,0.0,0.0,-6.0986,-6.0022,-5.9088,-5.8119,-5.7211,-5.6761,-5.6761,-5.647,-5.6274,-5.5979,-5.5681,-5.5481,-5.5179,-5.5179,-5.5078,-5.4803,0.0,-5.4097,-5.3815,-5.3605,0.0,0.0,-5.3815,-5.2272,0.0,0.0,0.0,0.0,0.0,0.0,0.0,0.0,0.0,0.0,-4.6301,0.0,0.0,0.0,0.0,-4.1158,0.0,0.0,0.0,0.0,0.0,0.0,0.0,0.0,0.0,0.0,0.0,0.0,0.0,0.0,0.0,0.0,0.0,0.0,0.0,0.0,0.0,-3.323,-3.2845,-3.2625,-3.2625,-3.2606,-3.2404,-3.2019,-3.2019,-3.1818,-3.1414,-3.1174,-3.1156,-3.1396,-3.0361,-3.01,-3.0378,-2.9578,-2.9316,-2.9333,-2.9727,-2.9881,-2.9915,-3.0275,-3.0652,-3.0649,-2.8066,-2.6899,-2.6486,0.0,0.0,0.0,0.0,0.0,0.0,0.0,-6.7736,0.0,0.0,0.0,0.0,0.0,0.0,-6.36,0.0,0.0,-6.36,-6.36,-6.4289,0.0,0.0,0.0,-6.4585,0.0,0.0,0.0,0.0,-6.0022,-5.9088,-5.8211,-5.7211,-5.6761,-5.6761,0.0,-5.6274,0.0,0.0,0.0,0.0,0.0,-5.5209,-5.4976,0.0,0.0,-5.4097,-5.3919,-5.3815,0.0,-5.2701,-5.1484,-5.0293,-4.9335,-4.8003,-4.6806,-4.6541,-4.6446,0.0,0.0,0.0,-4.6301,-4.6301,0.0,0.0,0.0,0.0,0.0,0.0,0.0,0.0,0.0,0.0,0.0,0.0,0.0,0.0,0.0,0.0,0.0,0.0,0.0,0.0,0.0,0.0,0.0,0.0,0.0,0.0,0.0,-3.2423,-3.2203,-3.2203,-3.1928,-3.1726,-3.1598,-3.1338,-3.1135,-3.1138,-3.075,-3.049,-3.0343,-2.9952,-2.9691,-2.9726,-2.9722,-2.9693,-2.9727,-3.0087,-3.0258,-3.0292,-3.0119,-2.9781,-2.9304,-2.8474,-2.8239,-2.8264,-6.8506,0.0,0.0,0.0,0.0,0.0,0.0,0.0,0.0,0.0,-6.5533,0.0,-6.393,0.0,-6.36,0.0,-6.36,-6.3703,-6.3979,-6.4427,0.0,-6.4401,-6.4889,0.0,0.0,0.0,0.0,0.0,0.0,-5.9234,-5.8637,-5.7401,-5.6761,-5.6761,0.0,-5.6372,-5.5979,0.0,-5.5481,0.0,0.0,-5.5179,0.0,0.0,-5.4773,-5.4436,0.0,-5.3919,-5.3681,-5.2701,-5.1375,-5.0041,-4.8992,-4.7769,-4.6566,-4.6301,-4.6301,-4.6301,-4.6301,-4.6301,0.0,-4.6301,-4.6301,0.0,-4.5159,0.0,0.0,0.0,0.0,0.0,0.0,0.0,0.0,0.0,0.0,0.0,0.0,-3.5743,0.0,0.0,0.0,0.0,0.0,0.0,0.0,0.0,0.0,0.0,0.0,0.0,-3.1781,-3.1781,-3.1524,-3.1377,-3.1249,-3.1009,-3.0879,-3.075,-3.0361,-3.01,-2.9952,-2.983,-2.9768,-2.9671,-2.9915,-3.0087,-3.0121,-3.048,-3.0635,-3.0532,-3.021,-2.978,-2.9216,-2.8648,-2.852,-2.8289,0.0,0.0,0.0,0.0,-6.8457,0.0,0.0,0.0,-6.736,0.0,-6.5788,-6.4976,-6.4182,-6.3785,-6.36,-6.3634,-6.3634,0.0,-6.4703,-6.4772,0.0,0.0,-6.4889,-6.4459,-6.2761,0.0,0.0,0.0,0.0,0.0,-5.9587,-5.7653,-5.6761,-5.6761,-5.6761,0.0,-5.5979,-5.5979,-5.5681,-5.5179,-5.5179,-5.5179,-5.5179,-5.5179,-5.5006,-5.4803,-5.4126,-5.389,-5.3919,-5.3605,-5.1948,-5.0014,-4.9901,-4.821,-4.6421,-4.6301,-4.6301,-4.6301,-4.6301,-4.6301,-4.6301,-4.6301,-4.6301,0.0,0.0,0.0,-4.3232,0.0,0.0,0.0,0.0,0.0,0.0,0.0,0.0,0.0,0.0,0.0,0.0,0.0,0.0,0.0,0.0,0.0,0.0,0.0,0.0,0.0,0.0,0.0,-3.1433,-3.1433,-3.1433,-3.1192,-3.0933,-3.0933,-3.0822,-3.0431,-3.0005,-3.0005,-3.0449,-3.0027,-3.0049,-3.0467,-3.0427,-3.0463,-3.048,-3.0874,-3.1046,-3.0941,-3.056,-3.0409,-3.0124,-2.8707,-2.7565,-2.6983,-6.8506,-6.8506,-6.8506,0.0,-6.8222,-6.7982,0.0,0.0,0.0,0.0,-6.6089,-6.5426,-6.4601,-6.3967,-6.3807,-6.4358,-6.4427,0.0,0.0,0.0,0.0,-6.4435,-6.4889,-6.4459,-6.2761,-6.3204,0.0,-6.2381,0.0,0.0,-5.9587,-5.7653,-5.6761,-5.6761,0.0,0.0,-5.5979,-5.578,-5.5481,-5.5179,-5.5179,-5.5179,0.0,0.0,-5.5179,-5.5078,-5.4671,-5.4436,-5.42,-5.3919,-5.2701,-5.1127,-5.0126,-4.8904,-4.7416,-4.6541,-4.6301,-4.6301,-4.6301,-4.6301,-4.6301,-4.6301,-4.6301,-4.618,0.0,0.0,0.0,0.0,0.0,0.0,0.0,0.0,0.0,0.0,0.0,0.0,0.0,0.0,0.0,-3.5059,0.0,0.0,0.0,0.0,0.0,0.0,0.0,0.0,0.0,0.0,0.0,-3.1878,-3.163,-3.1497,-3.1363,-3.1113,-3.0979,-3.0845,-3.0425,-3.0273,-3.0425,-3.0241,-3.0292,-3.0445,-3.0703,-3.0857,-3.0891,-3.1268,-3.1124,-3.056,-3.0518,-2.9695,-2.8707,-2.8274,-2.7565,-2.6983,-6.8506,0.0,0.0,-6.8506,0.0,0.0,-6.8084,0.0,0.0,-6.6895,-6.6451,0.0,-6.5263,-6.4669,-6.4616,-6.5152,-6.5221,0.0,-6.6324,0.0,0.0,-6.5069,-6.4521,-6.3777,-6.2881,-6.2944,0.0,-6.179,0.0,0.0,-5.8998,-5.7464,-5.6761,-5.6761,0.0,-5.6274,0.0,-5.5581,-5.528,-5.5179,-5.5179,0.0,0.0,-5.5179,-5.5179,-5.5179,-5.5006,-5.4641,-5.4304,-5.3993,-5.2914,-5.1456,-5.0238,-4.9106,-4.786,-4.6636,-4.6301,-4.6301,-4.6301,-4.6301,-4.6301,-4.6301,-4.618,-4.6059,-4.5817,-4.4792,-4.3903,0.0,-4.1738,-3.9932,0.0,0.0,0.0,0.0,0.0,0.0,0.0,0.0,0.0,0.0,0.0,0.0,0.0,0.0,0.0,0.0,0.0,0.0,0.0,0.0,0.0,-3.2052,-3.1917,-3.1801,-3.1278,-3.1278,-3.099,-3.0718,-3.0565,-3.0429,-3.0429,-3.06,-3.0686,-3.0703,-3.1097,-3.1251,-3.1268,-3.1474,-3.1135,-3.0266,-2.9695,-2.8707,-2.7565,-2.7565,-2.742,-2.6983,0.0,0.0,0.0,0.0,0.0,0.0,0.0,-6.8358,0.0,-6.7486,0.0,-6.6495,-6.627,-6.5759,-6.5634,-6.6097,0.0,-6.629,-6.6945,-6.5669,-6.5117,-6.5704,-6.3981,-6.3,-6.3,-6.2615,-6.1951,0.0,0.0,-5.9088,-5.8211,-5.7211,-5.6761,0.0,0.0,0.0,0.0,-5.5381,-5.5179,-5.5179,-5.5179,-5.5179,-5.5179,-5.5179,-5.5179,-5.5179,-5.5179,-5.4845,-5.4304,-5.3993,-5.302,-5.1702,-5.035,-4.9221,-4.8094,-4.6636,-4.6301,-4.6301,-4.6301,-4.6301,-4.6301,-4.6301,-4.6059,-4.5817,-4.5696,-4.5208,-4.484,-4.4717,-4.2523,-4.0452,0.0,0.0,0.0,0.0,0.0,0.0,0.0,0.0,0.0,0.0,0.0,0.0,0.0,0.0,0.0,0.0,0.0,0.0,0.0,0.0,0.0,-3.2079,-3.2349,-3.2079,-3.1147,0.0,-3.1129,-3.0583,-3.0583,-3.0583,-3.0583,-3.0926,-3.108,-3.1114,-3.1422,-3.1559,-3.1559,-3.1418,-3.0835,-2.9981,-2.8563,-2.7565,-2.6983,-2.6983,-2.6983,-2.6983,0.0,0.0,0.0,0.0,0.0,-6.8408,-6.8506,-6.8171,-6.793,-6.8121,-6.7797,-6.7475,-6.7312,-6.6705,-6.6582,-6.7238,-6.7004,0.0,0.0,0.0,0.0,-6.4717,-6.3597,-6.2923,-6.277,-6.2537,-6.1951,0.0,-6.0022,-5.9088,-5.8211,-5.7211,0.0,0.0,0.0,0.0,-5.528,-5.5179,0.0,-5.5179,-5.5179,-5.5179,-5.5179,-5.5179,-5.5179,-5.5179,-5.5179,-5.4845,-5.4304,-5.42,-5.3785,-5.2837,-5.0573,-4.9788,-4.9133,-4.6993,-4.6301,-4.6301,-4.6301,-4.6301,-4.6301,-4.6301,-4.6059,-4.5696,-4.5453,-4.5086,-4.4717,-4.447,-4.3051,-4.1633,-4.0452,0.0,0.0,0.0,0.0,0.0,0.0,0.0,0.0,0.0,0.0,0.0,0.0,0.0,0.0,0.0,0.0,0.0,0.0,0.0,0.0,0.0,-3.1914,0.0,0.0,0.0,-3.1511,-3.1371,-3.1371,-3.1371,-3.1371,-3.1439,-3.1474,-3.1474,-3.1542,-3.1559,-3.1559,-3.0835,-2.9838,-2.8418,-2.7565,-2.7129,-2.6983,-2.6983,-2.6983,-2.6983,0.0,0.0,0.0,0.0,0.0,0.0,0.0,-6.8321,0.0,-6.8358,-6.7853,-6.7629,-6.8222,-6.7333,-6.6977,-6.7521,-6.7211,-6.6842,-6.6428,-6.5704,-6.5042,-6.4435,-6.3452,0.0,-6.2693,-6.2459,-6.1951,-6.0986,-6.0022,-5.9088,-5.8211,0.0,0.0,0.0,0.0,-5.5681,0.0,0.0,0.0,-5.5179,-5.5179,-5.5179,-5.5179,-5.5179,-5.5179,-5.5179,-5.5006,-5.4641,-5.4304,-5.4304,-5.389,-5.3078,-5.0712,-4.9901,-4.9475,-4.6993,-4.6301,-4.6301,-4.6301,-4.6301,-4.6301,-4.6301,-4.5939,-4.5453,-4.5331,-4.4963,-4.447,-4.4347,-4.2673,-4.0581,-3.8374,-3.6944,0.0,0.0,0.0,0.0,0.0,0.0,0.0,0.0,0.0,0.0,0.0,0.0,0.0,0.0,0.0,0.0,0.0,0.0,0.0,0.0,0.0,0.0,0.0,0.0,0.0,-3.1559,-3.1559,-3.1559,-3.1559,-3.1559,-3.1559,-3.1559,-3.1559,-3.1418,-3.0835,-2.9695,-2.8707,-2.7985,-2.7274,-2.6983,-2.6983,-2.6983,-2.6983,-2.6983,0.0,-6.8506,0.0,0.0,-6.8506,0.0,-6.8506,-6.8506,-6.8506,-6.8506,-6.7831,-6.7658,-6.8561,-6.7643,-6.7125,-6.7352,-6.6969,-6.6428,-6.5669,-6.5048,-6.4559,-6.4118,-6.3384,-6.2923,-6.2615,-6.2459,-6.1951,0.0,-6.0022,-5.9081,0.0,0.0,0.0,0.0,0.0,0.0,0.0,0.0,-5.5179,-5.5179,-5.5179,-5.5089,-5.497,-5.497,-5.488,-5.466,-5.4458,-5.4124,-5.3789,-5.3789,-5.3685,-5.3078,-5.0712,-4.9901,-4.9475,-4.6993,-4.6301,-4.6301,-4.6301,-4.6301,-4.6301,-4.6301,-4.5817,-4.5331,-4.5331,-4.484,-4.4347,-4.4347,-4.2143,-3.9408,-3.6944,-3.6152,0.0,0.0,0.0,0.0,0.0,0.0,0.0,0.0,0.0,0.0,0.0,0.0,0.0,0.0,0.0,-3.34,-3.2701,-3.2981,-3.2701,0.0,0.0,-3.214,-3.1559,0.0,-3.1841,-3.1559,-3.1559,-3.1559,-3.1559,-3.1559,-3.1559,-3.1559,-3.1418,-3.0835,-2.9838,-2.8563,-2.7985,-2.7855,-2.7274,-2.6983,-2.6983,-2.6983,-2.6983,-2.6983,0.0,0.0,0.0,0.0,0.0,0.0,-6.8506,-6.8506,-6.8506,-6.8506,-6.8345,-6.8117,-6.7909,-6.739,-6.6915,-6.6656,-6.6208,-6.5635,-6.4841,-6.4738,-6.4243,-6.3213,-6.3034,-6.2847,-6.2459,-6.2381,-6.1951,0.0,-6.0022,-5.8824,0.0,0.0,0.0,0.0,0.0,0.0,0.0,-5.5179,-5.5179,-5.5179,-5.5179,-5.485,-5.4311,-5.4311,-5.3724,-5.2991,-5.2991,-5.2693,-5.2163,-5.2163,-5.2748,-5.3078,-5.0712,-4.9901,-4.9475,-4.6993,-4.6301,-4.6301,-4.6301,-4.6301,-4.6301,-4.6301,-4.5817,-4.5331,-4.5331,-4.484,-4.4347,-4.4347,-4.2143,-3.967,-3.8242,-3.6809,-3.6016,0.0,0.0,0.0,0.0,0.0,0.0,0.0,0.0,0.0,0.0,-3.3817,0.0,0.0,-3.3278,-3.3139,-3.2701,-3.2403,-3.1982,-3.17,0.0,-3.17,-3.1559,-3.1559,-3.1559,-3.1559,-3.1559,-3.1559,-3.1559,-3.1559,-3.1559,-3.1559,-3.0835,-2.9695,-2.8274,-2.813,-2.771,-2.7129,-2.6998,-2.6983,-2.6983,-2.6983,-2.6983,-2.6983,0.0,0.0,0.0,0.0,0.0,0.0,0.0,-6.8506,-6.8408,-6.8084,-6.7817,-6.7528,-6.74,-6.6763,-6.6179,-6.5819,-6.5377,-6.4841,-6.4083,-6.4048,-6.3761,-6.3,-6.3,-6.2847,-6.2381,-6.2381,-6.2223,0.0,0.0,0.0,0.0,0.0,0.0,0.0,0.0,-5.5581,-5.5179,-5.5179,-5.497,-5.461,-5.461,-5.4192,-5.3593,-5.3593,-5.3217,-5.2812,-5.2615,-5.2317,-5.1988,-5.1816,-5.2064,-5.1926,-4.961,-4.8816,-4.8373,-4.5948,-4.5547,-4.5824,-4.5824,-4.605,-4.6301,-4.6059,-4.5696,-4.5208,-4.5086,-4.4594,-4.4347,-4.4347,-4.2143,-3.9801,-3.8374,-3.6944,-3.6016,-3.6016,0.0,0.0,0.0,0.0,0.0,0.0,0.0,0.0,0.0,0.0,0.0,0.0,0.0,-3.34,-3.2701,-3.2561,-3.2263,-3.1965,0.0,-3.1559,-3.1559,-3.1559,-3.1559,-3.1559,-3.1559,-3.1559,-3.1559,-3.1559,-3.1277,-3.0835,-2.9552,-2.8707,-2.8145,-2.7565,-2.7274,-2.6983,-2.6983,-2.6983,-2.6983,-2.6983,-2.6983,-2.6983,-6.8506,0.0,-6.8506,0.0,-6.8506,-6.8506,-6.8506,-6.8506,-6.8272,-6.7684,-6.7305,-6.6976,-6.6638,-6.5958,-6.5303,-6.4874,-6.4507,-6.4152,-6.3634,-6.36,-6.3452,-6.3,-6.3,0.0,-6.2381,-6.2381,-6.2302,-6.1951,-6.0365,0.0,0.0,0.0,0.0,0.0,-5.5581,-5.5481,-5.5179,-5.497,-5.464,-5.4192,-5.3982,-5.3503,-5.2905,-5.2905,-5.2591,-5.2151,-5.1955,-5.1659,-5.1333,-5.1133,-5.1033,-5.0789,-4.9075,-4.8327,-4.7674,-4.5716,-4.5128,-4.5246,-4.5246,-4.5522,-4.5729,-4.5785,-4.5327,-4.5012,-4.4915,-4.4594,-4.4347,-4.4347,-4.2397,-4.0344,-3.9035,-3.7595,-3.6539,-3.6016,0.0,0.0,0.0,0.0,0.0,0.0,-3.4232,-3.3817,-3.3817,0.0,0.0,0.0,0.0,0.0,-3.2701,-3.2561,0.0,0.0,0.0,0.0,-3.1559,-3.1559,-3.1559,-3.1559,-3.1559,-3.1559,-3.1559,-3.1418,-3.0693,-2.9695,-2.8563,-2.8,-2.771,-2.7274,-2.6983,-2.6983,-2.6983,-2.6983,-2.6983,-2.6983,-2.6983,-2.6692,-6.8506,-6.8506,-6.8506,-6.8506,-6.8506,-6.8506,-6.8506,-6.8506,-6.8171,-6.7213,-6.7101,-6.67,-6.5533,-6.5011,-6.4463,-6.3673,-6.36,-6.36,-6.36,-6.36,-6.3452,0.0,0.0,-6.2847,-6.2381,-6.2381,-6.1951,-6.0986,0.0,0.0,-5.7105,0.0,-5.5408,-5.5581,-5.5581,-5.5481,-5.5149,-5.4491,-5.4221,-5.4162,-5.3473,-5.2785,-5.2217,-5.2217,-5.1542,-5.053,-5.053,-5.0212,-4.9698,-4.9698,-4.9698,-4.9704,-4.9794,-4.8973,-4.7893,-4.6593,-4.5514,-4.4644,-4.4644,-4.4644,-4.4769,-4.5347,-4.5022,-4.4667,-4.5208,-4.484,-4.4347,-4.4347,-4.32,-4.1888,-4.0452,-3.9014,-3.7595,-3.6287,0.0,0.0,0.0,0.0,0.0,0.0,-3.4232,-3.3817,-3.3817,0.0,0.0,0.0,0.0,0.0,0.0,0.0,0.0,-3.1559,-3.1559,0.0,-3.1559,-3.1559,-3.1559,-3.1559,-3.1559,-3.1559,-3.1559,-3.0835,-2.9552,-2.813,-2.8145,-2.771,-2.6983,-2.6983,-2.6983,-2.6983,-2.6983,-2.6983,-2.6983,-2.6983,-2.6692,-2.6093,-6.8506,-6.8506,-6.8506,-6.8506,-6.8506,-6.8506,-6.8506,-6.8222,-6.7789,-6.7157,-6.6641,-6.5914,-6.5011,-6.4775,-6.4428,0.0,-6.36,-6.36,0.0,-6.36,-6.3452,-6.3227,-6.3076,-6.2847,-6.2615,-6.2459,-6.1951,-6.0986,0.0,0.0,0.0,-5.5938,-5.5668,-5.528,-5.483,-5.462,-5.4491,-5.3803,-5.3234,-5.2815,-5.2606,-5.2127,-5.1528,-5.1339,-5.0935,-5.0501,-5.0279,-4.999,-4.9669,-4.9669,-4.9669,-4.9727,-4.9737,-4.8918,-4.7653,-4.5737,-4.5174,-4.5037,-4.4295,-4.4342,-4.4552,-4.4636,-4.4333,-4.4007,-4.4305,-4.4328,-4.4347,-4.4347,-4.32,-4.1888,-4.0473,-3.9035,-3.7595,-3.6287,-3.6016,0.0,0.0,0.0,0.0,0.0,-3.4094,-3.3817,0.0,-3.3817,0.0,0.0,0.0,0.0,0.0,0.0,0.0,0.0,-3.17,0.0,-3.1559,-3.1559,-3.1559,-3.1559,-3.1559,-3.1277,-3.0693,-2.9997,-2.9138,-2.813,-2.7565,-2.7274,-2.6983,-2.6983,-2.6983,-2.6983,-2.6983,-2.6983,-2.6983,-2.6983,-2.6078,-2.4583,-6.8506,-6.8506,-6.8506,-6.8506,-6.8506,-6.8506,-6.8506,-6.8084,-6.763,-6.7157,-6.6404,-6.5597,-6.4775,-6.4568,0.0,-6.3673,-6.36,-6.36,-6.36,-6.36,-6.3452,-6.3227,-6.3076,-6.2847,-6.2615,-6.211,0.0,-6.0482,-5.9145,-5.7715,-5.5979,-5.5979,-5.556,-5.479,-5.4401,-5.4072,-5.3773,-5.3084,-5.2576,-5.2187,-5.1947,-5.1588,-5.1229,-5.0917,-5.0662,-5.0501,-5.0183,-4.9892,-4.9669,-4.9669,-4.9669,-4.9669,-4.9669,-4.9248,-4.8223,-4.5926,-4.523,-4.4999,-4.3801,-4.374,-4.3951,-4.3946,-4.3647,-4.3443,-4.3505,-4.3771,-4.4034,-4.4034,-4.3434,-4.2673,-4.1248,-3.9801,-3.8374,-3.7059,-3.6287,-3.5879,-3.5626,0.0,0.0,0.0,0.0,0.0,0.0,-3.3817,-3.3817,0.0,0.0,0.0,0.0,0.0,0.0,-3.1982,-3.17,0.0,-3.1559,-3.1559,-3.1559,-3.1559,-3.1277,-3.071,-2.9981,-2.9138,-2.8434,-2.771,-2.7129,-2.6983,-2.6983,-2.6983,-2.6983,-2.6983,-2.6983,-2.6983,-2.6998,-2.6838,-2.5478,-2.3684,-6.8506,-6.8506,-6.8506,0.0,-6.8506,0.0,-6.8457,-6.8033,-6.7577,-6.7101,-6.6344,-6.5568,-6.4775,-6.4358,-6.393,-6.3673,0.0,0.0,0.0,-6.36,-6.3452,-6.3076,-6.3,-6.2847,-6.2459,-6.1513,-6.0482,-5.9499,-5.7653,-5.6537,-5.5918,-5.5918,-5.5258,-5.4132,-5.4102,-5.3713,-5.3084,-5.2426,-5.2127,-5.2067,-5.1468,-5.1229,-5.1229,-5.0917,-5.0662,-5.0501,-5.0183,-4.9892,-4.9669,-4.9669,-4.9669,-4.9669,-4.9669,-4.9669,-4.9248,-4.7047,-4.5608,-4.4561,-4.3406,-4.3073,-4.3112,-4.3298,-4.3103,-4.2812,-4.271,-4.3096,-4.3457,-4.3457,-4.3866,-4.3731,-4.2477,-4.1052,-3.9649,-3.8374,-3.6944,-3.5879,-3.547,0.0,0.0,0.0,0.0,0.0,0.0,-3.3817,-3.3817,0.0,0.0,0.0,0.0,0.0,-3.1982,-3.1559,-3.1559,-3.1559,-3.1559,-3.1559,-3.1559,-3.1559,-3.0693,-2.9981,-2.9154,-2.8434,-2.771,-2.6983,-2.6983,-2.6983,-2.6983,-2.6983,-2.6983,-2.6983,-2.6983,-2.6983,-2.6983,-2.6546,-2.5038,-2.293,0.0,0.0,-6.8506,-6.8506,-6.8506,-6.8408,-6.8033,-6.7577,-6.7137,-6.6714,-6.5633,-6.4876,-6.4706,-6.4074,-6.3673,-6.36,-6.36,-6.36,-6.36,-6.36,-6.36,-6.3452,-6.3152,-6.3,-6.2847,-6.1676,-6.0226,-5.8546,-5.7401,-5.6291,-5.522,-5.522,-5.4564,-5.3414,-5.2905,-5.2576,-5.2396,-5.1738,-5.1439,-5.1439,-5.1289,-5.1229,-5.1135,-5.0757,-5.0596,-5.0405,-4.999,-4.9766,-4.9669,-4.9669,-4.9669,-4.9669,-4.9669,-4.9669,-4.9473,-4.8021,-4.6764,-4.5714,-4.4561,-4.3628,-4.2899,-4.28,-4.2577,-4.2457,-4.2252,-4.2567,-4.2952,-4.2952,-4.3048,-4.2877,-4.1854,-4.0539,-3.9261,-3.8312,-3.6674,-3.547,-3.5059,-3.4784,0.0,0.0,-3.3817,-3.3817,-3.3817,-3.3817,-3.3817,0.0,0.0,0.0,0.0,-3.2123,-3.17,-3.1559,-3.1559,-3.1559,-3.1559,-3.1559,-3.1277,-3.0693,-3.0551,-2.9695,-2.8418,-2.813,-2.771,-2.6983,-2.6983,-2.6983,-2.6983,-2.6983,-2.6983,-2.6983,-2.6983,-2.6983,-2.6983,-2.6546,-2.4288,-2.1429,-6.8506,-6.8506,-6.8506,-6.8506,-6.8506,-6.8321,-6.7841,-6.7268,-6.67,-6.6258,-6.5176,-6.4428,-6.4428,-6.393,-6.36,-6.36,-6.36,-6.36,-6.36,-6.36,-6.36,-6.3452,-6.3152,-6.2923,-6.2847,-6.1235,-5.925,-5.709,-5.6555,-5.5739,-5.4522,-5.4522,-5.3869,-5.2725,-5.2366,-5.2037,-5.1738,-5.1379,-5.1229,-5.1229,-5.1229,-5.1229,-5.1135,-5.0692,-5.0501,-5.0405,-4.9892,-4.9669,-4.9669,-4.9669,-4.9669,-4.9669,-4.9669,-4.9669,-4.9571,-4.8951,-4.7587,-4.611,-4.4993,-4.3823,-4.2874,-4.2425,-4.2079,-4.1813,-4.1721,-4.2014,-4.2399,-4.2399,-4.2591,-4.2712,-4.2225,-4.0897,-3.9611,-3.8573,-3.6942,-3.5391,-3.4469,-3.4082,0.0,-3.3248,-3.3248,-3.3248,-3.3248,-3.3248,-3.313,-3.2993,-3.2445,0.0,-3.1894,-3.1323,-3.12,-3.1559,-3.1559,-3.1559,-3.1559,-3.1277,-3.0835,-3.0409,-2.9695,-2.8835,-2.8145,-2.771,-2.742,-2.6983,-2.6983,-2.6983,-2.6983,-2.6983,-2.6983,-2.6983,-2.6983,-2.6838,-2.6692,-2.6239,-2.3831,-2.068,-6.8506,-6.8506,-6.8506,-6.8506,-6.8457,-6.8272,-6.7684,-6.7008,-6.6368,-6.5788,-6.4773,-6.4111,-6.4111,-6.3785,-6.36,-6.36,-6.36,-6.36,-6.36,-6.36,-6.3526,-6.3377,-6.3152,-6.2923,-6.277,-6.0604,-5.8186,-5.553,-5.553,-5.4939,-5.3823,-5.3823,-5.3175,-5.2067,-5.2067,-5.1738,-5.1229,-5.1229,-5.1229,-5.1229,-5.1229,-5.1229,-5.1135,-5.0692,-5.0501,-5.0405,-4.9892,-4.9669,-4.9669,-4.9669,-4.9669,-4.9669,-4.9669,-4.9669,-4.9669,-4.9473,-4.7993,-4.611,-4.5182,-4.3932,-4.2762,-4.2224,-4.1655,-4.1172,-4.1172,-4.1533,-4.1846,-4.1846,-4.2206,-4.2543,-4.2615,-4.1513,-4.0273,-3.9206,-3.7318,-3.5541,-3.4162,0.0,-3.3007,-3.2588,-3.2588,-3.2588,-3.2588,-3.2588,-3.2472,-3.207,-3.1666,-3.1361,-3.0885,-3.0479,-3.0617,-3.12,-3.1337,-3.1388,-3.1388,-3.0667,-3.0244,-3.0102,-2.8694,-2.7833,-2.7689,-2.7127,-2.6866,-2.691,-2.691,-2.6939,-2.6983,-2.6983,-2.6983,-2.6983,-2.6983,-2.6692,-2.6385,-2.5946,-2.3387,-2.038,-6.8506,-6.8506,-6.8506,-6.8506,-6.8408,-6.7982,-6.6952,-6.6546,-6.6038,-6.5011,-6.4393,-6.4111,-6.4111,-6.3785,-6.36,-6.36,-6.36,-6.36,-6.36,-6.36,-6.36,-6.3526,-6.3227,-6.3,-6.2923,-6.0159,-5.7452,-5.4884,-5.4884,-5.4265,-5.3155,-5.3155,-5.248,-5.1379,-5.1379,-5.1319,-5.1229,-5.1229,-5.1229,-5.1229,-5.1229,-5.1229,-5.1135,-5.0692,-5.0501,-5.0405,-4.9892,-4.9669,-4.9669,-4.9669,-4.9669,-4.9669,-4.9669,-4.9669,-4.9473,-4.8553,-4.7383,-4.6215,-4.611,-4.4235,-4.2224,-4.211,-4.1655,-4.1172,-4.1172,-4.1244,-4.1317,-4.1317,-4.1365,-4.1557,-4.2014,-4.0974,-4.0106,-4.0296,-3.7699,-3.5541,-3.5281,0.0,-3.274,-3.2606,-3.2588,-3.2588,-3.2588,-3.2588,-3.2472,-3.207,-3.1666,-3.1255,-3.0519,-3.0101,-2.9881,-2.9658,-3.0275,-3.06,-3.06,-2.9914,-2.9224,-2.8515,-2.7695,-2.7009,-2.6305,-2.6164,-2.631,-2.6574,-2.6574,-2.6735,-2.6983,-2.6983,-2.6983,-2.6983,-2.6692,-2.6399,-2.6253,-2.552,-2.3252,-2.0358,-6.8506,-6.8506,-6.8506,-6.8506,-6.8084,-6.7486,-6.6722,-6.5966,-6.5237,-6.4463,-6.4074,-6.3858,-6.3858,-6.3639,-6.36,-6.36,-6.322,-6.3013,-6.3013,-6.3358,-6.3393,-6.2867,-6.2535,-6.1689,-6.0004,-5.8656,-5.6718,-5.4176,-5.4176,-5.3561,-5.2457,-5.2457,-5.1997,-5.1229,-5.1229,-5.1229,-5.1229,-5.1229,-5.1229,-5.1229,-5.1229,-5.1229,-5.1135,-5.0692,-5.0501,-5.0405,-4.9892,-4.9669,-4.9669,-4.9669,-4.9669,-4.9669,-4.9669,-4.9669,-4.9473,-4.8324,-4.6764,-4.5289,-4.467,-4.3381,-4.211,-4.211,-4.1655,-4.1172,-4.1172,-4.1172,-4.1172,-4.1172,-4.1172,-4.1268,-4.1509,-4.1068,-4.041,-3.9785,-3.7573,0.0,-3.4839,-3.3081,-3.1946,-3.1946,-3.1946,-3.1854,-3.1653,-3.1616,-3.1283,-3.0549,-3.0401,-2.9942,-2.9232,-2.9103,-2.8888,-2.8717,-2.9436,-2.9679,-2.9278,-2.8623,-2.7813,-2.7118,-2.6451,-2.6007,-2.5754,-2.5754,-2.593,-2.6237,-2.6237,-2.6325,-2.6471,-2.6471,-2.643,-2.6431,-2.6142,-2.5951,-2.5639,-2.518,-2.3331,-2.0911,-6.7986,-6.79,-6.7851,-6.7679,-6.7095,-6.6425,-6.579,-6.4828,-6.4039,-6.3518,-6.3266,-6.3048,-6.3048,-6.3048,-6.3048,-6.3048,-6.253,-6.222,-6.222,-6.2737,-6.2733,-6.2002,-6.1747,-6.0324,-5.7492,-5.7242,-5.6071,-5.3799,-5.3559,-5.2948,-5.2002,-5.2002,-5.1695,-5.1229,-5.1229,-5.1229,-5.1229,-5.1229,-5.1229,-5.1229,-5.1229,-5.1229,-5.1135,-5.0692,-5.0501,-5.0405,-4.9892,-4.9669,-4.9669,-4.9669,-4.9669,-4.9669,-4.9669,-4.9669,-4.9473,-4.8021,-4.6032,-4.4152,-4.3184,-4.2538,-4.211,-4.211,-4.1655,-4.1172,-4.1172,-4.1172,-4.1172,-4.1172,-4.1172,-4.1172,-4.1172,-4.1172,-4.0826,-3.9403,0.0,-3.5785,0.0,-3.2486,-3.1212,-3.1121,-3.1102,-3.0992,-3.0681,-3.0644,-3.0265,-2.9333,-2.919,-2.8905,-2.8191,-2.8049,-2.8015,-2.7929,-2.8665,-2.8782,-2.8243,-2.7342,-2.6682,-2.6152,-2.5219,-2.4964,-2.5198,-2.5198,-2.5374,-2.5681,-2.5681,-2.5725,-2.5798,-2.5659,-2.5649,-2.5598,-2.5527,-2.5282,-2.4898,-2.4575,-2.3194,-2.0962,-6.6425,-6.6182,-6.5915,-6.5264,-6.4894,-6.4245,-6.3002,-6.2587,-6.2258,-6.1603,-6.1461,-6.1461,-6.1461,-6.1461,-6.1461,-6.1461,-6.1427,-6.1392,-6.1392,-6.1284,-6.1212,-6.1392,-6.1033,-5.981,-5.7694,-5.6907,-5.5641,-5.3985,-5.3175,-5.2489,-5.2002,-5.2002,-5.1695,-5.1229,-5.1229,-5.1229,-5.1229,-5.1229,-5.1229,-5.1229,-5.1229,-5.1229,-5.1135,-5.0692,-5.0501,-5.0405,-4.9892,-4.9669,-4.9669,-4.9669,-4.9669,-4.9669,-4.9669,-4.9669,-4.9248,-4.7074,-4.4859,-4.3098,-4.2986,-4.2538,-4.211,-4.211,-4.1655,-4.1172,-4.1172,-4.1172,-4.1172,-4.1172,-4.1172,-4.1172,-4.1172,-4.1172,-4.1057,-4.0595,0.0,0.0,-3.5239,-3.2649,-3.0699,-3.0332,-3.0296,-3.0277,-3.0241,-3.0241,-3.0098,-2.9689,-2.944,-2.8906,-2.8184,-2.7779,-2.7501,-2.7176,-2.7895,-2.8271,-2.8145,-2.6856,-2.6215,-2.6071,-2.4795,-2.4174,-2.4188,-2.4188,-2.4364,-2.4671,-2.4671,-2.4847,-2.5125,-2.4703,-2.4581,-2.4639,-2.4233,-2.408,-2.3995,-2.3843,-2.1894,-1.9235,-6.6165,-6.5997,-6.5816,-6.5546,-6.4603,-6.3716,-6.3173,-6.2314,-6.1606,-6.136,-6.1289,-6.1289,-6.1289,-6.1289,-6.1289,-6.1289,-6.0875,-6.0634,-6.0634,-6.0045,-5.9764,-6.0066,-5.8856,-5.7543,-5.6268,-5.5371,-5.4347,-5.3201,-5.2877,-5.2458,-5.2002,-5.2002,-5.1695,-5.1229,-5.1229,-5.1229,-5.1229,-5.1229,-5.1229,-5.1229,-5.1229,-5.1105,-5.0917,-5.0567,-5.0405,-5.0183,-4.9863,-4.9669,-4.9669,-4.9669,-4.9669,-4.9669,-4.9669,-4.9669,-4.9248,-4.6943,-4.4752,-4.2986,-4.2986,-4.2538,-4.211,-4.211,-4.1655,-4.1172,-4.1172,-4.1172,-4.1172,-4.1172,-4.1172,-4.1172,-4.1172,-4.1172,-4.1057,-4.0479,0.0,-3.7341,-3.6566,-3.4101,-3.2237,-3.1837,-3.1053,-3.0369,-2.9855,-2.9819,-2.9465,-2.8724,-2.8585,-2.8166,-2.7539,-2.74,-2.721,-2.7073,-2.7347,-2.7361,-2.6867,-2.5999,-2.525,-2.4859,-2.3977,-2.3588,-2.3779,-2.3779,-2.3954,-2.4276,-2.4276,-2.4335,-2.4452,-2.4055,-2.3904,-2.3834,-2.3735,-2.3555,-2.3467,-2.3447,-2.219,-2.014,-6.5301,-6.517,-6.499,-6.4758,-6.3565,-6.2713,-6.2719,-6.1523,-6.0668,-6.0909,-6.0737,-6.0599,-6.0599,-6.0599,-6.0599,-6.0599,-6.0116,-5.984,-5.9771,-5.908,-5.8695,-5.8919,-5.7749,-5.6768,-5.6113,-5.4952,-5.4147,-5.3521,-5.2966,-5.2458,-5.2002,-5.2002,-5.1695,-5.1229,-5.1229,-5.1229,-5.1229,-5.1229,-5.1229,-5.1229,-5.1229,-5.1011,-5.0822,-5.0567,-5.0309,-5.0086,-4.9766,-4.9669,-4.9669,-4.9669,-4.9669,-4.9669,-4.9669,-4.9473,-4.8753,-4.684,-4.4967,-4.3406,-4.2961,-4.2425,-4.211,-4.211,-4.1655,-4.1172,-4.1172,-4.1172,-4.1172,-4.1172,-4.1172,-4.1172,-4.1172,-4.1172,-4.0942,-4.0339,-3.9121,-3.7963,-3.721,-3.4882,-3.3027,-3.2721,-3.1445,-3.0387,-2.9819,-2.9654,-2.921,-2.8474,-2.8091,-2.7779,-2.7073,-2.7073,-2.7073,-2.7073,-2.7073,-2.683,-2.6067,-2.5472,-2.4734,-2.41,-2.3355,-2.3223,-2.3442,-2.3442,-2.3559,-2.3779,-2.3779,-2.3779,-2.3779,-2.3264,-2.319,-2.3238,-2.301,-2.3038,-2.2908,-2.2584,-2.148,-2.0028,-6.3613,-6.3326,-6.3002,-6.2255,-6.1472,-6.096,-6.1084,-5.9937,-5.9323,-6.0082,-5.9495,-5.9012,-5.9012,-5.9012,-5.9012,-5.9012,-5.9012,-5.8944,-5.8771,-5.8419,-5.8171,-5.8171,-5.8171,-5.8099,-5.7881,-5.6192,-5.5312,-5.5312,-5.3521,-5.2458,-5.2002,-5.2002,-5.1695,-5.1229,-5.1229,-5.1229,-5.1229,-5.1229,-5.1229,-5.1229,-5.1229,-5.1011,-5.0822,-5.0567,-5.0309,-5.0086,-4.9766,-4.9669,-4.9669,-4.9669,-4.9669,-4.9669,-4.9669,-4.8951,-4.7819,-4.6632,-4.5502,-4.4344,-4.2961,-4.2312,-4.211,-4.211,-4.1631,-4.1172,-4.1172,-4.1172,-4.1172,-4.1172,-4.1172,-4.1172,-4.1172,-4.1172,-4.0942,-4.0339,-3.9121,-3.797,-3.6912,-3.445,-3.2721,-3.227,-3.103,-3.0204,-3.0204,-2.9819,-2.9459,-2.9112,-2.8371,-2.7779,-2.7073,-2.7073,-2.7073,-2.7073,-2.7073,-2.683,-2.6067,-2.5472,-2.4734,-2.41,-2.3355,-2.3106,-2.3106,-2.3106,-2.3106,-2.3106,-2.3106,-2.3106,-2.3106,-2.2369,-2.23,-2.2608,-2.2133,-2.2164,-2.231,-2.1083,-1.9646,-1.8239,-6.4197,-6.414,-6.4132,-6.442,-6.345,-6.2602,-6.2666,-6.1527,-6.0496,-6.022,-5.9978,-5.9633,-5.9081,-5.9012,-5.9012,-5.9012,-5.8909,-5.8701,-5.8419,-5.8277,-5.8099,-5.7954,-5.7406,-5.7072,-5.6996,-5.5876,-5.4985,-5.4401,-5.3836,-5.3082,-5.2002,-5.2002,-5.1695,-5.1229,-5.1229,-5.1229,-5.1229,-5.1229,-5.1229,-5.1229,-5.1229,-5.0947,-5.0567,-5.0501,-5.0183,-4.9766,-4.9766,-4.9669,-4.9669,-4.9669,-4.9669,-4.9669,-4.9669,-4.8951,-4.7819,-4.6632,-4.5502,-4.4453,-4.3184,-4.2425,-4.2086,-4.1859,-4.1516,-4.1172,-4.1172,-4.1172,-4.1172,-4.1172,-4.1172,-4.1172,-4.1172,-4.1172,-4.0942,-4.0339,-3.9849,-3.9334,-3.8608,-3.6267,-3.4513,-3.4044,-3.2065,-3.0497,-3.0222,-3.0094,-2.9756,-2.9261,-2.8272,-2.7574,-2.709,-2.7073,-2.7073,-2.7073,-2.7073,-2.6587,-2.5349,-2.5226,-2.4734,-2.41,-2.3355,-2.3106,-2.3106,-2.3106,-2.3106,-2.3106,-2.3106,-2.3112,-2.3076,-2.2695,-2.2493,-2.2538,-2.2311,-2.2338,-2.231,-2.1083,-1.9646,-1.8239,-6.5001,-6.4979,-6.5029,-6.5345,-6.423,-6.3413,-6.3698,-6.2361,-6.1151,-6.0703,-6.0392,-5.9909,-5.9081,-5.8944,-5.8909,-5.8909,-5.8701,-5.849,-5.8205,-5.8099,-5.8027,-5.7881,-5.7105,-5.6614,-5.6614,-5.5716,-5.487,-5.3976,-5.3664,-5.2993,-5.2002,-5.2002,-5.1695,-5.1229,-5.1229,-5.1229,-5.1229,-5.1229,-5.1229,-5.1229,-5.1229,-5.0947,-5.0501,-5.0567,-5.0279,-4.9669,-4.9766,-4.9766,-4.9669,-4.9669,-4.9669,-4.9669,-4.9669,-4.9248,-4.8324,-4.6736,-4.582,-4.4993,-4.3184,-4.2425,-4.1972,-4.1516,-4.1287,-4.1172,-4.1172,-4.1172,-4.1172,-4.1172,-4.1172,-4.1172,-4.1172,-4.1172,-4.0942,-4.0339,-4.0223,-3.9989,-3.9426,-3.7089,-3.5273,-3.5105,-3.2614,-3.0919,-3.0681,-3.0409,-2.9869,-2.9083,-2.823,-2.7672,-2.7313,-2.7278,-2.7227,-2.7073,-2.683,-2.6205,-2.5103,-2.4857,-2.4363,-2.3728,-2.323,-2.3106,-2.3106,-2.3106,-2.3106,-2.312,-2.3252,-2.316,-2.3092,-2.2835,-2.2669,-2.2695,-2.2485,-2.208,-2.1505,-2.0142,-1.8809,-1.7268,-6.5829,-6.5817,-6.5717,-6.5573,-6.439,-6.3734,-6.4385,-6.2816,-6.1461,-6.1323,-6.0703,-5.9978,-5.9116,-5.884,-5.8771,-5.8771,-5.8419,-5.8171,-5.8171,-5.8027,-5.7881,-5.7881,-5.7181,-5.6691,-5.6614,-5.5716,-5.487,-5.3976,-5.3201,-5.2518,-5.2002,-5.2002,-5.1695,-5.1229,-5.1229,-5.1229,-5.1229,-5.1229,-5.1229,-5.1229,-5.1229,-5.0947,-5.0596,-5.0728,-5.0346,-4.9766,-4.999,-4.9892,-4.9669,-4.9669,-4.9669,-4.9669,-4.9669,-4.9669,-4.9248,-4.7074,-4.6424,-4.5688,-4.3073,-4.2224,-4.1997,-4.1402,-4.1172,-4.1172,-4.1172,-4.1172,-4.1172,-4.1172,-4.1172,-4.1172,-4.1172,-4.1196,-4.0942,-4.0339,-4.0223,-3.9989,-3.9426,-3.7089,-3.5376,-3.5376,-3.3,-3.1377,-3.1377,-3.0683,-2.9941,-2.8794,-2.8381,-2.8083,-2.7672,-2.7655,-2.7501,-2.7141,-2.6499,-2.5872,-2.5103,-2.4487,-2.3728,-2.3106,-2.3106,-2.3106,-2.3106,-2.3135,-2.3149,-2.3164,-2.3501,-2.3391,-2.3193,-2.3088,-2.2987,-2.2862,-2.2593,-2.1654,-2.0491,-1.8938,-1.7409,-1.5877,-6.6568,-6.6529,-6.6648,-6.7116,-6.6017,-6.5161,-6.534,-6.4077,-6.2668,-6.1461,-6.1151,-6.0494,-5.9012,-5.8771,-5.8735,-5.8561,-5.8348,-5.8099,-5.7954,-5.7881,-5.7881,-5.7881,-5.7735,-5.7331,-5.6614,-5.5716,-5.487,-5.3976,-5.3836,-5.317,-5.2002,-5.2002,-5.1695,-5.1229,-5.1229,-5.1229,-5.1229,-5.1229,-5.1229,-5.1229,-5.1229,-5.1011,-5.0728,-5.0822,-5.0442,-4.999,-5.0086,-4.9892,-4.9669,-4.9669,-4.9669,-4.9669,-4.9669,-4.9669,-4.9473,-4.8021,-4.6971,-4.5899,-4.4209,-4.2961,-4.1997,-4.1606,-4.1402,-4.1172,-4.1172,-4.1172,-4.1172,-4.1172,-4.1172,-4.1172,-4.1172,-4.0966,-4.0711,-4.0223,-4.0013,-3.9779,-3.9308,-3.7089,-3.5376,-3.5376,-3.3,-3.1377,-3.1377,-3.0807,-3.0077,-2.9177,-2.8904,-2.8477,-2.8083,-2.8066,-2.7895,-2.7501,-2.6867,-2.5993,-2.5103,-2.4487,-2.3728,-2.3106,-2.3106,-2.3106,-2.312,-2.3369,-2.3486,-2.3501,-2.3565,-2.3463,-2.3426,-2.3098,-2.2903,-2.2902,-2.2766,-2.1833,-2.0491,-1.8938,-1.7409,-1.5877,-6.7418,-6.734,-6.7332,-6.7667,-6.6852,-6.6002,-6.5653,-6.4702,-6.3412,-6.1567,-6.1289,-6.0666,-5.8942,-5.8701,-5.8561,-5.8277,-5.8099,-5.8027,-5.7881,-5.7881,-5.7881,-5.7881,-5.748,-5.6844,-5.6034,-5.5149,-5.4485,-5.3976,-5.3577,-5.2935,-5.2002,-5.2002,-5.1695,-5.1229,-5.1229,-5.1229,-5.1229,-5.1229,-5.1229,-5.1229,-5.1229,-5.1011,-5.0793,-5.0917,-5.0632,-5.0086,-5.0183,-5.0086,-4.9669,-4.9669,-4.9669,-4.9669,-4.9669,-4.9669,-4.9473,-4.8324,-4.7177,-4.6005,-4.4427,-4.3048,-4.1997,-4.1516,-4.1287,-4.1172,-4.1172,-4.1172,-4.1172,-4.1172,-4.1172,-4.1172,-4.1172,-4.0966,-4.0595,-4.0223,-4.0013,-3.9684,-3.9308,-3.7089,-3.5376,-3.5376,-3.3,-3.1249,-3.1009,-3.062,-3.003,-2.9302,-2.9155,-2.8871,-2.8494,-2.8477,-2.8162,-2.7395,-2.675,-2.5913,-2.5109,-2.4462,-2.3955,-2.3574,-2.3413,-2.334,-2.3354,-2.3676,-2.3823,-2.3837,-2.3767,-2.3601,-2.3504,-2.324,-2.2984,-2.2859,-2.2859,-2.1459,-1.9507,-1.8659,-1.6987,-1.4884,-6.8121,-6.7967,-6.7847,-6.7741,-6.7061,-6.6344,-6.5653,-6.4905,-6.3659,-6.1567,-6.1289,-6.0596,-5.8942,-5.8561,-5.8243,-5.7954,-5.7881,-5.7881,-5.7881,-5.7881,-5.7881,-5.7881,-5.7181,-5.6503,-5.5796,-5.4736,-5.4062,-5.375,-5.3024,-5.2458,-5.2002,-5.2002,-5.1695,-5.1229,-5.1229,-5.1229,-5.1229,-5.1229,-5.1229,-5.1229,-5.1229,-5.1105,-5.0917,-5.1105,-5.0757,-5.0183,-5.0405,-5.0183,-4.9669,-4.9669,-4.9669,-4.964,-4.9553,-4.9582,-4.9444,-4.8411,-4.7299,-4.6005,-4.4509,-4.3134,-4.1997,-4.1287,-4.1172,-4.1172,-4.1172,-4.1172,-4.1172,-4.1172,-4.1172,-4.1172,-4.1172,-4.0826,-4.0479,-4.0223,-3.9896,-3.9684,-3.9308,-3.7089,-3.5376,-3.5376,-3.3,-3.112,-3.0508,-3.0378,-3.01,-2.9316,-2.9316,-2.9179,-2.8888,-2.8871,-2.8426,-2.7272,-2.6616,-2.5814,-2.5123,-2.4476,-2.4086,-2.4086,-2.3866,-2.3735,-2.3691,-2.4013,-2.4174,-2.4188,-2.4098,-2.3842,-2.3588,-2.3433,-2.3133,-2.2859,-2.2859,-2.1044,-1.8379,-1.7819,-1.6009,-1.3904,-6.807,-6.7899,-6.7741,-6.7687,-6.6641,-6.5752,-6.559,-6.4532,-6.3159,-6.1496,-6.1146,-6.0419,-5.8732,-5.8205,-5.7954,-5.7881,-5.7881,-5.7881,-5.7881,-5.7881,-5.7881,-5.7881,-5.7808,-5.7662,-5.7554,-5.5955,-5.4401,-5.2877,-5.2788,-5.2458,-5.2002,-5.2002,-5.1695,-5.1229,-5.1229,-5.1229,-5.1229,-5.1229,-5.1229,-5.1229,-5.1229,-5.1229,-5.1105,-5.1229,-5.0852,-5.0501,-5.0501,-5.0183,-4.9669,-4.9669,-4.9669,-4.9582,-4.903,-4.9233,-4.9582,-4.8808,-4.7472,-4.611,-4.5422,-4.3661,-4.1997,-4.1287,-4.1172,-4.1172,-4.1172,-4.1172,-4.1172,-4.1172,-4.1172,-4.1172,-4.1172,-4.0711,-4.0223,-4.0223,-3.9779,-3.9308,-3.9308,-3.7089,-3.5376,-3.5376,-3.3,-3.112,-3.0508,-3.0378,-3.01,-2.9316,-2.9316,-2.9299,-2.9248,-2.923,-2.8799,-2.7635,-2.6987,-2.6194,-2.5123,-2.4476,-2.4086,-2.4086,-2.432,-2.4291,-2.4027,-2.4349,-2.451,-2.4525,-2.416,-2.4032,-2.3896,-2.3256,-2.2996,-2.2859,-2.2859,-2.1044,-1.81,-1.5443,-1.4181,-1.3904,-6.807,-6.7899,-6.7687,-6.7687,-6.7174,-6.6523,-6.5716,-6.5105,-6.3902,-6.1638,-6.1146,-6.0347,-5.8661,-5.8099,-5.7881,-5.7881,-5.7881,-5.7881,-5.7881,-5.7881,-5.7881,-5.7881,-5.7881,-5.7662,-5.7181,-5.6459,-5.5149,-5.3227,-5.2757,-5.2337,-5.2002,-5.188,-5.1602,-5.1229,-5.1229,-5.1229,-5.1229,-5.1229,-5.1229,-5.1229,-5.1229,-5.1229,-5.1229,-5.1229,-5.0947,-5.0501,-5.0183,-4.9892,-4.9669,-4.9669,-4.9436,-4.9146,-4.9233,-4.9204,-4.9175,-4.9233,-4.7797,-4.6005,-4.5528,-4.3636,-4.1745,-4.1287,-4.1172,-4.1172,-4.1172,-4.1172,-4.1172,-4.1172,-4.1172,-4.1172,-4.1172,-4.0711,-4.0223,-4.0223,-3.9638,-3.9308,-3.9308,-3.7089,-3.4881,-3.3379,-3.2001,-3.0879,-3.0508,-3.023,-2.9822,-2.9316,-2.9316,-2.9316,-2.9316,-2.9316,-2.8706,-2.749,-2.7094,-2.637,-2.5158,-2.476,-2.4627,-2.4627,-2.4774,-2.4671,-2.4364,-2.4686,-2.4698,-2.4578,-2.4167,-2.3816,-2.3679,-2.3133,-2.2859,-2.2859,-2.2859,-2.1044,-1.7959,-1.5026,-1.3904,-1.3904]}]]